[[{"header":{"parameterUnit":"m.s-1","parameterCategory":1,"la1":31.0,"la2":29.5877,"lo1":-88.7671,"lo2":-86.6584,"dx":0.0162,"dy":0.0185,"nx":115,"ny":88,"refTime":"2022-11-19T18:00:00:Z","depth":0,"parameterNumber":2,"parameterNumberName":"U-component_of_WINDS"},"data":[0.0,0.0,0.0,0.0,0.0,0.0,0.0,0.0,0.0,0.0,0.0,0.0,0.0,0.0,0.0,0.0,0.0,0.0,0.0,0.0,0.0,0.0,0.0,0.0,0.0,0.0,0.0,0.0,0.0,0.0,0.0,0.0,0.0,0.0,0.0,0.0,0.0,0.0,0.0,0.0,0.0,0.0,0.0,0.0,0.0,0.0,0.0,0.0,0.0,0.0,0.0,0.0,0.0,0.0,0.0,0.0,0.0,0.0,0.0,0.0,0.0,0.0,0.0,0.0,0.0,0.0,0.0,0.0,0.0,0.0,0.0,0.0,0.0,0.0,0.0,0.0,0.0,0.0,0.0,0.0,0.0,0.0,0.0,0.0,0.0,0.0,0.0,0.0,0.0,0.0,0.0,0.0,0.0,0.0,0.0,0.0,0.0,0.0,0.0,0.0,0.0,0.0,0.0,0.0,0.0,0.0,0.0,0.0,0.0,0.0,0.0,0.0,0.0,0.0,0.0,0.0,0.0,0.0,0.0,0.0,0.0,0.0,0.0,0.0,0.0,0.0,0.0,0.0,0.0,0.0,0.0,0.0,0.0,0.0,0.0,0.0,0.0,0.0,0.0,0.0,0.0,0.0,0.0,0.0,0.0,0.0,0.0,0.0,0.0,0.0,0.0,0.0,0.0,0.0,0.0,0.0,0.0,0.0,0.0,0.0,0.0,0.0,0.0,0.0,0.0,0.0,0.0,0.0,0.0,0.0,0.0,0.0,0.0,0.0,0.0,0.0,0.0,0.0,0.0,0.0,0.0,0.0,0.0,0.0,0.0,0.0,0.0,0.0,0.0,0.0,0.0,0.0,0.0,0.0,0.0,0.0,0.0,0.0,0.0,0.0,0.0,0.0,0.0,0.0,0.0,0.0,0.0,0.0,0.0,0.0,0.0,0.0,0.0,0.0,0.0,0.0,0.0,0.0,0.0,0.0,0.0,0.0,0.0,0.0,0.0,0.0,0.0,0.0,0.0,0.0,0.0,0.0,0.0,0.0,0.0,0.0,0.0,0.0,0.0,0.0,0.0,0.0,0.0,0.0,0.0,0.0,0.0,0.0,0.0,0.0,0.0,0.0,0.0,0.0,0.0,0.0,0.0,0.0,0.0,0.0,0.0,0.0,0.0,0.0,0.0,0.0,0.0,0.0,0.0,0.0,0.0,0.0,0.0,0.0,0.0,0.0,0.0,0.0,0.0,0.0,0.0,0.0,0.0,0.0,0.0,0.0,0.0,0.0,0.0,0.0,0.0,0.0,0.0,0.0,0.0,0.0,0.0,0.0,0.0,0.0,0.0,0.0,0.0,0.0,0.0,0.0,0.0,0.0,0.0,0.0,0.0,0.0,0.0,0.0,0.0,0.0,0.0,0.0,0.0,0.0,0.0,0.0,0.0,0.0,0.0,0.0,0.0,0.0,0.0,0.0,0.0,0.0,0.0,0.0,0.0,0.0,0.0,0.0,0.0,0.0,0.0,0.0,0.0,0.0,0.0,0.0,0.0,0.0,0.0,0.0,0.0,0.0,0.0,0.0,0.0,0.0,0.0,0.0,0.0,0.0,0.0,0.0,0.0,0.0,0.0,0.0,0.0,0.0,0.0,0.0,0.0,0.0,0.0,0.0,0.0,0.0,0.0,0.0,0.0,0.0,0.0,0.0,0.0,0.0,0.0,0.0,0.0,0.0,0.0,0.0,0.0,0.0,0.0,0.0,0.0,0.0,0.0,0.0,0.0,0.0,0.0,0.0,0.0,0.0,0.0,0.0,0.0,0.0,0.0,0.0,0.0,0.0,0.0,0.0,0.0,0.0,0.0,0.0,0.0,0.0,0.0,0.0,0.0,0.0,0.0,0.0,0.0,0.0,0.0,0.0,0.0,0.0,0.0,0.0,0.0,0.0,0.0,0.0,0.0,0.0,0.0,0.0,0.0,0.0,0.0,0.0,0.0,0.0,0.0,0.0,0.0,0.0,0.0,0.0,0.0,0.0,0.0,0.0,0.0,0.0,0.0,0.0,0.0,0.0,0.0,0.0,0.0,0.0,0.0,0.0,0.0,0.0,0.0,0.0,0.0,0.0,0.0,0.0,0.0,0.0,0.0,0.0,0.0,0.0,0.0,0.0,0.0,0.0,0.0,0.0,0.0,0.0,0.0,0.0,0.0,0.0,0.0,0.0,0.0,0.0,0.0,0.0,0.0,0.0,0.0,0.0,0.0,0.0,0.0,0.0,0.0,0.0,0.0,0.0,0.0,0.0,0.0,0.0,0.0,0.0,0.0,0.0,0.0,0.0,0.0,0.0,0.0,0.0,0.0,0.0,0.0,0.0,0.0,0.0,0.0,0.0,0.0,0.0,0.0,0.0,0.0,0.0,0.0,0.0,0.0,0.0,0.0,0.0,0.0,0.0,0.0,0.0,0.0,0.0,0.0,0.0,0.0,0.0,0.0,0.0,0.0,0.0,0.0,0.0,0.0,0.0,0.0,0.0,0.0,0.0,0.0,0.0,0.0,0.0,0.0,0.0,0.0,0.0,0.0,0.0,0.0,0.0,0.0,0.0,0.0,0.0,0.0,0.0,0.0,0.0,0.0,0.0,0.0,0.0,0.0,0.0,0.0,0.0,0.0,0.0,0.0,0.0,0.0,0.0,0.0,0.0,0.0,0.0,0.0,0.0,0.0,0.0,0.0,0.0,0.0,0.0,0.0,0.0,0.0,0.0,0.0,0.0,0.0,0.0,0.0,0.0,0.0,0.0,0.0,0.0,0.0,0.0,0.0,0.0,0.0,0.0,0.0,0.0,0.0,0.0,0.0,0.0,0.0,0.0,0.0,0.0,0.0,0.0,0.0,0.0,0.0,0.0,0.0,0.0,0.0,0.0,0.0,0.0,0.0,0.0,0.0,0.0,0.0,0.0,0.0,0.0,0.0,0.0,0.0,0.0,0.0,0.0,0.0,0.0,0.0,0.0,0.0,0.0,0.0,0.0,0.0,0.0,0.0,0.0,0.0,0.0,0.0,0.0,0.0,0.0,0.0,0.0,0.0,0.0,0.0,0.0,0.0,0.0,0.0,0.0,0.0,0.0,0.0,0.0,0.0,0.0,0.0,0.0,0.0,0.0,0.0,0.0,0.0,0.0,0.0,0.0,0.0,0.0,0.0,0.0,0.0,0.0,0.0,0.0,0.0,0.0,0.0,0.0,0.0,0.0,0.0,0.0,0.0,0.0,0.0,0.0,0.0,0.0,0.0,0.0,0.0,0.0,0.0,0.0,0.0,0.0,0.0,0.0,0.0,0.0,0.0,0.0,0.0,0.0,0.0,0.0,0.0,0.0,0.0,0.0,0.0,0.0,0.0,0.0,0.0,0.0,0.0,0.0,0.0,0.0,0.0,0.0,0.0,0.0,0.0,0.0,0.0,0.0,0.0,0.0,0.0,0.0,0.0,0.0,0.0,0.0,0.0,0.0,0.0,0.0,0.0,0.0,0.0,0.0,0.0,0.0,0.0,0.0,0.0,0.0,0.0,0.0,0.0,0.0,0.0,0.0,0.0,0.0,0.0,0.0,0.0,0.0,0.0,0.0,0.0,0.0,0.0,0.0,0.0,0.0,0.0,0.0,0.0,0.0,0.0,0.0,0.0,0.0,0.0,0.0,0.0,0.0,0.0,0.0,0.0,0.0,0.0,0.0,0.0,0.0,0.0,0.0,0.0,0.0,0.0,0.0,0.0,0.0,0.0,0.0,0.0,0.0,0.0,0.0,0.0,0.0,0.0,0.0,0.0,0.0,0.0,0.0,0.0,0.0,0.0,0.0,0.0,0.0,0.0,0.0,0.0,0.0,0.0,0.0,0.0,0.0,0.0,0.0,0.0,0.0,0.0,0.0,0.0,0.0,0.0,0.0,0.0,0.0,0.0,0.0,0.0,0.0,0.0,0.0,0.0,0.0,0.0,0.0,0.0,0.0,0.0,0.0,0.0,0.0,0.0,0.0,0.0,0.0,0.0,0.0,0.0,0.0,0.0,0.0,0.0,0.0,0.0,0.0,0.0,0.0,0.0,0.0,0.0,0.0,0.0,0.0,0.0,0.0,0.0,0.0,0.0,0.0,0.0,0.0,0.0,0.0,0.0,0.0,0.0,0.0,0.0,0.0,0.0,0.0,0.0,0.0,0.0,0.0,0.0,0.0,0.0,0.0,0.0,0.0,0.0,0.0,0.0,0.0,0.0,0.0,0.0,0.0,4.2342,0.0,0.0,0.0,4.3469,0.0,0.0,0.0,0.0,0.0,0.0,0.0,0.0,0.0,0.0,0.0,0.0,0.0,0.0,0.0,0.0,0.0,0.0,0.0,0.0,0.0,0.0,0.0,0.0,0.0,0.0,0.0,0.0,0.0,0.0,0.0,0.0,0.0,0.0,0.0,0.0,0.0,0.0,0.0,0.0,0.0,0.0,0.0,0.0,0.0,0.0,0.0,0.0,0.0,0.0,0.0,0.0,0.0,0.0,0.0,0.0,0.0,0.0,0.0,0.0,0.0,0.0,0.0,0.0,0.0,0.0,0.0,0.0,0.0,0.0,0.0,0.0,0.0,0.0,0.0,0.0,0.0,0.0,0.0,0.0,0.0,0.0,0.0,0.0,0.0,0.0,0.0,0.0,0.0,0.0,0.0,0.0,0.0,0.0,0.0,0.0,0.0,0.0,0.0,0.0,0.0,0.0,0.0,0.0,0.0,0.0,0.0,0.0,0.0,0.0,4.311,4.3512,4.3942,4.3942,4.3502,0.0,0.0,0.0,0.0,0.0,0.0,0.0,0.0,0.0,0.0,0.0,0.0,0.0,0.0,0.0,0.0,0.0,0.0,0.0,0.0,0.0,0.0,0.0,0.0,0.0,0.0,0.0,0.0,0.0,0.0,0.0,0.0,0.0,0.0,0.0,0.0,0.0,0.0,0.0,0.0,0.0,0.0,0.0,0.0,0.0,0.0,0.0,0.0,0.0,0.0,0.0,0.0,0.0,0.0,0.0,0.0,0.0,0.0,0.0,0.0,0.0,0.0,0.0,0.0,0.0,0.0,0.0,0.0,0.0,0.0,0.0,0.0,0.0,0.0,0.0,0.0,0.0,0.0,0.0,0.0,0.0,0.0,0.0,0.0,0.0,0.0,0.0,0.0,0.0,0.0,0.0,0.0,0.0,0.0,0.0,0.0,0.0,0.0,0.0,0.0,0.0,0.0,0.0,0.0,0.0,0.0,0.0,0.0,0.0,0.0,0.0,0.0,4.4268,4.4183,4.3101,0.0,0.0,0.0,0.0,0.0,0.0,0.0,0.0,0.0,0.0,0.0,0.0,0.0,0.0,0.0,0.0,0.0,0.0,0.0,0.0,0.0,0.0,0.0,0.0,0.0,0.0,0.0,0.0,0.0,0.0,0.0,0.0,0.0,0.0,0.0,0.0,0.0,0.0,0.0,0.0,0.0,0.0,0.0,0.0,0.0,0.0,0.0,0.0,0.0,0.0,0.0,0.0,0.0,0.0,0.0,0.0,0.0,0.0,0.0,0.0,0.0,0.0,0.0,0.0,0.0,0.0,0.0,0.0,0.0,0.0,0.0,0.0,0.0,0.0,0.0,0.0,0.0,0.0,0.0,0.0,0.0,0.0,0.0,0.0,0.0,0.0,0.0,0.0,0.0,0.0,0.0,0.0,0.0,0.0,0.0,0.0,0.0,0.0,0.0,0.0,0.0,0.0,0.0,0.0,0.0,0.0,0.0,0.0,0.0,0.0,4.3789,4.3525,4.4268,0.0,4.1827,0.0,0.0,0.0,0.0,0.0,0.0,0.0,0.0,0.0,0.0,0.0,0.0,0.0,0.0,0.0,0.0,0.0,0.0,0.0,0.0,0.0,0.0,0.0,0.0,0.0,0.0,0.0,0.0,0.0,0.0,0.0,0.0,0.0,0.0,0.0,0.0,0.0,0.0,0.0,0.0,0.0,0.0,0.0,0.0,0.0,0.0,0.0,0.0,0.0,0.0,0.0,0.0,0.0,0.0,0.0,0.0,0.0,0.0,0.0,0.0,0.0,0.0,0.0,0.0,0.0,0.0,0.0,0.0,0.0,0.0,0.0,0.0,0.0,0.0,0.0,0.0,0.0,0.0,0.0,0.0,0.0,0.0,0.0,0.0,0.0,0.0,0.0,0.0,0.0,0.0,0.0,0.0,0.0,0.0,0.0,0.0,0.0,0.0,0.0,0.0,0.0,0.0,0.0,0.0,0.0,0.0,0.0,0.0,0.0,0.0,4.4597,4.3543,4.38,4.3195,0.0,0.0,0.0,0.0,0.0,0.0,0.0,0.0,0.0,0.0,0.0,0.0,0.0,0.0,0.0,0.0,0.0,0.0,0.0,0.0,0.0,0.0,0.0,0.0,0.0,0.0,0.0,0.0,0.0,0.0,0.0,0.0,0.0,0.0,0.0,0.0,0.0,0.0,0.0,0.0,0.0,0.0,0.0,0.0,0.0,0.0,0.0,0.0,0.0,0.0,0.0,0.0,0.0,0.0,0.0,0.0,0.0,0.0,0.0,0.0,0.0,0.0,0.0,0.0,0.0,0.0,0.0,0.0,0.0,0.0,0.0,0.0,0.0,0.0,0.0,0.0,0.0,0.0,0.0,0.0,0.0,0.0,0.0,0.0,0.0,0.0,0.0,0.0,0.0,0.0,0.0,0.0,0.0,0.0,0.0,0.0,0.0,0.0,0.0,0.0,0.0,0.0,0.0,0.0,0.0,0.0,0.0,0.0,0.0,0.0,4.4758,4.5337,4.4204,4.3726,4.2761,4.1211,0.0,0.0,0.0,0.0,0.0,0.0,0.0,0.0,0.0,0.0,0.0,0.0,0.0,0.0,0.0,0.0,0.0,0.0,0.0,0.0,0.0,0.0,0.0,0.0,0.0,0.0,0.0,0.0,0.0,0.0,0.0,0.0,0.0,0.0,0.0,0.0,0.0,0.0,0.0,0.0,0.0,0.0,0.0,0.0,0.0,0.0,0.0,0.0,0.0,0.0,0.0,0.0,0.0,0.0,0.0,0.0,0.0,0.0,0.0,0.0,0.0,0.0,0.0,0.0,0.0,0.0,0.0,0.0,0.0,0.0,0.0,0.0,0.0,0.0,0.0,0.0,0.0,0.0,0.0,0.0,0.0,0.0,0.0,0.0,0.0,0.0,0.0,0.0,0.0,0.0,0.0,0.0,0.0,0.0,0.0,0.0,0.0,0.0,0.0,0.0,0.0,0.0,0.0,0.0,0.0,0.0,0.0,0.0,4.4464,4.5411,4.5847,4.57,4.4314,4.2496,0.0,0.0,0.0,0.0,0.0,0.0,0.0,0.0,0.0,0.0,0.0,0.0,0.0,0.0,0.0,0.0,0.0,0.0,0.0,0.0,0.0,0.0,0.0,0.0,0.0,0.0,0.0,0.0,0.0,0.0,0.0,0.0,0.0,0.0,0.0,0.0,0.0,0.0,0.0,0.0,0.0,0.0,0.0,0.0,0.0,0.0,0.0,0.0,0.0,0.0,0.0,0.0,0.0,0.0,0.0,0.0,0.0,0.0,0.0,0.0,0.0,0.0,0.0,0.0,0.0,0.0,0.0,0.0,0.0,0.0,0.0,0.0,0.0,0.0,0.0,0.0,0.0,0.0,0.0,0.0,0.0,0.0,0.0,0.0,0.0,0.0,0.0,0.0,0.0,0.0,0.0,0.0,0.0,0.0,0.0,0.0,0.0,0.0,0.0,0.0,0.0,0.0,0.0,0.0,0.0,0.0,0.0,0.0,0.0,4.3394,4.4044,4.4603,4.5067,4.3242,4.146,0.0,0.0,0.0,0.0,0.0,0.0,0.0,0.0,0.0,0.0,0.0,0.0,0.0,0.0,0.0,0.0,0.0,0.0,0.0,0.0,0.0,0.0,0.0,0.0,0.0,0.0,0.0,0.0,0.0,0.0,0.0,0.0,0.0,0.0,0.0,0.0,0.0,0.0,0.0,0.0,0.0,0.0,0.0,0.0,0.0,0.0,0.0,0.0,0.0,0.0,0.0,0.0,0.0,0.0,0.0,0.0,0.0,0.0,0.0,0.0,0.0,0.0,0.0,0.0,0.0,0.0,0.0,0.0,0.0,0.0,0.0,0.0,0.0,0.0,0.0,0.0,0.0,0.0,0.0,0.0,0.0,0.0,0.0,0.0,0.0,0.0,0.0,0.0,0.0,0.0,0.0,0.0,0.0,0.0,0.0,0.0,0.0,0.0,0.0,0.0,0.0,0.0,0.0,0.0,0.0,0.0,0.0,0.0,0.0,4.3707,4.4359,4.4782,4.5021,4.3254,4.1516,0.0,0.0,0.0,0.0,0.0,0.0,0.0,0.0,0.0,0.0,0.0,0.0,0.0,0.0,0.0,0.0,0.0,0.0,0.0,0.0,0.0,0.0,0.0,0.0,0.0,0.0,0.0,0.0,0.0,0.0,0.0,0.0,0.0,0.0,0.0,0.0,0.0,0.0,0.0,0.0,0.0,0.0,0.0,0.0,0.0,0.0,0.0,0.0,0.0,0.0,0.0,0.0,0.0,0.0,0.0,0.0,0.0,0.0,0.0,0.0,0.0,0.0,0.0,0.0,0.0,0.0,0.0,0.0,0.0,0.0,0.0,0.0,0.0,0.0,0.0,0.0,0.0,0.0,0.0,0.0,0.0,0.0,0.0,0.0,0.0,0.0,0.0,0.0,0.0,0.0,0.0,0.0,0.0,0.0,0.0,0.0,0.0,0.0,0.0,0.0,0.0,0.0,0.0,0.0,0.0,0.0,0.0,0.0,4.3794,4.5778,4.6585,4.6603,4.5861,4.4496,4.271,0.0,0.0,0.0,0.0,0.0,0.0,0.0,0.0,0.0,0.0,0.0,0.0,0.0,0.0,0.0,0.0,0.0,0.0,0.0,0.0,0.0,0.0,0.0,0.0,0.0,0.0,0.0,0.0,0.0,0.0,0.0,0.0,0.0,0.0,0.0,0.0,0.0,0.0,0.0,0.0,0.0,0.0,0.0,0.0,0.0,0.0,0.0,0.0,0.0,0.0,0.0,0.0,0.0,0.0,0.0,0.0,0.0,0.0,0.0,0.0,0.0,0.0,0.0,0.0,0.0,0.0,0.0,0.0,0.0,0.0,0.0,0.0,0.0,0.0,0.0,0.0,0.0,0.0,0.0,0.0,0.0,0.0,0.0,0.0,0.0,0.0,0.0,0.0,0.0,0.0,0.0,0.0,0.0,0.0,0.0,0.0,0.0,0.0,0.0,0.0,0.0,0.0,0.0,0.0,0.0,0.0,0.0,0.0,0.0,4.5127,4.6481,4.6622,4.5317,4.3584,4.2026,0.0,0.0,0.0,0.0,0.0,0.0,0.0,0.0,0.0,0.0,0.0,0.0,0.0,0.0,0.0,0.0,0.0,0.0,0.0,0.0,0.0,0.0,0.0,0.0,0.0,0.0,0.0,0.0,0.0,0.0,0.0,0.0,0.0,0.0,0.0,0.0,0.0,0.0,0.0,0.0,0.0,0.0,0.0,0.0,0.0,0.0,0.0,0.0,0.0,0.0,0.0,0.0,0.0,0.0,0.0,0.0,0.0,0.0,0.0,0.0,0.0,0.0,0.0,0.0,0.0,0.0,0.0,0.0,0.0,0.0,0.0,0.0,0.0,0.0,0.0,0.0,0.0,0.0,0.0,0.0,0.0,0.0,0.0,0.0,0.0,0.0,0.0,0.0,0.0,0.0,0.0,0.0,0.0,0.0,0.0,0.0,0.0,0.0,0.0,0.0,0.0,0.0,0.0,0.0,0.0,0.0,0.0,0.0,0.0,4.7952,4.8603,4.8578,4.7668,4.5081,4.295,4.1388,0.0,0.0,0.0,0.0,0.0,0.0,0.0,0.0,0.0,0.0,0.0,0.0,0.0,0.0,0.0,0.0,0.0,0.0,0.0,0.0,0.0,0.0,0.0,0.0,0.0,0.0,0.0,0.0,0.0,0.0,0.0,0.0,0.0,0.0,0.0,0.0,0.0,0.0,0.0,0.0,0.0,0.0,0.0,0.0,0.0,0.0,0.0,0.0,0.0,0.0,0.0,0.0,0.0,0.0,0.0,0.0,0.0,0.0,0.0,0.0,0.0,0.0,0.0,0.0,0.0,0.0,0.0,0.0,0.0,0.0,0.0,0.0,0.0,0.0,0.0,0.0,0.0,0.0,0.0,0.0,0.0,0.0,0.0,0.0,0.0,0.0,0.0,0.0,0.0,0.0,0.0,0.0,0.0,0.0,0.0,0.0,0.0,0.0,0.0,0.0,0.0,0.0,0.0,0.0,0.0,0.0,0.0,0.0,5.3423,5.2631,5.2196,5.2053,4.8425,4.5144,0.0,0.0,0.0,0.0,0.0,0.0,0.0,0.0,0.0,0.0,0.0,0.0,0.0,0.0,0.0,0.0,0.0,0.0,0.0,0.0,0.0,0.0,0.0,0.0,0.0,0.0,0.0,0.0,0.0,0.0,0.0,0.0,0.0,0.0,0.0,0.0,0.0,0.0,0.0,0.0,0.0,0.0,0.0,0.0,0.0,0.0,0.0,0.0,0.0,0.0,0.0,0.0,0.0,0.0,0.0,0.0,0.0,0.0,0.0,0.0,0.0,0.0,0.0,0.0,0.0,0.0,0.0,0.0,0.0,0.0,0.0,0.0,0.0,0.0,0.0,0.0,0.0,0.0,0.0,0.0,0.0,0.0,0.0,0.0,0.0,0.0,0.0,0.0,0.0,0.0,0.0,0.0,0.0,0.0,0.0,0.0,0.0,0.0,0.0,0.0,0.0,0.0,0.0,0.0,0.0,0.0,0.0,0.0,0.0,5.5952,5.7121,5.6238,5.3184,4.9431,4.6357,0.0,0.0,0.0,0.0,0.0,0.0,0.0,0.0,0.0,0.0,0.0,0.0,0.0,0.0,0.0,0.0,0.0,0.0,0.0,0.0,0.0,0.0,0.0,0.0,0.0,0.0,0.0,0.0,0.0,0.0,0.0,0.0,0.0,0.0,0.0,0.0,0.0,0.0,0.0,0.0,0.0,0.0,0.0,0.0,0.0,0.0,0.0,0.0,0.0,0.0,0.0,0.0,0.0,0.0,0.0,0.0,0.0,0.0,0.0,0.0,0.0,0.0,0.0,0.0,0.0,0.0,0.0,0.0,0.0,0.0,0.0,0.0,0.0,0.0,0.0,0.0,0.0,0.0,0.0,0.0,0.0,0.0,0.0,0.0,0.0,0.0,0.0,0.0,0.0,0.0,0.0,0.0,0.0,0.0,0.0,0.0,0.0,0.0,0.0,0.0,0.0,0.0,0.0,0.0,0.0,0.0,0.0,0.0,5.6152,5.8448,6.0692,6.0269,5.7029,5.2165,4.8301,0.0,0.0,0.0,0.0,0.0,0.0,0.0,0.0,0.0,0.0,0.0,0.0,0.0,0.0,0.0,0.0,0.0,0.0,0.0,0.0,0.0,0.0,0.0,0.0,0.0,0.0,0.0,0.0,0.0,0.0,0.0,0.0,0.0,0.0,0.0,0.0,0.0,0.0,0.0,0.0,0.0,0.0,0.0,0.0,0.0,0.0,0.0,0.0,0.0,0.0,0.0,0.0,0.0,0.0,0.0,0.0,0.0,0.0,0.0,0.0,0.0,0.0,0.0,0.0,0.0,0.0,0.0,0.0,0.0,0.0,0.0,0.0,0.0,0.0,0.0,0.0,0.0,0.0,0.0,0.0,0.0,0.0,0.0,0.0,0.0,0.0,0.0,0.0,0.0,0.0,0.0,0.0,0.0,0.0,0.0,0.0,0.0,0.0,0.0,0.0,0.0,0.0,0.0,0.0,0.0,0.0,0.0,0.0,5.8804,6.045,6.3059,6.3523,6.1577,5.5531,5.0558,0.0,0.0,0.0,0.0,0.0,0.0,0.0,0.0,0.0,0.0,0.0,0.0,0.0,0.0,0.0,0.0,0.0,0.0,0.0,0.0,0.0,0.0,0.0,0.0,0.0,0.0,0.0,0.0,0.0,0.0,0.0,0.0,0.0,0.0,0.0,0.0,0.0,0.0,0.0,0.0,0.0,0.0,0.0,0.0,0.0,0.0,0.0,0.0,0.0,0.0,0.0,0.0,0.0,0.0,0.0,0.0,0.0,0.0,0.0,0.0,0.0,0.0,0.0,0.0,0.0,0.0,0.0,0.0,0.0,0.0,0.0,0.0,0.0,0.0,0.0,0.0,0.0,0.0,0.0,0.0,0.0,0.0,0.0,0.0,0.0,0.0,0.0,0.0,0.0,0.0,0.0,0.0,0.0,0.0,0.0,0.0,0.0,0.0,0.0,0.0,0.0,0.0,0.0,0.0,0.0,0.0,0.0,0.0,5.8617,6.0391,6.2118,6.2549,6.1533,5.6027,5.1339,0.0,0.0,0.0,0.0,0.0,0.0,0.0,0.0,0.0,0.0,0.0,0.0,0.0,0.0,0.0,0.0,0.0,0.0,0.0,0.0,0.0,0.0,0.0,0.0,0.0,0.0,0.0,0.0,0.0,0.0,0.0,0.0,0.0,0.0,0.0,0.0,0.0,0.0,0.0,0.0,0.0,0.0,0.0,0.0,0.0,0.0,0.0,0.0,4.4524,0.0,0.0,0.0,0.0,0.0,0.0,0.0,0.0,0.0,0.0,0.0,0.0,0.0,0.0,0.0,0.0,0.0,0.0,0.0,0.0,0.0,0.0,0.0,0.0,0.0,0.0,0.0,0.0,0.0,0.0,0.0,0.0,0.0,0.0,0.0,0.0,0.0,0.0,0.0,0.0,0.0,0.0,0.0,0.0,0.0,0.0,0.0,0.0,0.0,0.0,0.0,0.0,0.0,0.0,0.0,0.0,0.0,0.0,0.0,5.8462,6.0842,6.2229,6.2465,6.1415,5.7522,5.3204,0.0,0.0,0.0,0.0,0.0,0.0,0.0,0.0,0.0,0.0,0.0,0.0,0.0,0.0,0.0,0.0,0.0,0.0,0.0,0.0,0.0,0.0,0.0,0.0,0.0,0.0,0.0,0.0,0.0,0.0,0.0,0.0,0.0,0.0,0.0,0.0,0.0,0.0,0.0,0.0,0.0,0.0,0.0,0.0,0.0,0.0,0.0,0.0,0.0,0.0,0.0,0.0,0.0,0.0,0.0,0.0,0.0,0.0,0.0,0.0,0.0,0.0,0.0,0.0,0.0,0.0,0.0,0.0,0.0,0.0,0.0,0.0,0.0,0.0,0.0,0.0,0.0,0.0,0.0,0.0,0.0,0.0,0.0,0.0,0.0,0.0,0.0,0.0,0.0,0.0,0.0,0.0,0.0,0.0,0.0,0.0,0.0,0.0,0.0,0.0,0.0,0.0,0.0,0.0,0.0,0.0,0.0,5.4957,5.859,6.1836,6.2668,6.2534,6.1474,5.8949,5.4907,4.9242,0.0,0.0,0.0,0.0,0.0,0.0,0.0,0.0,0.0,0.0,0.0,0.0,0.0,0.0,0.0,0.0,0.0,0.0,0.0,0.0,0.0,0.0,0.0,0.0,0.0,0.0,0.0,0.0,0.0,0.0,0.0,0.0,0.0,0.0,0.0,0.0,0.0,0.0,4.5292,4.5805,0.0,0.0,0.0,0.0,0.0,0.0,0.0,0.0,4.5604,0.0,0.0,0.0,0.0,0.0,0.0,0.0,0.0,0.0,0.0,0.0,0.0,0.0,0.0,0.0,0.0,0.0,0.0,0.0,0.0,0.0,0.0,0.0,0.0,0.0,0.0,0.0,0.0,0.0,0.0,0.0,0.0,0.0,0.0,0.0,0.0,0.0,0.0,0.0,0.0,0.0,0.0,0.0,0.0,0.0,0.0,0.0,0.0,0.0,0.0,0.0,0.0,0.0,0.0,0.0,0.0,5.4718,5.6729,5.9797,6.3925,6.258,6.1643,6.127,5.8631,5.4616,4.932,0.0,0.0,0.0,0.0,0.0,0.0,0.0,0.0,0.0,0.0,0.0,0.0,0.0,0.0,0.0,0.0,0.0,0.0,0.0,0.0,0.0,0.0,0.0,0.0,0.0,0.0,0.0,0.0,0.0,0.0,0.0,0.0,0.0,0.0,0.0,0.0,0.0,0.0,0.0,4.7677,4.7452,0.0,0.0,0.0,0.0,0.0,0.0,0.0,0.0,4.523,0.0,0.0,0.0,0.0,0.0,0.0,0.0,0.0,0.0,0.0,0.0,0.0,0.0,0.0,0.0,0.0,0.0,0.0,0.0,0.0,0.0,0.0,0.0,0.0,0.0,0.0,0.0,0.0,0.0,0.0,0.0,0.0,0.0,0.0,0.0,0.0,0.0,0.0,0.0,0.0,0.0,0.0,0.0,0.0,0.0,0.0,0.0,0.0,0.0,0.0,0.0,0.0,0.0,0.0,0.0,5.5572,5.8321,6.1095,6.3879,6.3027,6.1921,6.0694,5.8972,5.5373,0.0,0.0,0.0,0.0,0.0,0.0,0.0,0.0,0.0,0.0,0.0,0.0,0.0,0.0,0.0,0.0,0.0,0.0,0.0,0.0,0.0,0.0,0.0,0.0,0.0,0.0,0.0,0.0,0.0,0.0,0.0,0.0,0.0,0.0,0.0,0.0,0.0,0.0,0.0,0.0,4.9224,4.9466,5.0693,0.0,0.0,0.0,0.0,0.0,0.0,4.721,4.6599,0.0,0.0,0.0,0.0,0.0,0.0,0.0,0.0,0.0,0.0,0.0,0.0,0.0,0.0,0.0,0.0,0.0,0.0,0.0,0.0,0.0,0.0,0.0,0.0,0.0,0.0,0.0,0.0,0.0,0.0,0.0,0.0,0.0,0.0,0.0,0.0,0.0,0.0,0.0,0.0,0.0,0.0,0.0,0.0,0.0,0.0,0.0,0.0,0.0,0.0,0.0,0.0,0.0,0.0,0.0,5.5902,5.9462,6.2168,6.3812,6.362,6.2428,6.0423,5.9157,5.5841,0.0,0.0,0.0,0.0,0.0,0.0,0.0,0.0,0.0,0.0,0.0,0.0,0.0,0.0,0.0,0.0,0.0,0.0,0.0,0.0,0.0,0.0,0.0,0.0,0.0,0.0,0.0,0.0,0.0,0.0,0.0,0.0,0.0,0.0,0.0,0.0,0.0,0.0,0.0,0.0,0.0,5.1356,5.2137,5.1038,0.0,0.0,0.0,0.0,4.8879,4.9101,0.0,0.0,0.0,0.0,0.0,0.0,0.0,0.0,0.0,0.0,0.0,0.0,0.0,0.0,0.0,0.0,0.0,0.0,0.0,0.0,0.0,0.0,0.0,0.0,0.0,0.0,0.0,0.0,0.0,0.0,0.0,0.0,0.0,0.0,0.0,0.0,0.0,0.0,0.0,0.0,0.0,0.0,0.0,0.0,0.0,0.0,0.0,0.0,0.0,0.0,0.0,0.0,0.0,0.0,0.0,0.0,5.6596,5.9742,6.2651,6.5243,6.4153,6.273,6.1197,5.8481,5.4855,0.0,0.0,0.0,0.0,0.0,0.0,0.0,0.0,0.0,0.0,0.0,0.0,0.0,0.0,0.0,0.0,0.0,0.0,0.0,0.0,0.0,0.0,0.0,0.0,0.0,0.0,0.0,0.0,0.0,0.0,0.0,0.0,0.0,0.0,0.0,0.0,0.0,0.0,0.0,0.0,0.0,5.2291,5.2984,5.2395,5.208,0.0,0.0,5.2403,5.3877,5.2463,0.0,0.0,0.0,0.0,0.0,0.0,0.0,0.0,0.0,0.0,0.0,0.0,0.0,0.0,0.0,0.0,0.0,0.0,0.0,0.0,0.0,0.0,0.0,0.0,0.0,0.0,0.0,0.0,0.0,0.0,0.0,0.0,0.0,0.0,0.0,0.0,0.0,0.0,0.0,0.0,0.0,0.0,0.0,0.0,0.0,0.0,0.0,0.0,0.0,0.0,0.0,0.0,0.0,0.0,0.0,5.4025,5.8008,6.1424,6.3971,6.5605,6.4647,6.3226,6.1322,5.8795,5.5522,0.0,0.0,0.0,0.0,0.0,0.0,0.0,0.0,0.0,0.0,0.0,0.0,0.0,0.0,0.0,0.0,0.0,0.0,0.0,0.0,0.0,0.0,0.0,0.0,0.0,0.0,0.0,0.0,0.0,0.0,0.0,0.0,0.0,0.0,0.0,0.0,0.0,0.0,0.0,0.0,0.0,0.0,5.4005,5.3786,0.0,0.0,0.0,5.3348,5.3881,0.0,0.0,0.0,0.0,0.0,0.0,0.0,0.0,0.0,0.0,0.0,0.0,0.0,0.0,0.0,0.0,0.0,0.0,0.0,0.0,0.0,0.0,0.0,0.0,0.0,0.0,0.0,0.0,0.0,0.0,0.0,0.0,0.0,0.0,0.0,0.0,0.0,0.0,0.0,0.0,0.0,0.0,0.0,0.0,0.0,0.0,0.0,0.0,0.0,0.0,0.0,0.0,0.0,0.0,0.0,0.0,0.0,5.8979,6.3047,6.5425,6.5943,6.5425,6.4038,6.1637,5.9539,0.0,0.0,0.0,0.0,0.0,0.0,0.0,0.0,0.0,0.0,0.0,0.0,0.0,0.0,0.0,0.0,0.0,0.0,0.0,0.0,0.0,0.0,0.0,0.0,0.0,0.0,0.0,0.0,0.0,0.0,0.0,0.0,0.0,0.0,0.0,0.0,0.0,0.0,0.0,0.0,0.0,0.0,5.4508,5.4857,5.4773,5.4897,0.0,0.0,5.4128,5.4438,5.5057,5.4471,0.0,0.0,0.0,0.0,0.0,0.0,0.0,0.0,0.0,0.0,0.0,0.0,0.0,0.0,0.0,0.0,0.0,0.0,0.0,0.0,0.0,0.0,0.0,0.0,0.0,0.0,0.0,0.0,0.0,0.0,0.0,0.0,0.0,0.0,0.0,0.0,0.0,0.0,0.0,0.0,0.0,0.0,0.0,0.0,0.0,0.0,0.0,0.0,0.0,0.0,0.0,0.0,0.0,0.0,0.0,5.9056,6.4052,6.6633,6.67,6.669,6.5246,6.2424,6.0791,5.7543,0.0,0.0,0.0,0.0,0.0,0.0,0.0,0.0,0.0,0.0,0.0,0.0,0.0,0.0,0.0,0.0,0.0,0.0,0.0,0.0,0.0,0.0,0.0,0.0,0.0,0.0,0.0,0.0,0.0,0.0,0.0,0.0,0.0,0.0,0.0,0.0,0.0,0.0,0.0,0.0,0.0,5.4188,5.5306,5.5169,5.5594,0.0,0.0,5.5398,5.7519,5.7335,5.5468,5.1167,0.0,0.0,0.0,0.0,0.0,0.0,0.0,0.0,0.0,0.0,0.0,0.0,0.0,0.0,0.0,0.0,0.0,0.0,0.0,0.0,0.0,0.0,0.0,0.0,0.0,0.0,0.0,0.0,0.0,0.0,0.0,0.0,0.0,0.0,0.0,0.0,0.0,0.0,0.0,0.0,0.0,0.0,0.0,0.0,0.0,0.0,0.0,0.0,0.0,0.0,0.0,0.0,0.0,5.6486,5.9013,6.37,6.6339,6.6768,6.6373,6.5165,6.3159,6.1637,5.8786,0.0,0.0,0.0,0.0,0.0,0.0,0.0,0.0,0.0,0.0,0.0,0.0,0.0,0.0,0.0,0.0,0.0,0.0,0.0,0.0,0.0,0.0,0.0,0.0,0.0,0.0,0.0,0.0,4.4059,4.4404,4.4212,0.0,0.0,0.0,0.0,0.0,0.0,0.0,0.0,0.0,0.0,5.5578,5.6482,5.6497,0.0,0.0,5.6947,5.6392,5.7219,5.6437,5.4958,5.2668,5.0867,0.0,0.0,0.0,0.0,0.0,0.0,0.0,0.0,0.0,0.0,0.0,0.0,0.0,0.0,0.0,0.0,0.0,0.0,0.0,0.0,0.0,0.0,0.0,0.0,0.0,0.0,0.0,0.0,0.0,0.0,0.0,0.0,0.0,0.0,0.0,0.0,0.0,0.0,0.0,0.0,0.0,0.0,0.0,0.0,0.0,0.0,0.0,0.0,0.0,0.0,0.0,0.0,5.766,5.9699,6.4749,6.7421,6.7478,6.6981,6.5899,6.4197,6.2709,6.0308,0.0,0.0,0.0,0.0,0.0,0.0,0.0,0.0,0.0,0.0,0.0,0.0,0.0,0.0,0.0,0.0,0.0,0.0,0.0,0.0,0.0,0.0,0.0,0.0,0.0,0.0,0.0,0.0,4.5192,4.5239,4.4842,0.0,0.0,0.0,0.0,0.0,0.0,0.0,0.0,0.0,0.0,5.674,5.7682,5.7486,5.735,5.7735,5.6927,5.6317,5.6442,5.5732,5.4746,5.367,0.0,0.0,0.0,0.0,0.0,0.0,0.0,0.0,0.0,0.0,0.0,0.0,0.0,0.0,0.0,0.0,0.0,0.0,0.0,0.0,0.0,0.0,0.0,0.0,0.0,0.0,0.0,0.0,0.0,0.0,4.2293,0.0,0.0,0.0,0.0,0.0,0.0,0.0,0.0,0.0,0.0,0.0,0.0,0.0,0.0,0.0,0.0,0.0,0.0,0.0,0.0,0.0,0.0,5.9665,6.1264,6.7647,7.0421,6.9079,6.9011,6.7895,6.5706,6.4231,6.2023,5.8945,0.0,0.0,0.0,0.0,0.0,0.0,0.0,0.0,0.0,0.0,0.0,0.0,0.0,0.0,0.0,0.0,0.0,0.0,0.0,0.0,0.0,0.0,0.0,0.0,0.0,0.0,4.2671,4.4385,4.5671,0.0,0.0,0.0,0.0,0.0,0.0,0.0,0.0,0.0,0.0,5.6291,5.7397,5.8811,5.7964,5.7092,5.6956,5.5676,5.4956,5.5718,5.5691,5.52,0.0,0.0,0.0,0.0,0.0,0.0,0.0,0.0,0.0,0.0,0.0,0.0,0.0,0.0,0.0,0.0,0.0,0.0,0.0,0.0,0.0,0.0,0.0,0.0,0.0,0.0,0.0,4.7083,4.6365,0.0,0.0,0.0,0.0,0.0,0.0,0.0,0.0,0.0,0.0,0.0,5.2055,5.3239,0.0,0.0,0.0,0.0,0.0,0.0,0.0,0.0,0.0,0.0,0.0,0.0,6.052,6.0825,6.7117,7.0094,6.9113,6.8571,6.7692,6.6464,6.5493,6.2854,5.8389,0.0,0.0,0.0,0.0,0.0,0.0,0.0,0.0,0.0,0.0,0.0,0.0,0.0,0.0,0.0,0.0,0.0,0.0,0.0,0.0,0.0,0.0,0.0,0.0,0.0,4.4601,0.0,0.0,0.0,0.0,0.0,0.0,0.0,0.0,0.0,0.0,0.0,5.3529,5.609,5.6771,5.7381,5.8355,5.8127,5.8117,0.0,0.0,0.0,0.0,0.0,0.0,0.0,0.0,0.0,0.0,0.0,0.0,0.0,0.0,5.3078,4.8402,4.7725,4.8199,4.918,0.0,0.0,0.0,0.0,0.0,0.0,0.0,0.0,0.0,0.0,0.0,0.0,0.0,0.0,0.0,0.0,4.8443,0.0,0.0,0.0,0.0,0.0,0.0,0.0,0.0,5.5175,5.6046,5.5852,5.7061,5.7162,0.0,5.5674,5.4152,0.0,0.0,0.0,0.0,0.0,0.0,0.0,0.0,6.1815,6.2279,6.7939,7.0477,6.9519,6.8977,6.8233,6.7208,6.6203,6.3981,6.0327,5.7586,5.5108,0.0,0.0,0.0,0.0,0.0,0.0,0.0,0.0,0.0,0.0,0.0,0.0,0.0,0.0,0.0,0.0,0.0,0.0,0.0,0.0,0.0,0.0,0.0,4.6244,0.0,0.0,0.0,0.0,0.0,0.0,0.0,0.0,0.0,5.2162,5.3558,5.5348,5.7372,5.8163,5.8649,5.8819,0.0,0.0,0.0,0.0,0.0,0.0,0.0,5.5581,5.6055,5.5344,5.5099,5.63,5.69,5.7239,5.7534,0.0,0.0,5.2266,5.1555,5.2029,5.2968,5.3949,5.4735,5.4972,5.5978,5.6858,0.0,0.0,0.0,0.0,0.0,0.0,0.0,0.0,5.1776,5.1108,0.0,5.1108,0.0,0.0,0.0,0.0,0.0,5.3687,0.0,0.0,5.9564,6.0917,6.0283,6.0984,6.139,6.1332,5.9936,5.9225,5.9013,5.5674,0.0,0.0,0.0,0.0,0.0,0.0,6.3609,6.5751,7.0105,7.1684,7.0308,7.0217,6.9462,6.7963,6.6518,6.5368,6.4546,6.1119,5.8795,5.7857,5.175,0.0,0.0,0.0,0.0,0.0,0.0,0.0,0.0,0.0,0.0,0.0,0.0,0.0,0.0,0.0,0.0,0.0,0.0,0.0,0.0,4.7143,0.0,0.0,0.0,0.0,0.0,0.0,0.0,0.0,0.0,0.0,5.3009,5.5037,5.7286,5.8819,0.0,0.0,0.0,0.0,6.0781,5.9419,5.8524,5.8094,5.8204,5.866,5.9047,5.9081,0.0,0.0,6.0317,5.9066,5.8466,5.9056,5.9868,5.9785,5.833,5.7374,5.6968,5.7036,5.7128,5.7315,5.7992,5.8829,5.9699,5.5718,0.0,0.0,0.0,0.0,5.4727,5.5428,5.7018,5.6283,5.5581,5.4905,5.5099,0.0,0.0,0.0,0.0,0.0,0.0,5.8727,6.0486,6.1603,6.2526,6.3318,6.3565,6.3937,6.4421,6.3971,6.4038,6.4502,6.3521,6.0206,5.4862,0.0,0.0,0.0,0.0,6.6136,6.7387,7.0669,7.1954,7.0996,7.0466,6.9766,6.8774,6.7275,6.6396,6.6159,6.4096,6.167,5.8786,5.6359,0.0,0.0,0.0,0.0,0.0,0.0,0.0,0.0,0.0,0.0,0.0,0.0,0.0,0.0,0.0,0.0,0.0,0.0,0.0,4.6312,4.9729,5.1074,0.0,0.0,0.0,0.0,0.0,0.0,0.0,0.0,0.0,5.8693,5.8902,5.9272,0.0,0.0,6.0182,5.9428,6.0443,6.1535,6.2134,0.0,0.0,0.0,6.1535,6.0815,6.1332,6.2245,6.2777,6.2574,6.2618,6.2753,6.2946,6.3193,6.3159,6.2753,6.1646,6.1037,6.1424,6.1583,6.1839,6.2516,6.2888,6.3419,5.9224,5.8515,5.7204,5.7318,5.8361,5.7947,5.8745,6.0317,5.9877,5.9278,5.8592,5.8896,5.7771,5.5708,5.6156,0.0,0.0,0.0,6.1839,6.371,6.4319,6.5053,6.5899,6.6237,6.6609,6.7026,6.6721,6.7117,6.8121,6.7546,6.5009,6.068,0.0,0.0,6.2192,6.5821,6.8368,6.9722,7.1763,7.2631,7.2191,7.1176,7.0297,6.9519,6.8358,6.758,6.7252,6.6102,6.4299,6.1772,5.9548,5.6968,0.0,0.0,0.0,0.0,0.0,0.0,0.0,0.0,0.0,0.0,0.0,4.4127,0.0,0.0,0.0,0.0,4.7428,4.8545,5.0168,5.2511,0.0,0.0,0.0,0.0,0.0,0.0,0.0,5.7112,5.9708,6.1873,6.2888,6.2854,6.2651,6.2347,6.2584,6.2516,6.1772,0.0,6.414,6.4739,6.4434,6.4444,6.5314,6.4377,6.3622,6.4072,6.4502,6.4806,6.4796,6.4942,6.5222,6.573,6.5662,6.5652,6.6271,6.5639,6.4715,6.4096,6.4164,6.4613,6.5314,6.5696,6.6271,6.267,6.2518,5.9778,5.9624,6.1106,6.1116,6.1692,6.255,6.257,6.2188,6.1603,6.2289,6.1443,5.9554,5.9665,0.0,6.2874,6.3589,6.4671,6.6021,6.7364,6.803,6.8132,6.8808,6.9248,6.9339,6.8594,6.9022,7.0353,6.9045,6.8335,6.8233,6.6958,6.6542,6.7039,6.8493,7.0331,7.2428,7.3071,7.3421,7.3454,7.2112,7.1075,7.0409,6.9586,6.8842,6.8109,6.7377,6.6609,6.5706,6.1839,5.9235,5.8297,0.0,0.0,0.0,0.0,0.0,0.0,0.0,0.0,0.0,0.0,0.0,0.0,0.0,0.0,0.0,5.3357,0.0,5.5902,5.5446,0.0,0.0,0.0,5.4558,5.608,5.7552,5.9278,6.14,0.0,0.0,6.5774,0.0,6.6768,6.6214,6.6531,6.6531,6.5808,6.6823,6.7647,6.6903,6.6903,6.6971,6.6971,6.6869,6.6791,6.6836,6.7005,6.6937,6.6903,6.6474,6.662,6.7658,6.7444,6.7343,6.8842,6.8808,6.8267,6.5517,6.5571,6.6203,6.6836,6.7444,6.8132,6.4241,6.4666,6.4159,6.367,6.3177,6.3177,6.3548,6.4072,6.4072,6.3971,6.3835,6.4005,6.4082,6.414,6.529,6.6068,6.6643,6.7411,6.7963,6.8301,6.8639,6.9113,6.9654,6.9868,7.05,7.1537,7.1413,7.183,7.2676,7.2338,7.1864,7.1345,7.1515,7.0612,6.8673,7.0049,7.1582,7.3229,7.2868,7.2947,7.3454,7.2597,7.2056,7.1887,7.0612,6.9834,6.9654,6.8954,6.7918,6.6609,6.5517,6.4096,6.2202,5.6316,0.0,0.0,0.0,0.0,0.0,0.0,0.0,0.0,0.0,4.8037,4.5635,0.0,4.9872,0.0,5.7789,5.9921,5.838,5.909,0.0,0.0,5.7906,5.8515,6.0588,6.212,6.3439,6.4522,6.5943,6.7218,6.8166,6.8425,6.8899,6.9778,6.8121,6.6531,6.5876,6.6958,6.7861,6.7793,6.8222,6.8538,6.8527,6.8561,6.8561,6.8571,6.8538,6.8561,6.8527,6.8436,6.8436,6.8741,6.8707,6.8741,6.9102,6.9079,6.891,6.8199,6.8166,6.8335,6.8527,6.8707,6.9214,6.5384,6.5729,6.5884,6.5646,6.5205,6.5666,6.6013,6.6269,6.6481,6.6609,6.6609,6.6599,6.6812,6.7297,6.8413,6.8921,6.8988,7.006,7.0567,7.0601,7.0917,7.1289,7.1661,7.1661,7.2101,7.2879,7.2868,7.3112,7.3447,7.382,7.3775,7.3356,7.4091,7.3488,7.1639,7.2056,7.236,7.2541,7.3105,7.3567,7.395,7.3578,7.2428,7.05,7.0612,6.9722,6.7793,6.8267,6.758,6.5483,6.5043,6.414,6.253,5.838,5.6012,0.0,0.0,0.0,0.0,0.0,0.0,0.0,0.0,0.0,0.0,0.0,5.3484,0.0,6.0225,0.0,6.0206,6.139,6.2067,6.1559,6.21,6.3081,6.4691,6.617,6.7364,6.8098,6.9214,7.0195,7.0951,7.1075,7.1345,7.2203,7.0827,6.9383,6.8538,6.9462,7.0274,6.9992,7.0286,7.0297,6.9733,6.9857,6.9846,6.9316,6.9654,6.9891,6.9248,6.9383,6.9688,6.9992,6.9823,6.9958,7.0815,7.077,7.0669,7.0973,7.1041,7.0804,7.0229,7.059,7.1345,6.6548,6.6536,6.672,6.7004,6.746,6.8408,6.8583,6.8238,6.8706,6.8983,6.9106,6.9239,6.933,6.9443,7.013,7.049,7.0613,7.1864,7.2472,7.2563,7.3218,7.3476,7.3484,7.3484,7.3493,7.3467,7.3455,7.3414,7.3405,7.4097,7.432,7.4231,7.4881,7.4769,7.3882,7.3527,7.2764,7.1639,7.3397,7.4277,7.4175,7.4074,7.209,6.8233,7.0015,6.9271,6.5459,6.7015,6.6802,6.4231,6.3362,6.2661,6.2009,6.0206,5.8616,0.0,5.5716,0.0,0.0,0.0,0.0,0.0,0.0,0.0,0.0,5.7264,5.8161,5.8703,6.1999,6.3555,6.2405,6.3453,6.4502,6.5256,6.6474,6.7546,6.8402,6.9665,7.077,7.1503,7.2157,7.2812,7.3285,7.3488,7.3454,7.3387,7.3387,7.28,7.1909,7.2496,7.2981,7.2642,7.2529,7.1988,7.1086,7.121,7.1176,7.0161,7.0759,7.1109,7.0037,7.0308,7.0883,7.1368,7.112,7.1323,7.3195,7.2913,7.2744,7.315,7.3353,7.3037,7.2022,7.2439,7.3488,6.8981,6.8903,7.0061,7.0494,7.0444,7.1286,7.0094,6.7682,6.7774,6.8255,6.9072,7.0107,7.0677,7.0876,7.1575,7.2006,7.2252,7.2532,7.289,7.3285,7.3421,7.3465,7.3417,7.3426,7.3338,7.3254,7.3262,7.3251,7.3229,7.3383,7.3153,7.2552,7.2704,7.1787,7.0082,0.0,0.0,0.0,7.2902,7.2529,7.1943,7.1345,7.0037,6.803,6.953,0.0,6.8368,6.8639,6.8335,6.7151,6.6362,0.0,0.0,0.0,0.0,0.0,0.0,0.0,0.0,0.0,0.0,0.0,5.9708,5.9361,5.9361,6.2188,6.3845,6.3463,6.5628,6.7242,6.758,6.7861,6.8335,6.9056,6.9394,7.006,7.1345,7.1819,7.227,7.3015,7.3218,7.3353,7.3522,7.3488,7.3522,7.359,7.4018,7.4018,7.3218,7.3353,7.3454,7.3274,7.3285,7.3218,7.2913,7.2947,7.2845,7.2744,7.2845,7.2913,7.2609,7.2609,7.2845,7.3048,7.2981,7.2913,7.3466,7.3387,7.3353,7.3488,7.3984,7.4119,7.3285,7.3285,7.3646,6.8915,0.0,7.0007,7.0493,0.0,7.1226,7.0212,6.8349,6.9544,7.0028,6.9988,7.0473,7.0751,7.0902,7.1638,7.2428,7.327,7.335,7.3833,7.4524,7.3917,7.372,7.3927,7.3483,7.3277,7.3194,7.3227,7.3018,7.2663,7.3018,7.2822,7.2071,7.2417,7.2087,7.1047,7.2132,7.317,7.404,7.3272,7.3104,7.3454,7.3105,7.1661,6.9214,0.0,0.0,0.0,0.0,0.0,0.0,0.0,0.0,0.0,0.0,0.0,6.3893,6.1873,6.095,6.1661,6.14,6.2154,6.4377,6.5584,6.5415,6.3555,6.5865,6.7523,6.7884,6.8605,6.9485,7.0601,7.0737,7.0872,7.1244,7.1582,7.2169,7.2812,7.3274,7.3634,7.3984,7.4368,7.4559,7.4605,7.4605,7.4571,7.4605,7.4897,7.4987,7.4661,7.4559,7.4503,7.4119,7.4018,7.3894,7.3601,7.3488,7.3522,7.3488,7.3488,7.3488,7.3488,7.3488,7.359,7.3916,7.3759,7.3703,7.4402,7.43,7.4153,7.4503,7.4864,7.5033,7.4627,7.4571,7.4672,6.8346,6.9215,6.9431,7.0051,7.0902,7.0746,7.0163,6.9399,0.0,0.0,0.0,7.0448,7.0397,7.048,7.1089,7.2025,7.3223,7.3394,7.4001,7.4859,7.381,7.3452,7.3663,7.2979,7.2657,7.2604,7.2498,7.2302,7.1958,7.2412,7.2464,7.2219,7.2558,7.2853,7.2979,7.2861,7.3304,7.4272,7.3451,7.3617,7.4862,7.4767,7.3202,7.006,7.201,7.1627,6.8662,6.9722,6.9519,6.7715,6.6789,6.6016,6.5418,6.5252,6.5701,6.6858,6.657,6.6586,6.7174,6.6789,6.7127,6.8605,7.0534,7.059,6.7986,6.9079,7.0398,7.1605,7.112,7.1289,7.2473,7.2609,7.2665,7.2766,7.3353,7.3725,7.3894,7.4424,7.4784,7.4852,7.5303,7.5676,7.5608,7.5608,7.5676,7.5676,7.5608,7.5676,7.5676,7.5574,7.5371,7.4886,7.4796,7.4593,7.4097,7.3962,7.3894,7.3996,7.3962,7.3894,7.3894,7.3894,7.4119,7.4695,7.4266,7.4503,7.5371,7.5168,7.5021,7.5574,7.5676,7.5676,7.5676,7.5676,7.5642,6.9169,7.0123,7.1151,7.2099,7.2809,7.2086,7.126,7.0317,6.9414,6.9128,6.9371,6.9777,7.0058,7.0231,7.034,7.0622,7.1036,7.1063,7.1424,0.0,7.1826,7.1365,7.0717,7.0596,7.0445,7.024,6.9787,7.0314,7.1579,7.0849,7.1116,7.238,7.1681,7.1488,7.206,7.1488,7.1901,7.3339,7.2145,7.1652,7.1909,7.1188,7.0327,6.9385,7.0775,7.1355,7.0861,7.1019,7.0996,7.0647,6.9339,6.8525,6.8382,6.7786,6.7514,6.7758,6.8291,6.8673,6.8808,6.9248,7.0206,7.1661,7.2676,7.2744,7.1751,7.2394,7.2992,7.3184,7.3048,7.3116,7.3353,7.3375,7.3577,7.4175,7.4378,7.4683,7.5236,7.5405,7.5473,7.5473,7.5608,7.5676,7.5676,7.5676,7.5676,7.5676,7.5676,7.5676,7.5676,7.5676,7.5676,7.5574,7.554,7.5506,7.5248,7.5371,7.5236,7.5371,7.527,7.5202,7.5202,7.5202,7.527,7.5473,7.5303,7.5405,7.5676,7.5642,7.554,7.5676,7.5686,7.5628,7.5616,7.5604,7.5616,6.8371,6.9251,6.9827,7.0547,7.1283,7.0438,6.9813,6.9288,6.8165,6.8143,6.8894,6.9071,6.9157,6.9205,6.9236,6.9724,7.0585,7.0248,7.0582,7.1324,7.0623,7.0188,7.0106,7.0041,6.994,6.9856,6.9931,7.0374,7.1143,7.0653,7.0837,7.1652,7.109,7.0813,7.0854,7.084,7.1214,7.2031,7.1779,7.1854,7.2313,7.1928,7.1606,7.1329,7.2423,7.278,7.235,7.2405,7.2207,7.1742,7.0709,7.0111,7.0075,7.019,7.029,7.0321,7.1039,7.1481,7.1492,7.1398,7.1804,7.2856,7.3225,7.3472,7.3539,7.3526,7.3646,7.4052,7.4086,7.4266,7.4615,7.4306,7.4344,7.5133,7.4811,7.4861,7.5524,7.5676,7.5676,7.5676,7.5676,7.5676,7.5676,7.5676,7.5676,7.5676,7.5676,7.5709,7.5664,7.5709,7.5709,7.5676,7.5676,7.5676,7.5676,7.5676,7.5676,7.5676,7.5676,7.5676,7.5676,7.5676,7.5676,7.5676,7.5664,7.5676,7.5652,7.5676,7.5676,7.5652,7.5412,7.5291,7.5243,7.5061,7.5036,6.7548,6.8372,6.8386,6.88,6.9338,6.8697,6.8282,6.8029,6.7305,6.7608,6.8495,6.8239,6.8089,6.8074,6.8104,6.871,6.9638,6.9447,6.9768,7.0479,6.9666,6.9466,6.9817,6.9755,6.976,6.9912,7.0266,7.0633,7.0969,7.0786,7.071,7.0847,7.0954,7.0737,7.0136,7.0581,7.087,7.1052,7.1481,7.2211,7.3129,7.3012,7.3031,7.322,7.3645,7.3683,7.3226,7.3315,7.3035,7.2394,7.1649,7.1168,7.104,7.166,7.1918,7.1832,7.2488,7.303,7.3128,7.2601,7.258,7.3289,7.3355,7.36,7.4061,7.3767,7.3656,7.4193,7.4188,7.4447,7.4811,7.4505,7.446,7.5003,7.4597,7.4402,7.5024,7.5124,7.5158,7.5158,7.5303,7.54,7.5448,7.558,7.5626,7.5424,7.5691,7.5876,7.5564,7.5667,7.5946,7.5743,7.5676,7.5676,7.5676,7.5676,7.5676,7.5676,7.5676,7.5676,7.5676,7.5676,7.5544,7.546,7.5436,7.5328,7.5267,7.5039,7.4996,7.4983,7.4635,7.4332,7.4474,7.4218,7.4217,6.7578,6.8312,6.8403,6.8431,6.8521,6.8432,6.7924,6.7258,6.7045,6.739,6.804,6.7407,6.7212,6.7137,6.7197,6.735,6.7577,6.7936,6.8269,6.8498,6.8837,6.9061,6.9143,6.9121,6.937,6.9805,6.9506,7.0228,7.1537,7.0634,7.038,7.0916,7.1491,7.1399,7.0769,7.0752,7.0796,7.0825,7.0888,7.166,7.3031,7.2491,7.2451,7.3168,7.2557,7.2544,7.3025,7.3206,7.3173,7.3063,7.2298,7.1642,7.1082,7.1088,7.0787,7.0177,7.0857,7.1504,7.2133,7.2155,7.2399,7.3133,7.3127,7.3173,7.3297,7.3244,7.3217,7.3315,7.3315,7.3443,7.3414,7.3395,7.346,7.3654,7.3519,7.3349,7.3589,7.3426,7.3459,7.3426,7.4363,7.4609,7.4813,7.5277,7.5414,7.4905,7.5765,7.6142,7.5328,7.5925,7.6483,7.599,7.5743,7.5743,7.5743,7.5676,7.5676,7.5676,7.5652,7.5684,7.5693,7.5609,7.5506,7.5084,7.4776,7.4672,7.409,7.3478,7.3371,7.3908,7.3541,7.2879,7.3302,7.3384,7.3574,6.8054,6.8695,6.8333,6.8152,6.8152,6.8182,6.8163,6.8181,6.8166,6.8345,6.8541,6.8286,6.8166,6.8181,6.8181,6.8196,6.8196,6.8481,6.86,6.863,6.8884,6.9004,6.9034,6.9439,6.9731,6.9967,7.0059,7.0503,7.1081,7.0757,7.0675,7.0886,7.1205,7.0983,7.0393,7.0675,7.0678,7.0282,7.0288,7.0571,7.1118,7.0912,7.0676,7.0673,7.0812,7.0951,7.1214,7.1666,7.172,7.1241,7.0886,7.0442,6.9804,7.0567,7.0907,7.067,7.1662,7.2196,7.205,7.17,7.1775,7.2419,7.1783,7.1642,7.2398,7.2165,7.1989,7.2156,7.2744,7.3227,7.3168,7.2981,7.3013,7.342,7.3504,7.3582,7.4107,7.4293,7.4431,7.4471,7.4734,7.4969,7.4995,7.5273,7.5338,7.5054,7.5649,7.5783,7.5716,7.6316,7.6758,7.7021,7.7075,7.6623,7.598,7.5676,7.5709,7.5626,7.5279,7.5094,7.579,7.4883,7.4324,7.4765,7.4334,7.3937,7.359,7.3336,7.3173,7.3246,7.2972,7.2506,7.2403,7.2347,7.2477,6.8571,6.8884,6.8481,6.8271,6.8287,6.8271,6.8541,6.8974,6.9004,6.9093,6.9273,6.9273,6.9363,6.9453,6.9183,6.9004,6.9004,6.9183,6.9273,6.9303,6.9423,6.9512,6.9572,7.0007,7.0247,7.0366,7.0875,7.1278,7.1398,7.1218,7.1188,7.1158,7.1009,7.0679,7.0339,7.0696,7.0661,7.024,7.016,7.0097,6.9975,6.9871,6.9538,6.9008,6.9451,6.9696,6.9571,7.0155,7.0212,6.9586,6.9559,6.9371,6.8992,6.9913,7.0508,7.0578,7.1447,7.1855,7.1397,7.102,7.1045,7.1523,7.0759,7.0731,7.1512,7.1428,7.1328,7.1638,7.2398,7.2919,7.2797,7.2659,7.2776,7.3293,7.3372,7.3642,7.4121,7.4502,7.4511,7.4644,7.4651,7.506,7.5235,7.5276,7.523,7.4981,7.5325,7.5479,7.5958,7.6181,7.6729,7.717,7.7053,7.6814,7.634,7.6454,7.6306,7.5909,7.5543,7.52,7.5797,7.4299,7.3169,7.3646,7.3297,7.2924,7.2537,7.2561,7.2514,7.2378,7.2243,7.1983,7.1628,7.1505,7.1505,6.8974,6.9004,6.8974,6.899,6.8944,6.8974,6.9004,6.9123,6.9064,6.9379,6.9917,6.9947,7.026,7.0633,6.9616,6.9064,6.9123,6.9692,6.9977,7.0067,7.053,7.0799,7.0829,7.0859,7.0889,7.0919,7.1564,7.2116,7.2638,7.2146,7.1863,7.1803,7.1248,7.0903,7.0799,7.0864,7.0878,7.0797,7.0737,7.0542,7.007,6.9922,6.9549,6.8988,6.8964,6.8964,6.8948,6.8961,6.8992,6.8933,6.8948,6.8919,6.8889,6.8977,6.908,6.9078,6.9167,6.9458,6.994,7.0049,7.0288,7.076,7.0723,7.0902,7.1344,7.1285,7.1482,7.2138,7.2236,7.2246,7.2136,7.2282,7.2388,7.2473,7.2725,7.2949,7.3004,7.3347,7.2955,7.322,7.3926,7.4531,7.5163,7.5288,7.4842,7.46,7.5343,7.578,7.49,7.5521,7.5962,7.5656,7.5346,7.5276,7.7225,7.6805,7.6843,7.6373,7.5206,7.5266,7.4716,7.4038,7.3204,7.2642,7.2497,7.2133,7.149,7.1104,7.0893,7.0904,7.1293,7.1169,7.1167,7.1004,7.1024,6.9602,6.9586,6.9602,6.9648,6.9632,6.9648,6.9842,7.0201,7.0231,7.035,7.053,7.056,7.0679,7.0873,7.0905,7.062,7.026,7.047,7.0815,7.1204,7.1444,7.1564,7.1577,7.195,7.1936,7.1667,7.2206,7.2684,7.2847,7.2654,7.2325,7.1953,7.1683,7.1338,7.0979,7.0903,7.0903,7.0861,7.0547,7.0201,6.9979,6.957,6.9204,6.8968,6.853,6.8304,6.8268,6.8253,6.8253,6.8253,6.8253,6.8074,6.7774,6.8044,6.846,6.8876,6.9304,6.9654,6.9819,6.9881,7.0174,7.0672,7.0068,7.0112,7.0724,7.0694,7.0817,7.152,7.1735,7.1752,7.1998,7.2195,7.2368,7.2414,7.2877,7.3303,7.377,7.4006,7.4153,7.4197,7.446,7.4589,7.4389,7.4409,7.4102,7.3545,7.3836,7.4114,7.4295,7.4696,7.5039,7.538,7.5312,7.5411,7.6126,7.544,7.4802,7.4504,7.3983,7.4026,7.3678,7.2776,7.1886,7.2455,7.2258,7.1829,7.1391,7.1585,7.105,7.088,7.1158,7.1308,7.0995,7.1218,7.1082,7.026,7.0244,7.026,7.0426,7.0606,7.0606,7.0965,7.1517,7.1547,7.1531,7.1531,7.1547,7.1531,7.1607,7.2026,7.1996,7.1577,7.1531,7.1787,7.2192,7.2206,7.2235,7.2265,7.2475,7.2475,7.2372,7.2894,7.3313,7.3492,7.3343,7.2984,7.2581,7.2162,7.1683,7.1278,7.1009,7.0903,7.0829,7.047,7.0306,7.0247,6.9842,6.9512,6.9289,6.887,6.8518,6.8273,6.8046,6.8046,6.8212,6.8258,6.8059,6.7751,6.8043,6.844,6.891,6.9366,6.9717,6.9869,6.9913,7.0199,7.0755,7.0146,7.0062,7.0876,7.0612,7.0961,7.17,7.1825,7.1929,7.2457,7.2608,7.2506,7.2506,7.2907,7.3385,7.3829,7.4087,7.4161,7.41,7.4083,7.398,7.3692,7.3599,7.3369,7.2937,7.2906,7.3185,7.3628,7.381,7.3962,7.4559,7.4346,7.4134,7.422,7.344,7.3955,7.384,7.3443,7.3267,7.2938,7.1873,7.1564,7.2101,7.2181,7.1735,7.1697,7.1966,7.1876,7.1577,7.1816,7.2086,7.1846,7.1667,7.1607,7.0919,7.0949,7.0919,7.1308,7.1803,7.1833,7.2235,7.2698,7.2774,7.2684,7.2608,7.2787,7.2684,7.2817,7.2817,7.2877,7.2817,7.2864,7.2894,7.2907,7.2907,7.2877,7.2877,7.2505,7.2595,7.2997,7.3612,7.421,7.4693,7.418,7.3851,7.3599,7.2611,7.2072,7.1923,7.1338,7.0979,7.0949,7.0889,7.0829,7.0873,7.0769,7.05,7.0067,6.9887,6.9574,6.9051,6.8408,6.8335,6.8857,6.8917,6.899,6.884,6.8887,6.8977,6.8981,6.9053,6.9335,6.9833,6.9984,7.0344,7.0754,7.0854,7.0871,7.1269,7.1347,7.1811,7.276,7.2721,7.2718,7.3385,7.3189,7.2774,7.2527,7.2903,7.3121,7.3138,7.3014,7.2999,7.32,7.3339,7.2999,7.2968,7.3137,7.3104,7.2979,7.2917,7.2917,7.3073,7.3135,7.2998,7.2951,7.3042,7.3118,7.2288,7.1599,7.2845,7.3719,7.3291,7.2984,7.281,7.2097,7.1987,7.2414,7.2625,7.2249,7.2309,7.2565,7.2668,7.2548,7.2804,7.2774,7.2505,7.2295,7.2235,7.1846,7.2249,7.2279,7.2368,7.2595,7.2595,7.2744,7.2877,7.2924,7.2924,7.2924,7.2924,7.2924,7.3043,7.3373,7.3582,7.3642,7.4048,7.4048,7.3642,7.3582,7.3582,7.3612,7.3838,7.4078,7.4287,7.4467,7.4676,7.4826,7.4676,7.4377,7.3851,7.3509,7.3013,7.2565,7.1936,7.1593,7.1517,7.1128,7.0903,7.0903,7.0903,7.0799,7.0636,7.0247,7.0067,7.0214,6.9273,6.884,6.9034,6.9004,6.9004,6.9004,6.9004,6.9004,6.9064,6.9453,6.9726,6.9991,7.0375,7.067,7.0875,7.0896,7.1193,7.1664,7.1757,7.2155,7.297,7.2863,7.2948,7.3093,7.3043,7.3052,7.3424,7.3524,7.3704,7.3962,7.415,7.4275,7.4275,7.4275,7.4085,7.3701,7.3526,7.332,7.2978,7.2897,7.2927,7.2925,7.2902,7.292,7.2841,7.2641,7.2497,7.2264,7.2065,7.2623,7.3266,7.2999,7.2872,7.266,7.274,7.2637,7.2774,7.2954,7.3057,7.3086,7.3176,7.3326,7.3326,7.3343,7.3193,7.2984,7.2924,7.2954,7.2535,7.2894,7.2924,7.3073,7.3253,7.3283,7.3432,7.3612,7.3625,7.3642,7.3642,7.3672,7.3642,7.3732,7.4091,7.4257,7.4317,7.4736,7.4676,7.43,7.4287,7.4287,7.4317,7.4693,7.4736,7.4616,7.4766,7.4886,7.4886,7.4886,7.4676,7.4317,7.4031,7.3702,7.3253,7.2624,7.2192,7.1893,7.1504,7.1158,7.0949,7.0903,7.0903,7.0859,7.053,7.0576,7.0829,7.0111,6.9692,6.9722,6.9692,6.9722,6.9692,6.9722,6.9722,6.9782,7.0051,7.0336,7.0396,7.0666,7.0903,7.0919,7.1128,7.1444,7.1863,7.2072,7.2565,7.3133,7.303,7.3086,7.3539,7.3373,7.359,7.4198,7.3751,7.3768,7.4099,7.4148,7.4101,7.4022,7.4038,7.392,7.3641,7.3524,7.3392,7.299,7.2924,7.2924,7.2924,7.2897,7.2954,7.2954,7.2841,7.2784,7.2807,7.2731,7.2641,7.2723,7.2685,7.2704,7.2643,7.312,7.3283,7.3672,7.3941,7.3971,7.4031,7.4091,7.418,7.4078,7.3911,7.3971,7.3911,7.3868,7.3838,7.2967,7.3013,7.3043,7.3432,7.3911,7.3941,7.424,7.4766,7.4796,7.4766,7.4796,7.4706,7.4783,7.4826,7.4766,7.4826,7.4946,7.5006,7.5035,7.4976,7.4946,7.4916,7.4826,7.4856,7.4646,7.427,7.4646,7.4886,7.4886,7.4886,7.4886,7.4766,7.4287,7.3988,7.3838,7.3283,7.2684,7.2282,7.1983,7.1564,7.1022,7.0903,7.0903,7.0903,7.0859,7.0859,7.0843,7.0859,7.0889,7.0889,7.0723,7.0709,7.0859,7.0919,7.0889,7.0769,7.0889,7.0979,7.0949,7.1038,7.1112,7.1232,7.1667,7.1983,7.2222,7.2684,7.3253,7.3821,7.3492,7.3582,7.4407,7.4317,7.4291,7.4604,7.3986,7.3433,7.3107,7.3233,7.3487,7.336,7.309,7.309,7.3293,7.3293,7.3243,7.321,7.3223,7.3283,7.3283,7.3373,7.3133,7.3193,7.3402,7.3462,7.3612,7.3253,7.3223,7.3449,7.327,7.3103,7.3193,7.3642,7.3971,7.4407,7.4616,7.4736,7.4766,7.4676,7.4676,7.4587,7.4616,7.4856,7.4766,7.4557,7.4407,7.3911,7.4347,7.436,7.4467,7.4616,7.4646,7.4706,7.4886,7.4886,7.4916,7.4916,7.4886,7.4946,7.4916,7.4946,7.5155,7.5527,7.5617,7.5647,7.5617,7.5664,7.5335,7.4976,7.4886,7.4826,7.4676,7.4766,7.4886,7.4886,7.4886,7.4886,7.4886,7.4706,7.4587,7.4527,7.3941,7.3582,7.3223,7.2342,7.1863,7.1607,7.1158,7.0903,7.0903,7.0932,7.0932,7.0979,7.1368,7.1368,7.0949,7.0903,7.0903,7.0992,7.1368,7.1457,7.1158,7.1414,7.1653,7.1637,7.1623,7.1846,7.2309,7.2505,7.2834,7.3343,7.3522,7.3971,7.442,7.4467,7.4467,7.4796,7.4736,7.4736,7.4796,7.4467,7.4257,7.4287,7.436,7.4377,7.4377,7.4317,7.4287,7.4257,7.4257,7.4257,7.424,7.424,7.421,7.4091,7.4138,7.4031,7.4287,7.4467,7.4437,7.4317,7.3911,7.3851,7.4287,7.4197,7.3928,7.4108,7.4437,7.4616,7.4843,7.4766,7.4826,7.4856,7.4826,7.4886,7.4886,7.4886,7.4886,7.4886,7.4766,7.4736,7.4557,7.4886,7.4886,7.4886,7.4886,7.4886,7.4886,7.4886,7.4886,7.5065,7.5275,7.5335,7.5437,7.5694,7.5707,7.5899,7.6228,7.6018,7.5886,7.5826,7.5557,7.5245,7.5006,7.5125,7.5185,7.4916,7.4886,7.4886,7.4886,7.4886,7.4886,7.4886,7.4886,7.4886,7.4873,7.4557,7.4168,7.3821,7.3073,7.2641,7.2295,7.195,7.18,7.174,7.174,7.171,7.1816,7.2116,7.2116,7.1846,7.1757,7.1757,7.177,7.2086,7.2146,7.1787,7.2146,7.2325,7.2325,7.2325,7.2505,7.2864,7.3086,7.3492,7.3851,7.4121,7.4557,7.4796,7.4886,7.4886,7.4886,7.4886,7.4886,7.4886,7.4886,7.4886,7.4886,7.4826,7.4886,7.4886,7.4886,7.4886,7.4886,7.4886,7.4886,7.4856,7.4766,7.4766,7.4796,7.4886,7.4886,7.4886,7.4886,7.4766,7.4676,7.4377,7.421,7.4646,7.4676,7.4467,7.4587,7.4886,7.4886,7.4886,7.4886,7.4886,7.4886,7.4886,7.4886,7.4886,7.4886,7.4886,7.4886,7.4886,7.4886,7.4886,7.4886,7.4886,7.4886,7.4886,7.4886,7.4976,7.5006,7.4946,7.5318,7.5856,7.5946,7.6108,7.6796,7.6557,7.6766,7.6736,7.6437,7.6168,7.5976,7.5617,7.5258,7.5185,7.5557,7.5455,7.5006,7.4946,7.4946,7.4946,7.4886,7.4886,7.4886,7.4886,7.4886,7.4886,7.4856,7.4557,7.4151,7.3821,7.3432,7.3043,7.2787,7.2638,7.2638,7.2638,7.2757,7.2894,7.3013,7.3013,7.3116,7.3013,7.2757,7.2817,7.2907,7.2907,7.2847,7.2877,7.2997,7.2997,7.3013,7.3086,7.3296,7.3762,7.3971,7.4151,7.4527,7.4826,7.4886,7.4886,7.4886,7.4886,7.4886,7.4886,7.4886,7.4886,7.4886,7.4886,7.4886,7.4886,7.4886,7.4886,7.4886,7.4886,7.4886,7.4886,7.4886,7.4886,7.4886,7.4886,7.4886,7.4886,7.4886,7.4886,7.4886,7.4856,7.4826,7.4766,7.4856,7.4826,7.4736,7.4736,7.4886,7.4886,7.4886,7.4886,7.4886,7.4886,7.4886,7.4886,7.4886,7.4886,7.4886,7.4886,7.4886,7.4886,7.4886,7.4886,7.4886,7.4886,7.4886,7.4916,7.5215,7.5617,7.5125,7.5617,7.6317,7.6138,7.6317,7.6856,7.6946,7.6826,7.6976,7.7125,7.7125,7.6617,7.6527,7.6078,7.5796,7.5916,7.5544,7.5215,7.5467,7.5377,7.5065,7.4976,7.4886,7.4886,7.4886,7.4886,7.4886,7.4886,7.4873,7.4616,7.418,7.3881,7.3672,7.3236,7.3043,7.3043,7.3013,7.3253,7.3612,7.3672,7.3941,7.4091,7.3569,7.3073,7.3116,7.3445,7.3492,7.3253,7.3462,7.3672,7.3702,7.3732,7.3911,7.4317,7.4437,7.4676,7.4676,7.4796,7.4916,7.4886,7.4886,7.5006,7.4976,7.4916,7.4916,7.4916,7.4946,7.4946,7.4916,7.4886,7.4886,7.4886,7.4886,7.4886,7.4886,7.4886,7.4886,7.4886,7.4886,7.4886,7.4886,7.4886,7.4886,7.4886,7.4886,7.4886,7.4886,7.4886,7.4886,7.4886,7.4886,7.4886,7.4886,7.4886,7.4886,7.4886,7.4886,7.4886,7.4886,7.4886,7.4886,7.4886,7.4886,7.4886,7.4886,7.4886,7.4886,7.5245,7.5766,7.5467,7.5365,7.5407,7.5647,7.5826,7.5886,7.5856,7.6335,7.7053,7.6904,7.7173,7.7741,7.7741,7.7753,7.7694,7.7694,7.7424,7.6826,7.6527,7.6347,7.6407,7.6317,7.6078,7.5886,7.6155,7.5946,7.5527,7.5335,7.5245,7.4916,7.4886,7.4886,7.4886,7.4886,7.4886,7.4826,7.4587,7.4377,7.4287,7.4031,7.3821,7.3821,7.3851,7.4048,7.4347,7.436,7.4557,7.4616,7.4227,7.3821,7.3851,7.4151,7.4121,7.4018,7.4108,7.4377,7.4377,7.4377,7.4497,7.4856,7.4886,7.4886,7.5006,7.5155,7.5365,7.5437,7.5587,7.5707,7.5425,7.5395,7.5275,7.5006,7.5185,7.5347,7.5335,7.5095,7.4886,7.4886,7.4886,7.4886,7.4886,7.4886,7.4886,7.4886,7.4886,7.4886,7.4886,7.4886,7.4886,7.4886,7.4886,7.4886,7.4886,7.4886,7.4886,7.4886,7.4886,7.4886,7.4886,7.4886,7.4886,7.4886,7.4886,7.4886,7.4886,7.4886,7.4886,7.4886,7.4886,7.4886,7.4886,7.4886,7.4886,7.5809,7.6749,7.6258,7.6018,7.6125,7.6557,7.6467,7.6168,7.6587,7.7035,7.7694,7.7783,7.7981,7.8609,7.8717,7.8759,7.8549,7.7891,7.7245,7.7065,7.6694,7.6706,7.6916,7.7095,7.7185,7.7095,7.7006,7.6587,7.6036,7.5856,7.5437,7.5006,7.4886,7.4886,7.4886,7.4886,7.4886,7.4856,7.4826,7.4796,7.4826,7.4766,7.4736,7.4706,7.4706,7.4706,7.4766,7.4796,7.4856,7.4886,7.4886,7.4886,7.4886,7.4886,7.4886,7.4856,7.4796,7.4766,7.4826,7.4916,7.5035,7.4946,7.5035,7.5065,7.5215,7.5527,7.5826,7.6125,7.6317,7.6437,7.6108,7.6018,7.5707,7.5347,7.5587,7.5779,7.5677,7.5305,7.5185,7.5095,7.5006,7.4886,7.4886,7.4886,7.4886,7.4886,7.4916,7.4916,7.4916,7.4886,7.4886,7.4886,7.4886,7.4886,7.4886,7.5006,7.4976,7.5155,7.5095,7.5065,7.5035,7.4916,7.4946,7.4886,7.4886,7.4886,7.4886,7.4886,7.4886,7.4886,7.4886,7.4886,7.4886,7.4886,7.4886,7.6599,7.6796,7.6689,7.6647,7.6676,7.6796,7.6779,7.6676,7.6826,7.7185,7.7801,7.7813,7.822,7.8669,7.8789,7.8789,7.8549,7.7831,7.7394,7.7562,7.7412,7.7502,7.7634,7.7903,7.825,7.831,7.7921,7.7065,7.6228,7.5856,7.5647,7.5065,7.4886,7.4886,7.4886,7.4886,7.4886,7.4886,7.4886,7.4886,7.4886,7.4886,7.4886,7.4886,7.4886,7.4886,7.4886,7.4886,7.4886,7.4886,7.4886,7.4916,7.4916,7.4916,7.4946,7.4886,7.4886,7.4886,7.4946,7.5407,7.5365,7.5185,7.5425,7.5707,7.5766,7.5916,7.6317,7.6647,7.6826,7.6808,7.6659,7.6676,7.6347,7.6006,7.5796,7.5826,7.5514,7.5544,7.5766,7.5826,7.5425,7.5035,7.5215,7.5275,7.5245,7.5155,7.5035,7.5065,7.5125,7.5006,7.4886,7.4886,7.4886,7.4886,7.4886,7.5035,7.5185,7.5497,7.5527,7.5437,7.5365,7.5095,7.5006,7.5275,7.5095,7.4886,7.4886,7.4916,7.4886,7.4886,7.4886,7.4916,7.4886,7.4886,7.4886,7.7215,7.7783,7.7454,7.7335,7.7394,7.7711,7.7634,7.7412,7.7664,7.8011,7.825,7.834,7.8477,7.8747,7.8789,7.8789,7.8549,7.822,7.8041,7.828,7.8011,7.8041,7.816,7.837,7.8519,7.8609,7.84,7.7831,7.6933,7.6527,7.6036,7.5467,7.5125,7.4886,7.4886,7.4886,7.4886,7.4886,7.4886,7.4886,7.4916,7.4916,7.4916,7.4916,7.4916,7.4886,7.4886,7.4886,7.4886,7.4976,7.5245,7.5185,7.5125,7.5185,7.5258,7.5006,7.4916,7.4916,7.5006,7.5497,7.5707,7.5557,7.6006,7.6317,7.6467,7.6706,7.7095,7.7604,7.7783,7.7664,7.7365,7.7305,7.7006,7.6527,7.6347,7.6317,7.6335,7.6365,7.6514,7.6664,7.6395,7.6096,7.5946,7.5886,7.5707,7.5467,7.5245,7.5275,7.5395,7.5305,7.5185,7.5185,7.5275,7.5407,7.5437,7.5557,7.5754,7.6006,7.5988,7.5916,7.5886,7.5707,7.5796,7.6018,7.5677,7.5185,7.4946,7.4976,7.4916,7.4946,7.5006,7.5035,7.4946,7.4886,7.4946,7.7813,7.8777,7.822,7.8011,7.81,7.8549,7.84,7.8011,7.846,7.8639,7.8609,7.8717,7.8759,7.8789,7.8789,7.8789,7.8789,7.8729,7.8729,7.8639,7.831,7.834,7.8489,7.84,7.834,7.8729,7.8729,7.846,7.7711,7.7215,7.6617,7.5916,7.5288,7.4976,7.4946,7.4886,7.4886,7.4886,7.4886,7.4916,7.5065,7.5095,7.5185,7.5198,7.5155,7.5185,7.5425,7.5245,7.5288,7.5467,7.5736,7.5856,7.5497,7.5796,7.5826,7.5347,7.5185,7.5095,7.5305,7.5976,7.6395,7.6138,7.6647,7.6916,7.7155,7.7544,7.816,7.8669,7.8699,7.8519,7.8071,7.7843,7.7454,7.6976,7.6766,7.6838,7.6916,7.7006,7.7185,7.7275,7.7245,7.7006,7.6676,7.6407,7.6198,7.6168,7.5929,7.5916,7.6006,7.5796,7.5677,7.5677,7.5766,7.6006,7.6138,7.6317,7.6544,7.6844,7.6617,7.6377,7.6437,7.6467,7.6587,7.6557,7.6168,7.5677,7.5365,7.5305,7.5557,7.5647,7.5377,7.5258,7.5318,7.5275,7.5215,7.8657,7.8789,7.8699,7.8687,7.8669,7.8777,7.843,7.7981,7.8519,7.843,7.813,7.8519,7.8789,7.8789,7.8789,7.8789,7.8789,7.8789,7.8789,7.8777,7.8639,7.8609,7.8777,7.8759,7.8609,7.8789,7.8789,7.84,7.7981,7.7724,7.7065,7.6215,7.5916,7.5527,7.5185,7.5215,7.4886,7.4946,7.4976,7.5245,7.5677,7.5766,7.6036,7.6198,7.6078,7.5976,7.6245,7.6006,7.5976,7.6407,7.6587,7.6647,7.6617,7.6617,7.6676,7.6437,7.6138,7.5796,7.5946,7.6724,7.7155,7.6916,7.7305,7.7622,7.7831,7.819,7.8609,7.8729,7.8789,7.8759,7.8489,7.816,7.7562,7.7185,7.7006,7.6736,7.6647,7.7412,7.7604,7.7951,7.7921,7.7532,7.7125,7.6916,7.6736,7.6689,7.6689,7.6629,7.6557,7.6317,7.6198,7.6185,7.6395,7.6647,7.6874,7.7035,7.7305,7.7652,7.7245,7.6916,7.7125,7.7215,7.6946,7.6856,7.6557,7.6557,7.6574,7.6574,7.6587,7.6377,7.6096,7.5946,7.5856,7.5736,7.5617,7.8789,7.8789,7.8789,7.8789,7.8789,7.8789,7.8657,7.846,7.8687,7.8639,7.843,7.8657,7.8789,7.8789,7.8789,7.8789,7.8789,7.8789,7.8789,7.8789,7.8789,7.8789,7.8789,7.8789,7.8789,7.8789,7.8789,7.8729,7.831,7.7951,7.7394,7.7006,7.6587,7.6317,7.5856,7.5946,7.6006,7.6006,7.6036,7.6125,7.6317,7.642,7.6539,7.6779,7.6557,7.6617,7.6706,7.6599,7.6527,7.6868,7.7095,7.7155,7.7035,7.7095,7.7245,7.6779,7.6946,7.6796,7.6617,7.7335,7.7514,7.7664,7.7951,7.834,7.843,7.8597,7.8789,7.8789,7.8789,7.8789,7.8789,7.8549,7.831,7.7951,7.7424,7.7472,7.7293,7.7442,7.7891,7.825,7.8537,7.81,7.7741,7.7544,7.7484,7.7634,7.7394,7.7095,7.7006,7.6826,7.6736,7.6676,7.6976,7.7335,7.7592,7.7801,7.8041,7.822,7.7801,7.7622,7.7951,7.7981,7.7634,7.7724,7.7861,7.7891,7.7861,7.7394,7.6946,7.6856,7.6796,7.6647,7.6497,7.6377,7.6168,7.8789,7.8789,7.8789,7.8789,7.8789,7.8789,7.8807,7.8789,7.8789,7.8789,7.8789,7.8789,7.8789,7.8789,7.8789,7.8789,7.8789,7.8789,7.8789,7.8789,7.8789,7.8789,7.8789,7.8789,7.8789,7.8789,7.8789,7.8759,7.8609,7.831,7.8011,7.7783,7.7245,7.6916,7.6796,7.6676,7.6647,7.6647,7.6647,7.6796,7.7006,7.7035,7.7185,7.7245,7.7185,7.7125,7.7245,7.7095,7.7065,7.7484,7.7801,7.7861,7.7604,7.7813,7.7843,7.7604,7.7801,7.7801,7.7622,7.7861,7.8011,7.822,7.84,7.8699,7.8729,7.8789,7.8789,7.8789,7.8789,7.8789,7.8759,7.8639,7.834,7.813,7.7981,7.825,7.84,7.825,7.819,7.846,7.8687,7.8747,7.84,7.822,7.825,7.8489,7.822,7.7664,7.7514,7.7454,7.7484,7.7502,7.7682,7.8011,7.813,7.84,7.8699,7.8699,7.828,7.816,7.84,7.846,7.825,7.8489,7.8759,7.8639,7.831,7.7753,7.7305,7.7544,7.7682,7.7335,7.7155,7.7035,7.6766,7.8789,7.8789,7.8789,7.8789,7.8789,7.8789,7.8789,7.8789,7.8789,7.8735,7.8626,7.8789,7.8771,7.8735,7.8735,7.8789,7.8789,7.8789,7.8789,7.8789,7.8789,7.8789,7.8789,7.8789,7.8789,7.8789,7.8789,7.8789,7.8789,7.8669,7.828,7.7861,7.7801,7.7365,7.7155,7.7155,7.7125,7.7125,7.7095,7.7305,7.7574,7.7801,7.7981,7.831,7.81,7.8011,7.8567,7.8041,7.7921,7.837,7.8489,7.8579,7.837,7.846,7.84,7.843,7.843,7.846,7.843,7.843,7.8639,7.8717,7.8777,7.8789,7.8789,7.8789,7.8789,7.8789,7.8789,7.8789,7.8609,7.834,7.825,7.822,7.822,7.822,7.843,7.8627,7.8579,7.8729,7.8789,7.8789,7.8789,7.8549,7.846,7.8669,7.8699,7.819,7.828,7.828,7.84,7.846,7.8519,7.8639,7.8639,7.8789,7.8789,7.8789,7.8549,7.8549,7.8669,7.8669,7.8579,7.8669,7.8789,7.8789,7.8759,7.834,7.816,7.8489,7.8519,7.8071,7.7652,7.7394,7.7155,7.8789,7.8789,7.8789,7.8789,7.8789,7.8789,7.8789,7.8789,7.8789,7.8354,7.7795,7.8409,7.8391,7.807,7.8572,7.8789,7.8789,7.8789,7.8789,7.8789,7.8789,7.8789,7.8789,7.8789,7.8789,7.8789,7.8789,7.8789,7.8789,7.8789,7.8699,7.846,7.834,7.831,7.8071,7.7891,7.7921,7.7951,7.7981,7.819,7.828,7.84,7.8519,7.8699,7.8657,7.8519,7.8717,7.8549,7.8609,7.8747,7.8807,7.8789,7.8789,7.8789,7.8789,7.8789,7.8789,7.8789,7.8789,7.8789,7.8789,7.8789,7.8789,7.8789,7.8789,7.8789,7.8789,7.8789,7.8789,7.8789,7.8729,7.8579,7.8489,7.8448,7.837,7.834,7.843,7.8687,7.8777,7.8789,7.8789,7.8789,7.8789,7.8759,7.8759,7.8789,7.8789,7.8789,7.8789,7.8789,7.8789,7.8789,7.8789,7.8789,7.8789,7.8789,7.8789,7.8789,7.8789,7.8789,7.8789,7.8789,7.8729,7.8789,7.8789,7.8789,7.8789,7.8789,7.8789,7.8807,7.8777,7.8627,7.822,7.7801,7.7622,7.8789,7.8789,7.8789,7.8789,7.8789,7.8789,7.8789,7.8789,7.8789,7.8391,7.7612,7.8427,7.8391,7.796,7.8306,7.8789,7.8789,7.8789,7.8789,7.8789,7.8789,7.8789,7.8789,7.8789,7.8789,7.8789,7.8789,7.8789,7.8789,7.8789,7.8759,7.8729,7.8789,7.8729,7.8729,7.8789,7.8789,7.8789,7.8789,7.8789,7.8777,7.8777,7.8777,7.8789,7.8747,7.8747,7.8807,7.8699,7.8729,7.8777,7.8789,7.8789,7.8789,7.8789,7.8789,7.8789,7.8789,7.8789,7.8789,7.8789,7.8789,7.8789,7.8789,7.8789,7.8789,7.8789,7.8789,7.8789,7.8789,7.8789,7.8789,7.8699,7.8687,7.8609,7.8639,7.8609,7.8639,7.8777,7.8807,7.8789,7.8789,7.8789,7.8789,7.8789,7.8789,7.8789,7.8789,7.8789,7.8789,7.8789,7.8789,7.8789,7.8789,7.8789,7.8789,7.8789,7.8789,7.8789,7.8789,7.8789,7.8789,7.8789,7.8789,7.8789,7.8789,7.8789,7.8789,7.8789,7.8789,7.8789,7.8777,7.8777,7.8687,7.828,7.822,7.8789,7.8789,7.8789,7.8789,7.8789,7.8789,7.8789,7.8789,7.8789,7.8662,7.8427,7.8698,7.859,7.8445,7.8415,7.8662,7.859,7.8698,7.8789,7.8789,7.8789,7.8789,7.8789,7.8789,7.8789,7.8789,7.8789,7.8789,7.8789,7.8789,7.8789,7.8789,7.8789,7.8789,7.8789,7.8789,7.8789,7.8789,7.8789,7.8789,7.8789,7.8789,7.8789,7.8789,7.8789,7.8789,7.8789,7.8789,7.8789,7.8789,7.8789,7.8789,7.8789,7.8789,7.8789,7.8789,7.8789,7.8789,7.8789,7.8789,7.8789,7.8789,7.8789,7.8789,7.8789,7.8789,7.8789,7.8789,7.8789,7.8789,7.8789,7.8789,7.8789,7.8789,7.8789,7.8789,7.8789,7.8789,7.8789,7.8789,7.8789,7.8789,7.8789,7.8789,7.8789,7.8789,7.8789,7.8789,7.8789,7.8789,7.8789,7.8789,7.8789,7.8789,7.8789,7.8789,7.8789,7.8789,7.8789,7.8789,7.8789,7.8789,7.8789,7.8789,7.8789,7.8789,7.8789,7.8789,7.8789,7.8789,7.8789,7.8807,7.8777,7.8747,7.8597,7.8789,7.8789,7.8789,7.8789,7.8789,7.8789,7.8789,7.8789,7.8753,7.8343,7.7905,7.8361,7.7692,7.7232,7.7942,7.8288,7.785,7.8644,7.8789,7.8789,7.8789,7.8789,7.8789,7.8789,7.8789,7.8789,7.8789,7.8789,7.8789,7.8789,7.8789,7.8789,7.8789,7.8789,7.8789,7.8789,7.8789,7.8789,7.8789,7.8789,7.8789,7.8789,7.8789,7.8789,7.8789,7.8789,7.8789,7.8789,7.8789,7.8789,7.8789,7.8789,7.8789,7.8789,7.8789,7.8789,7.8789,7.8789,7.8789,7.8789,7.8789,7.8789,7.8789,7.8789,7.8789,7.8789,7.8789,7.8789,7.8789,7.8789,7.8789,7.8789,7.8789,7.8789,7.8789,7.8789,7.8789,7.8789,7.8789,7.8789,7.8789,7.8789,7.8789,7.8789,7.8789,7.8789,7.8789,7.8789,7.8789,7.8789,7.8789,7.8789,7.8789,7.8789,7.8789,7.8789,7.8789,7.8789,7.8789,7.8789,7.8789,7.8789,7.8789,7.8789,7.8789,7.8789,7.8789,7.8789,7.8789,7.8789,7.8789,7.8789,7.8807,7.8807,7.8747,7.8789,7.8789,7.8789,7.8536,7.827,7.8626,7.8789,7.8644,7.7997,7.7453,7.7649,7.7656,7.7047,7.6384,7.6768,7.7704,7.7058,7.774,7.8662,7.8698,7.8789,7.8789,7.8789,7.8789,7.8789,7.8789,7.8789,7.8789,7.8789,7.8789,7.8789,7.8789,7.8789,7.8789,7.8789,7.8789,7.8789,7.8789,7.8789,7.8789,7.8789,7.8789,7.8789,7.8789,7.8789,7.8789,7.8789,7.8789,7.8789,7.8789,7.8789,7.8789,7.8789,7.8789,7.8789,7.8789,7.8789,7.8789,7.8789,7.8789,7.8789,7.8789,7.8789,7.8789,7.8789,7.8789,7.8789,7.8789,7.8789,7.8789,7.8789,7.8789,7.8789,7.8789,7.8789,7.8789,7.8789,7.8789,7.8789,7.8789,7.8789,7.8789,7.8789,7.8789,7.8789,7.8789,7.8789,7.8789,7.8789,7.8789,7.8789,7.8789,7.8789,7.8789,7.8789,7.8789,7.8789,7.8789,7.8789,7.8789,7.8789,7.8789,7.8789,7.8789,7.8789,7.8789,7.8789,7.8789,7.8789,7.8789,7.8789,7.8789,7.8789,7.8789,7.8789,7.8789,7.8789,7.8753,7.8051,7.7335,7.7924,7.8397,7.847,7.6309,7.6656,7.8518,7.6177,7.5611,7.6319,7.5687,7.5762,7.6469,7.6749,7.7464,7.8197,7.827,7.8433,7.8608,7.8698,7.8771,7.8789,7.8789,7.8789,7.8789,7.8789,7.8789,7.8789,7.8789,7.8789,7.8789,7.8789,7.8789,7.8789,7.8789,7.8789,7.8789,7.8789,7.8789,7.8789,7.8789,7.8789,7.8789,7.8789,7.8789,7.8789,7.8789,7.8789,7.8789,7.8789,7.8789,7.8789,7.8789,7.8789,7.8789,7.8789,7.8789,7.8789,7.8789,7.8789,7.8789,7.8789,7.8789,7.8789,7.8789,7.8789,7.8789,7.8789,7.8789,7.8789,7.8789,7.8789,7.8789,7.8789,7.8789,7.8789,7.8789,7.8789,7.8789,7.8789,7.8789,7.8789,7.8789,7.8789,7.8789,7.8789,7.8789,7.8789,7.8789,7.8789,7.8789,7.8789,7.8789,7.8789,7.8789,7.8789,7.8789,7.8789,7.8789,7.8789,7.8789,7.8789,7.8789,7.8789,7.8789,7.8789,7.8789,7.8789,7.8789,7.8789,7.8789,7.8789,7.8717,7.7869,7.7287,7.6834,7.5497,7.5838,7.7243,7.6656,7.6991,7.7428,7.5819,7.4848,7.4386,7.4867,7.4752,7.4867,7.5173,7.5687,7.6403,7.7343,7.7483,7.7832,7.8343,7.8662,7.8789,7.8789,7.8789,7.8789,7.8789,7.8789,7.8789,7.8789,7.8789,7.8789,7.8789,7.8789,7.8789,7.8789,7.8789,7.8789,7.8789,7.8789,7.8789,7.8789,7.8789,7.8789,7.8789,7.8789,7.8789,7.8789,7.8789,7.8789,7.8789,7.8789,7.8789,7.8789,7.8789,7.8789,7.8789,7.8789,7.8789,7.8789,7.8789,7.8789,7.8789,7.8789,7.8789,7.8789,7.8789,7.8789,7.8789,7.8789,7.8789,7.8789,7.8789,7.8789,7.8789,7.8789,7.8789,7.8789,7.8789,7.8789,7.8789,7.8789,7.8789,7.8789,7.8789,7.8789,7.8789,7.8789,7.8789,7.8789,7.8789,7.8789,7.8789,7.8789,7.8789,7.8789,7.8789,7.8789,7.8789,7.8789,7.8789,7.8789,7.8789,7.8789,7.8789,7.8789,7.8789,7.8789,7.8789,7.8789,7.8789,7.8789,7.7277,7.7361,7.5856,7.5154,7.4752,7.3443,7.3892,7.5288,7.5039,7.524,7.597,7.4366,7.351,7.348,7.3558,7.3519,7.353,7.4095,7.4713,7.5611,7.6253,7.688,7.7446,7.8088,7.868,7.8789,7.8789,7.8789,7.8789,7.8789,7.8789,7.8789,7.8789,7.8789,7.8789,7.8789,7.8789,7.8789,7.8789,7.8789,7.8789,7.8789,7.8789,7.8789,7.8789,7.8789,7.8789,7.8789,7.8789,7.8789,7.8789,7.8789,7.8789,7.8789,7.8789,7.8789,7.8789,7.8789,7.8789,7.8789,7.8789,7.8789,7.8789,7.8789,7.8789,7.8789,7.8789,7.8789,7.8789,7.8789,7.8789,7.8789,7.8789,7.8789,7.8789,7.8789,7.8789,7.8789,7.8789,7.8789,7.8789,7.8789,7.8789,7.8789,7.8789,7.8789,7.8789,7.8789,7.8789,7.8789,7.8789,7.8789,7.8789,7.8789,7.8789,7.8789,7.8789,7.8789,7.8789,7.8789,7.8789,7.8789,7.8789,7.8789,7.8789,7.8789,7.8789,7.8789,7.8789,7.8789,7.8789,7.8789,7.8789,7.8789,7.8789,7.4858,7.5335,7.3262,7.2296,7.1893,7.186,7.2358,7.3008,7.2289,7.2838,7.425,7.258,7.2242,7.2679,7.2381,7.2481,7.2652,7.3126,7.3558,7.4848,7.5592,7.6206,7.6898,7.799,7.8445,7.868,7.8789,7.8789,7.8789,7.8789,7.8789,7.8789,7.8789,7.8789,7.8789,7.8789,7.8789,7.8789,7.8789,7.8789,7.8789,7.8789,7.8789,7.8789,7.8789,7.8789,7.8789,7.8789,7.8789,7.8789,7.8789,7.8789,7.8789,7.8789,7.8789,7.8789,7.8789,7.8789,7.8789,7.8789,7.8789,7.8789,7.8789,7.8789,7.8789,7.8789,7.8789,7.8789,7.8789,7.8789,7.8789,7.8789,7.8789,7.8789,7.8789,7.8789,7.8789,7.8789,7.8789,7.8789,7.8789,7.8789,7.8789,7.8789,7.8789,7.8789,7.8789,7.8789,7.8789,7.8789,7.8789,7.8789,7.8789,7.8789,7.8789,7.8789,7.8789,7.8789,7.8789,7.8789,7.8789,7.8789,7.8789,7.8789,7.8789,7.8789,7.8789,7.8789,7.8789,7.8789,7.8789,7.8789,7.8789,7.8789,7.8789,7.3935,7.3136,7.1671,7.0887,7.0582,7.0541,7.1049,7.1889,7.1655,7.2302,7.3264,7.2282,7.1655,7.1889,7.1756,7.1809,7.1929,7.2182,7.2169,7.2897,7.3929,7.4982,7.5706,7.6917,7.7814,7.8572,7.8789,7.8789,7.8789,7.8789,7.8789,7.8789,7.8789,7.8789,7.8789,7.8789,7.8789,7.8789,7.8789,7.8789,7.8789,7.8789,7.8789,7.8789,7.8789,7.8789,7.8789,7.8789,7.8789,7.8789,7.8789,7.8789,7.8789,7.8789,7.8789,7.8789,7.8789,7.8789,7.8789,7.8789,7.8789,7.8789,7.8789,7.8789,7.8789,7.8789,7.8789,7.8789,7.8789,7.8789,7.8789,7.8789,7.8789,7.8789,7.8789,7.8789,7.8789,7.8789,7.8789,7.8789,7.8789,7.8789,7.8789,7.8789,7.8789,7.8789,7.8789,7.8789,7.8789,7.8789,7.8789,7.8789,7.8789,7.8789,7.8789,7.8789,7.8789,7.8789,7.8789,7.8789,7.8789,7.8789,7.8789,7.8789,7.8789,7.8789,7.8789,7.8789,7.8789,7.8789,7.8789,7.8789,7.8789,7.8789,7.8789,7.1417,7.0961,6.9765,6.9137,6.8956,6.8941,6.9665,7.0737,7.088,7.148,7.2342,7.1809,7.1494,7.1494,7.1494,7.1453,7.1453,7.1514,7.1675,7.1929,7.2481,7.3295,7.4454,7.5857,7.6616,7.7534,7.8506,7.8789,7.8662,7.8789,7.8789,7.8717,7.8735,7.8753,7.8771,7.8789,7.8789,7.8789,7.8789,7.8789,7.8789,7.8789,7.8789,7.8789,7.8789,7.8789,7.8789,7.8789,7.8789,7.8789,7.8789,7.8789,7.8789,7.8789,7.8789,7.8789,7.8789,7.8789,7.8789,7.8789,7.8789,7.8789,7.8789,7.8789,7.8789,7.8789,7.8789,7.8789,7.8789,7.8789,7.8789,7.8789,7.8789,7.8789,7.8789,7.8789,7.8789,7.8789,7.8789,7.8789,7.8789,7.8789,7.8789,7.8789,7.8789,7.8789,7.8789,7.8753,7.8753,7.8608,7.8662,7.8608,7.8499,7.868,7.8789,7.8789,7.8789,7.8789,7.8644,7.8717,7.868,7.8753,7.8789,7.8717,7.8717,7.8789,7.8789,7.8789,7.8789,7.8789,7.8789,7.8789,7.8789,7.8789,7.8789,6.8539,6.8769,6.781,6.7434,6.7498,6.754,6.8461,6.9768,6.9954,7.0472,7.1292,7.1285,7.1352,7.1474,7.1494,7.1413,7.1373,7.1433,7.1453,7.1487,7.2202,7.2703,7.3658,7.4953,7.5988,7.7081,7.8149,7.8186,7.8004,7.8179,7.8288,7.8433,7.8524,7.8596,7.8735,7.8789,7.8789,7.8789,7.8789,7.8789,7.8789,7.8753,7.8644,7.8644,7.8717,7.8717,7.8644,7.8735,7.8735,7.8789,7.8789,7.8789,7.8789,7.8789,7.8789,7.8789,7.8789,7.8789,7.8789,7.8789,7.8789,7.8789,7.8789,7.8789,7.8789,7.8789,7.8789,7.8753,7.8753,7.8771,7.8771,7.8789,7.8789,7.8753,7.8753,7.8753,7.8753,7.8753,7.8753,7.8771,7.8789,7.8789,7.8789,7.8789,7.8789,7.8789,7.8735,7.8698,7.859,7.83,7.8154,7.8008,7.7795,7.807,7.8481,7.868,7.8626,7.8143,7.7997,7.8336,7.8499,7.8336,7.8336,7.8536,7.8554,7.868,7.8771,7.8789,7.8789,7.8717,7.8789,7.8789,7.8789,7.8789,7.8789,6.7557,6.6686,6.6455,6.6775,6.7413,6.7477,6.8083,6.8941,6.9065,6.9562,7.02,7.0425,7.0737,7.1474,7.1494,7.1191,7.0492,7.088,7.0798,7.0608,7.0826,7.1707,7.2763,7.3767,7.5856,7.7166,7.7876,7.759,7.7044,7.7158,7.698,7.6446,7.711,7.7674,7.8644,7.856,7.8343,7.8397,7.8433,7.8397,7.8626,7.8481,7.8088,7.8124,7.827,7.7978,7.7887,7.8372,7.8662,7.8789,7.8789,7.8789,7.8789,7.8789,7.8789,7.8789,7.8789,7.8789,7.8789,7.8789,7.8789,7.8789,7.8789,7.8789,7.8789,7.8789,7.8735,7.859,7.8608,7.868,7.8717,7.8771,7.8789,7.8644,7.8572,7.8572,7.8572,7.8608,7.8596,7.8698,7.8789,7.8789,7.8789,7.8771,7.8698,7.8662,7.8518,7.8427,7.8081,7.7862,7.7641,7.7391,7.715,7.7335,7.7678,7.8234,7.8234,7.7704,7.7317,7.752,7.763,7.7641,7.7715,7.8063,7.8391,7.859,7.868,7.8608,7.859,7.8518,7.8717,7.8789,7.8717,7.8536,7.8282]},{"header":{"parameterUnit":"m.s-1","parameterCategory":1,"la1":31.0,"la2":29.5877,"lo1":-88.7671,"lo2":-86.6584,"dx":0.0162,"dy":0.0185,"nx":115,"ny":88,"refTime":"2022-11-19T18:00:00:Z","depth":0,"parameterNumber":3,"parameterNumberName":"V-component_of_WINDS"},"data":[0.0,0.0,0.0,0.0,0.0,0.0,0.0,0.0,0.0,0.0,0.0,0.0,0.0,0.0,0.0,0.0,0.0,0.0,0.0,0.0,0.0,0.0,0.0,0.0,0.0,0.0,0.0,0.0,0.0,0.0,0.0,0.0,0.0,0.0,0.0,0.0,0.0,0.0,0.0,0.0,0.0,0.0,0.0,0.0,0.0,0.0,0.0,0.0,0.0,0.0,0.0,0.0,0.0,0.0,0.0,0.0,0.0,0.0,0.0,0.0,0.0,0.0,0.0,0.0,0.0,0.0,0.0,0.0,0.0,0.0,0.0,0.0,0.0,0.0,0.0,0.0,0.0,0.0,0.0,0.0,0.0,0.0,0.0,0.0,0.0,0.0,0.0,0.0,0.0,0.0,0.0,0.0,0.0,0.0,0.0,0.0,0.0,0.0,0.0,0.0,0.0,0.0,0.0,0.0,0.0,0.0,0.0,0.0,0.0,0.0,0.0,0.0,0.0,0.0,0.0,0.0,0.0,0.0,0.0,0.0,0.0,0.0,0.0,0.0,0.0,0.0,0.0,0.0,0.0,0.0,0.0,0.0,0.0,0.0,0.0,0.0,0.0,0.0,0.0,0.0,0.0,0.0,0.0,0.0,0.0,0.0,0.0,0.0,0.0,0.0,0.0,0.0,0.0,0.0,0.0,0.0,0.0,0.0,0.0,0.0,0.0,0.0,0.0,0.0,0.0,0.0,0.0,0.0,0.0,0.0,0.0,0.0,0.0,0.0,0.0,0.0,0.0,0.0,0.0,0.0,0.0,0.0,0.0,0.0,0.0,0.0,0.0,0.0,0.0,0.0,0.0,0.0,0.0,0.0,0.0,0.0,0.0,0.0,0.0,0.0,0.0,0.0,0.0,0.0,0.0,0.0,0.0,0.0,0.0,0.0,0.0,0.0,0.0,0.0,0.0,0.0,0.0,0.0,0.0,0.0,0.0,0.0,0.0,0.0,0.0,0.0,0.0,0.0,0.0,0.0,0.0,0.0,0.0,0.0,0.0,0.0,0.0,0.0,0.0,0.0,0.0,0.0,0.0,0.0,0.0,0.0,0.0,0.0,0.0,0.0,0.0,0.0,0.0,0.0,0.0,0.0,0.0,0.0,0.0,0.0,0.0,0.0,0.0,0.0,0.0,0.0,0.0,0.0,0.0,0.0,0.0,0.0,0.0,0.0,0.0,0.0,0.0,0.0,0.0,0.0,0.0,0.0,0.0,0.0,0.0,0.0,0.0,0.0,0.0,0.0,0.0,0.0,0.0,0.0,0.0,0.0,0.0,0.0,0.0,0.0,0.0,0.0,0.0,0.0,0.0,0.0,0.0,0.0,0.0,0.0,0.0,0.0,0.0,0.0,0.0,0.0,0.0,0.0,0.0,0.0,0.0,0.0,0.0,0.0,0.0,0.0,0.0,0.0,0.0,0.0,0.0,0.0,0.0,0.0,0.0,0.0,0.0,0.0,0.0,0.0,0.0,0.0,0.0,0.0,0.0,0.0,0.0,0.0,0.0,0.0,0.0,0.0,0.0,0.0,0.0,0.0,0.0,0.0,0.0,0.0,0.0,0.0,0.0,0.0,0.0,0.0,0.0,0.0,0.0,0.0,0.0,0.0,0.0,0.0,0.0,0.0,0.0,0.0,0.0,0.0,0.0,0.0,0.0,0.0,0.0,0.0,0.0,0.0,0.0,0.0,0.0,0.0,0.0,0.0,0.0,0.0,0.0,0.0,0.0,0.0,0.0,0.0,0.0,0.0,0.0,0.0,0.0,0.0,0.0,0.0,0.0,0.0,0.0,0.0,0.0,0.0,0.0,0.0,0.0,0.0,0.0,0.0,0.0,0.0,0.0,0.0,0.0,0.0,0.0,0.0,0.0,0.0,0.0,0.0,0.0,0.0,0.0,0.0,0.0,0.0,0.0,0.0,0.0,0.0,0.0,0.0,0.0,0.0,0.0,0.0,0.0,0.0,0.0,0.0,0.0,0.0,0.0,0.0,0.0,0.0,0.0,0.0,0.0,0.0,0.0,0.0,0.0,0.0,0.0,0.0,0.0,0.0,0.0,0.0,0.0,0.0,0.0,0.0,0.0,0.0,0.0,0.0,0.0,0.0,0.0,0.0,0.0,0.0,0.0,0.0,0.0,0.0,0.0,0.0,0.0,0.0,0.0,0.0,0.0,0.0,0.0,0.0,0.0,0.0,0.0,0.0,0.0,0.0,0.0,0.0,0.0,0.0,0.0,0.0,0.0,0.0,0.0,0.0,0.0,0.0,0.0,0.0,0.0,0.0,0.0,0.0,0.0,0.0,0.0,0.0,0.0,0.0,0.0,0.0,0.0,0.0,0.0,0.0,0.0,0.0,0.0,0.0,0.0,0.0,0.0,0.0,0.0,0.0,0.0,0.0,0.0,0.0,0.0,0.0,0.0,0.0,0.0,0.0,0.0,0.0,0.0,0.0,0.0,0.0,0.0,0.0,0.0,0.0,0.0,0.0,0.0,0.0,0.0,0.0,0.0,0.0,0.0,0.0,0.0,0.0,0.0,0.0,0.0,0.0,0.0,0.0,0.0,0.0,0.0,0.0,0.0,0.0,0.0,0.0,0.0,0.0,0.0,0.0,0.0,0.0,0.0,0.0,0.0,0.0,0.0,0.0,0.0,0.0,0.0,0.0,0.0,0.0,0.0,0.0,0.0,0.0,0.0,0.0,0.0,0.0,0.0,0.0,0.0,0.0,0.0,0.0,0.0,0.0,0.0,0.0,0.0,0.0,0.0,0.0,0.0,0.0,0.0,0.0,0.0,0.0,0.0,0.0,0.0,0.0,0.0,0.0,0.0,0.0,0.0,0.0,0.0,0.0,0.0,0.0,0.0,0.0,0.0,0.0,0.0,0.0,0.0,0.0,0.0,0.0,0.0,0.0,0.0,0.0,0.0,0.0,0.0,0.0,0.0,0.0,0.0,0.0,0.0,0.0,0.0,0.0,0.0,0.0,0.0,0.0,0.0,0.0,0.0,0.0,0.0,0.0,0.0,0.0,0.0,0.0,0.0,0.0,0.0,0.0,0.0,0.0,0.0,0.0,0.0,0.0,0.0,0.0,0.0,0.0,0.0,0.0,0.0,0.0,0.0,0.0,0.0,0.0,0.0,0.0,0.0,0.0,0.0,0.0,0.0,0.0,0.0,0.0,0.0,0.0,0.0,0.0,0.0,0.0,0.0,0.0,0.0,0.0,0.0,0.0,0.0,0.0,0.0,0.0,0.0,0.0,0.0,0.0,0.0,0.0,0.0,0.0,0.0,0.0,0.0,0.0,0.0,0.0,0.0,0.0,0.0,0.0,0.0,0.0,0.0,0.0,0.0,0.0,0.0,0.0,0.0,0.0,0.0,0.0,0.0,0.0,0.0,0.0,0.0,0.0,0.0,0.0,0.0,0.0,0.0,0.0,0.0,0.0,0.0,0.0,0.0,0.0,0.0,0.0,0.0,0.0,0.0,0.0,0.0,0.0,0.0,0.0,0.0,0.0,0.0,0.0,0.0,0.0,0.0,0.0,0.0,0.0,0.0,0.0,0.0,0.0,0.0,0.0,0.0,0.0,0.0,0.0,0.0,0.0,0.0,0.0,0.0,0.0,0.0,0.0,0.0,0.0,0.0,0.0,0.0,0.0,0.0,0.0,0.0,0.0,0.0,0.0,0.0,0.0,0.0,0.0,0.0,0.0,0.0,0.0,0.0,0.0,0.0,0.0,0.0,0.0,0.0,0.0,0.0,0.0,0.0,0.0,0.0,0.0,0.0,0.0,0.0,0.0,0.0,0.0,0.0,0.0,0.0,0.0,0.0,0.0,0.0,0.0,0.0,0.0,0.0,0.0,0.0,0.0,0.0,0.0,0.0,0.0,0.0,0.0,0.0,0.0,0.0,0.0,0.0,0.0,0.0,0.0,0.0,0.0,0.0,0.0,0.0,0.0,0.0,0.0,0.0,0.0,0.0,0.0,0.0,0.0,0.0,0.0,0.0,0.0,0.0,0.0,0.0,0.0,0.0,0.0,0.0,0.0,0.0,0.0,0.0,0.0,0.0,0.0,0.0,0.0,0.0,0.0,0.0,0.0,0.0,0.0,0.0,0.0,0.0,0.0,0.0,0.0,0.0,0.0,0.0,0.0,0.0,0.0,0.0,0.0,0.0,0.0,0.0,0.0,0.0,0.0,0.0,0.0,0.0,0.0,0.0,0.0,1.8315,0.0,0.0,0.0,1.5795,0.0,0.0,0.0,0.0,0.0,0.0,0.0,0.0,0.0,0.0,0.0,0.0,0.0,0.0,0.0,0.0,0.0,0.0,0.0,0.0,0.0,0.0,0.0,0.0,0.0,0.0,0.0,0.0,0.0,0.0,0.0,0.0,0.0,0.0,0.0,0.0,0.0,0.0,0.0,0.0,0.0,0.0,0.0,0.0,0.0,0.0,0.0,0.0,0.0,0.0,0.0,0.0,0.0,0.0,0.0,0.0,0.0,0.0,0.0,0.0,0.0,0.0,0.0,0.0,0.0,0.0,0.0,0.0,0.0,0.0,0.0,0.0,0.0,0.0,0.0,0.0,0.0,0.0,0.0,0.0,0.0,0.0,0.0,0.0,0.0,0.0,0.0,0.0,0.0,0.0,0.0,0.0,0.0,0.0,0.0,0.0,0.0,0.0,0.0,0.0,0.0,0.0,0.0,0.0,0.0,0.0,0.0,0.0,0.0,0.0,1.7802,1.5904,1.598,1.598,1.582,0.0,0.0,0.0,0.0,0.0,0.0,0.0,0.0,0.0,0.0,0.0,0.0,0.0,0.0,0.0,0.0,0.0,0.0,0.0,0.0,0.0,0.0,0.0,0.0,0.0,0.0,0.0,0.0,0.0,0.0,0.0,0.0,0.0,0.0,0.0,0.0,0.0,0.0,0.0,0.0,0.0,0.0,0.0,0.0,0.0,0.0,0.0,0.0,0.0,0.0,0.0,0.0,0.0,0.0,0.0,0.0,0.0,0.0,0.0,0.0,0.0,0.0,0.0,0.0,0.0,0.0,0.0,0.0,0.0,0.0,0.0,0.0,0.0,0.0,0.0,0.0,0.0,0.0,0.0,0.0,0.0,0.0,0.0,0.0,0.0,0.0,0.0,0.0,0.0,0.0,0.0,0.0,0.0,0.0,0.0,0.0,0.0,0.0,0.0,0.0,0.0,0.0,0.0,0.0,0.0,0.0,0.0,0.0,0.0,0.0,0.0,0.0,1.6112,1.6232,1.6115,0.0,0.0,0.0,0.0,0.0,0.0,0.0,0.0,0.0,0.0,0.0,0.0,0.0,0.0,0.0,0.0,0.0,0.0,0.0,0.0,0.0,0.0,0.0,0.0,0.0,0.0,0.0,0.0,0.0,0.0,0.0,0.0,0.0,0.0,0.0,0.0,0.0,0.0,0.0,0.0,0.0,0.0,0.0,0.0,0.0,0.0,0.0,0.0,0.0,0.0,0.0,0.0,0.0,0.0,0.0,0.0,0.0,0.0,0.0,0.0,0.0,0.0,0.0,0.0,0.0,0.0,0.0,0.0,0.0,0.0,0.0,0.0,0.0,0.0,0.0,0.0,0.0,0.0,0.0,0.0,0.0,0.0,0.0,0.0,0.0,0.0,0.0,0.0,0.0,0.0,0.0,0.0,0.0,0.0,0.0,0.0,0.0,0.0,0.0,0.0,0.0,0.0,0.0,0.0,0.0,0.0,0.0,0.0,0.0,0.0,1.7373,1.5869,1.6112,0.0,1.6913,0.0,0.0,0.0,0.0,0.0,0.0,0.0,0.0,0.0,0.0,0.0,0.0,0.0,0.0,0.0,0.0,0.0,0.0,0.0,0.0,0.0,0.0,0.0,0.0,0.0,0.0,0.0,0.0,0.0,0.0,0.0,0.0,0.0,0.0,0.0,0.0,0.0,0.0,0.0,0.0,0.0,0.0,0.0,0.0,0.0,0.0,0.0,0.0,0.0,0.0,0.0,0.0,0.0,0.0,0.0,0.0,0.0,0.0,0.0,0.0,0.0,0.0,0.0,0.0,0.0,0.0,0.0,0.0,0.0,0.0,0.0,0.0,0.0,0.0,0.0,0.0,0.0,0.0,0.0,0.0,0.0,0.0,0.0,0.0,0.0,0.0,0.0,0.0,0.0,0.0,0.0,0.0,0.0,0.0,0.0,0.0,0.0,0.0,0.0,0.0,0.0,0.0,0.0,0.0,0.0,0.0,0.0,0.0,0.0,0.0,1.6799,1.5821,1.5915,1.6311,0.0,0.0,0.0,0.0,0.0,0.0,0.0,0.0,0.0,0.0,0.0,0.0,0.0,0.0,0.0,0.0,0.0,0.0,0.0,0.0,0.0,0.0,0.0,0.0,0.0,0.0,0.0,0.0,0.0,0.0,0.0,0.0,0.0,0.0,0.0,0.0,0.0,0.0,0.0,0.0,0.0,0.0,0.0,0.0,0.0,0.0,0.0,0.0,0.0,0.0,0.0,0.0,0.0,0.0,0.0,0.0,0.0,0.0,0.0,0.0,0.0,0.0,0.0,0.0,0.0,0.0,0.0,0.0,0.0,0.0,0.0,0.0,0.0,0.0,0.0,0.0,0.0,0.0,0.0,0.0,0.0,0.0,0.0,0.0,0.0,0.0,0.0,0.0,0.0,0.0,0.0,0.0,0.0,0.0,0.0,0.0,0.0,0.0,0.0,0.0,0.0,0.0,0.0,0.0,0.0,0.0,0.0,0.0,0.0,0.0,1.7363,1.6487,1.6061,1.5888,1.6134,1.6873,0.0,0.0,0.0,0.0,0.0,0.0,0.0,0.0,0.0,0.0,0.0,0.0,0.0,0.0,0.0,0.0,0.0,0.0,0.0,0.0,0.0,0.0,0.0,0.0,0.0,0.0,0.0,0.0,0.0,0.0,0.0,0.0,0.0,0.0,0.0,0.0,0.0,0.0,0.0,0.0,0.0,0.0,0.0,0.0,0.0,0.0,0.0,0.0,0.0,0.0,0.0,0.0,0.0,0.0,0.0,0.0,0.0,0.0,0.0,0.0,0.0,0.0,0.0,0.0,0.0,0.0,0.0,0.0,0.0,0.0,0.0,0.0,0.0,0.0,0.0,0.0,0.0,0.0,0.0,0.0,0.0,0.0,0.0,0.0,0.0,0.0,0.0,0.0,0.0,0.0,0.0,0.0,0.0,0.0,0.0,0.0,0.0,0.0,0.0,0.0,0.0,0.0,0.0,0.0,0.0,0.0,0.0,0.0,1.6597,1.6627,1.6687,1.6633,1.6102,1.6061,0.0,0.0,0.0,0.0,0.0,0.0,0.0,0.0,0.0,0.0,0.0,0.0,0.0,0.0,0.0,0.0,0.0,0.0,0.0,0.0,0.0,0.0,0.0,0.0,0.0,0.0,0.0,0.0,0.0,0.0,0.0,0.0,0.0,0.0,0.0,0.0,0.0,0.0,0.0,0.0,0.0,0.0,0.0,0.0,0.0,0.0,0.0,0.0,0.0,0.0,0.0,0.0,0.0,0.0,0.0,0.0,0.0,0.0,0.0,0.0,0.0,0.0,0.0,0.0,0.0,0.0,0.0,0.0,0.0,0.0,0.0,0.0,0.0,0.0,0.0,0.0,0.0,0.0,0.0,0.0,0.0,0.0,0.0,0.0,0.0,0.0,0.0,0.0,0.0,0.0,0.0,0.0,0.0,0.0,0.0,0.0,0.0,0.0,0.0,0.0,0.0,0.0,0.0,0.0,0.0,0.0,0.0,0.0,0.0,1.7203,1.6495,1.622,1.6431,1.6518,1.6883,0.0,0.0,0.0,0.0,0.0,0.0,0.0,0.0,0.0,0.0,0.0,0.0,0.0,0.0,0.0,0.0,0.0,0.0,0.0,0.0,0.0,0.0,0.0,0.0,0.0,0.0,0.0,0.0,0.0,0.0,0.0,0.0,0.0,0.0,0.0,0.0,0.0,0.0,0.0,0.0,0.0,0.0,0.0,0.0,0.0,0.0,0.0,0.0,0.0,0.0,0.0,0.0,0.0,0.0,0.0,0.0,0.0,0.0,0.0,0.0,0.0,0.0,0.0,0.0,0.0,0.0,0.0,0.0,0.0,0.0,0.0,0.0,0.0,0.0,0.0,0.0,0.0,0.0,0.0,0.0,0.0,0.0,0.0,0.0,0.0,0.0,0.0,0.0,0.0,0.0,0.0,0.0,0.0,0.0,0.0,0.0,0.0,0.0,0.0,0.0,0.0,0.0,0.0,0.0,0.0,0.0,0.0,0.0,0.0,1.7368,1.6654,1.6299,1.6442,1.7025,1.7462,0.0,0.0,0.0,0.0,0.0,0.0,0.0,0.0,0.0,0.0,0.0,0.0,0.0,0.0,0.0,0.0,0.0,0.0,0.0,0.0,0.0,0.0,0.0,0.0,0.0,0.0,0.0,0.0,0.0,0.0,0.0,0.0,0.0,0.0,0.0,0.0,0.0,0.0,0.0,0.0,0.0,0.0,0.0,0.0,0.0,0.0,0.0,0.0,0.0,0.0,0.0,0.0,0.0,0.0,0.0,0.0,0.0,0.0,0.0,0.0,0.0,0.0,0.0,0.0,0.0,0.0,0.0,0.0,0.0,0.0,0.0,0.0,0.0,0.0,0.0,0.0,0.0,0.0,0.0,0.0,0.0,0.0,0.0,0.0,0.0,0.0,0.0,0.0,0.0,0.0,0.0,0.0,0.0,0.0,0.0,0.0,0.0,0.0,0.0,0.0,0.0,0.0,0.0,0.0,0.0,0.0,0.0,0.0,1.7361,1.6761,1.7056,1.7121,1.6763,1.771,1.7746,0.0,0.0,0.0,0.0,0.0,0.0,0.0,0.0,0.0,0.0,0.0,0.0,0.0,0.0,0.0,0.0,0.0,0.0,0.0,0.0,0.0,0.0,0.0,0.0,0.0,0.0,0.0,0.0,0.0,0.0,0.0,0.0,0.0,0.0,0.0,0.0,0.0,0.0,0.0,0.0,0.0,0.0,0.0,0.0,0.0,0.0,0.0,0.0,0.0,0.0,0.0,0.0,0.0,0.0,0.0,0.0,0.0,0.0,0.0,0.0,0.0,0.0,0.0,0.0,0.0,0.0,0.0,0.0,0.0,0.0,0.0,0.0,0.0,0.0,0.0,0.0,0.0,0.0,0.0,0.0,0.0,0.0,0.0,0.0,0.0,0.0,0.0,0.0,0.0,0.0,0.0,0.0,0.0,0.0,0.0,0.0,0.0,0.0,0.0,0.0,0.0,0.0,0.0,0.0,0.0,0.0,0.0,0.0,0.0,1.6495,1.8105,1.8704,1.818,1.9848,2.0497,0.0,0.0,0.0,0.0,0.0,0.0,0.0,0.0,0.0,0.0,0.0,0.0,0.0,0.0,0.0,0.0,0.0,0.0,0.0,0.0,0.0,0.0,0.0,0.0,0.0,0.0,0.0,0.0,0.0,0.0,0.0,0.0,0.0,0.0,0.0,0.0,0.0,0.0,0.0,0.0,0.0,0.0,0.0,0.0,0.0,0.0,0.0,0.0,0.0,0.0,0.0,0.0,0.0,0.0,0.0,0.0,0.0,0.0,0.0,0.0,0.0,0.0,0.0,0.0,0.0,0.0,0.0,0.0,0.0,0.0,0.0,0.0,0.0,0.0,0.0,0.0,0.0,0.0,0.0,0.0,0.0,0.0,0.0,0.0,0.0,0.0,0.0,0.0,0.0,0.0,0.0,0.0,0.0,0.0,0.0,0.0,0.0,0.0,0.0,0.0,0.0,0.0,0.0,0.0,0.0,0.0,0.0,0.0,0.0,1.7527,1.8901,1.9704,1.976,2.1171,2.1796,2.1588,0.0,0.0,0.0,0.0,0.0,0.0,0.0,0.0,0.0,0.0,0.0,0.0,0.0,0.0,0.0,0.0,0.0,0.0,0.0,0.0,0.0,0.0,0.0,0.0,0.0,0.0,0.0,0.0,0.0,0.0,0.0,0.0,0.0,0.0,0.0,0.0,0.0,0.0,0.0,0.0,0.0,0.0,0.0,0.0,0.0,0.0,0.0,0.0,0.0,0.0,0.0,0.0,0.0,0.0,0.0,0.0,0.0,0.0,0.0,0.0,0.0,0.0,0.0,0.0,0.0,0.0,0.0,0.0,0.0,0.0,0.0,0.0,0.0,0.0,0.0,0.0,0.0,0.0,0.0,0.0,0.0,0.0,0.0,0.0,0.0,0.0,0.0,0.0,0.0,0.0,0.0,0.0,0.0,0.0,0.0,0.0,0.0,0.0,0.0,0.0,0.0,0.0,0.0,0.0,0.0,0.0,0.0,0.0,1.9626,1.9629,2.0331,2.1728,2.1941,2.2034,0.0,0.0,0.0,0.0,0.0,0.0,0.0,0.0,0.0,0.0,0.0,0.0,0.0,0.0,0.0,0.0,0.0,0.0,0.0,0.0,0.0,0.0,0.0,0.0,0.0,0.0,0.0,0.0,0.0,0.0,0.0,0.0,0.0,0.0,0.0,0.0,0.0,0.0,0.0,0.0,0.0,0.0,0.0,0.0,0.0,0.0,0.0,0.0,0.0,0.0,0.0,0.0,0.0,0.0,0.0,0.0,0.0,0.0,0.0,0.0,0.0,0.0,0.0,0.0,0.0,0.0,0.0,0.0,0.0,0.0,0.0,0.0,0.0,0.0,0.0,0.0,0.0,0.0,0.0,0.0,0.0,0.0,0.0,0.0,0.0,0.0,0.0,0.0,0.0,0.0,0.0,0.0,0.0,0.0,0.0,0.0,0.0,0.0,0.0,0.0,0.0,0.0,0.0,0.0,0.0,0.0,0.0,0.0,0.0,2.2199,2.2429,2.2954,2.3836,2.4026,2.4309,0.0,0.0,0.0,0.0,0.0,0.0,0.0,0.0,0.0,0.0,0.0,0.0,0.0,0.0,0.0,0.0,0.0,0.0,0.0,0.0,0.0,0.0,0.0,0.0,0.0,0.0,0.0,0.0,0.0,0.0,0.0,0.0,0.0,0.0,0.0,0.0,0.0,0.0,0.0,0.0,0.0,0.0,0.0,0.0,0.0,0.0,0.0,0.0,0.0,0.0,0.0,0.0,0.0,0.0,0.0,0.0,0.0,0.0,0.0,0.0,0.0,0.0,0.0,0.0,0.0,0.0,0.0,0.0,0.0,0.0,0.0,0.0,0.0,0.0,0.0,0.0,0.0,0.0,0.0,0.0,0.0,0.0,0.0,0.0,0.0,0.0,0.0,0.0,0.0,0.0,0.0,0.0,0.0,0.0,0.0,0.0,0.0,0.0,0.0,0.0,0.0,0.0,0.0,0.0,0.0,0.0,0.0,0.0,2.2438,2.3949,2.4233,2.4964,2.6234,2.5372,2.5311,0.0,0.0,0.0,0.0,0.0,0.0,0.0,0.0,0.0,0.0,0.0,0.0,0.0,0.0,0.0,0.0,0.0,0.0,0.0,0.0,0.0,0.0,0.0,0.0,0.0,0.0,0.0,0.0,0.0,0.0,0.0,0.0,0.0,0.0,0.0,0.0,0.0,0.0,0.0,0.0,0.0,0.0,0.0,0.0,0.0,0.0,0.0,0.0,0.0,0.0,0.0,0.0,0.0,0.0,0.0,0.0,0.0,0.0,0.0,0.0,0.0,0.0,0.0,0.0,0.0,0.0,0.0,0.0,0.0,0.0,0.0,0.0,0.0,0.0,0.0,0.0,0.0,0.0,0.0,0.0,0.0,0.0,0.0,0.0,0.0,0.0,0.0,0.0,0.0,0.0,0.0,0.0,0.0,0.0,0.0,0.0,0.0,0.0,0.0,0.0,0.0,0.0,0.0,0.0,0.0,0.0,0.0,0.0,2.4923,2.5543,2.5778,2.68,2.8591,2.6301,2.5622,0.0,0.0,0.0,0.0,0.0,0.0,0.0,0.0,0.0,0.0,0.0,0.0,0.0,0.0,0.0,0.0,0.0,0.0,0.0,0.0,0.0,0.0,0.0,0.0,0.0,0.0,0.0,0.0,0.0,0.0,0.0,0.0,0.0,0.0,0.0,0.0,0.0,0.0,0.0,0.0,0.0,0.0,0.0,0.0,0.0,0.0,0.0,0.0,0.0,0.0,0.0,0.0,0.0,0.0,0.0,0.0,0.0,0.0,0.0,0.0,0.0,0.0,0.0,0.0,0.0,0.0,0.0,0.0,0.0,0.0,0.0,0.0,0.0,0.0,0.0,0.0,0.0,0.0,0.0,0.0,0.0,0.0,0.0,0.0,0.0,0.0,0.0,0.0,0.0,0.0,0.0,0.0,0.0,0.0,0.0,0.0,0.0,0.0,0.0,0.0,0.0,0.0,0.0,0.0,0.0,0.0,0.0,0.0,2.7998,2.9802,2.9276,2.9646,3.1099,2.7345,2.5982,0.0,0.0,0.0,0.0,0.0,0.0,0.0,0.0,0.0,0.0,0.0,0.0,0.0,0.0,0.0,0.0,0.0,0.0,0.0,0.0,0.0,0.0,0.0,0.0,0.0,0.0,0.0,0.0,0.0,0.0,0.0,0.0,0.0,0.0,0.0,0.0,0.0,0.0,0.0,0.0,0.0,0.0,0.0,0.0,0.0,0.0,0.0,0.0,1.8059,0.0,0.0,0.0,0.0,0.0,0.0,0.0,0.0,0.0,0.0,0.0,0.0,0.0,0.0,0.0,0.0,0.0,0.0,0.0,0.0,0.0,0.0,0.0,0.0,0.0,0.0,0.0,0.0,0.0,0.0,0.0,0.0,0.0,0.0,0.0,0.0,0.0,0.0,0.0,0.0,0.0,0.0,0.0,0.0,0.0,0.0,0.0,0.0,0.0,0.0,0.0,0.0,0.0,0.0,0.0,0.0,0.0,0.0,0.0,2.9728,3.142,2.9953,3.0003,3.1673,2.8464,2.7054,0.0,0.0,0.0,0.0,0.0,0.0,0.0,0.0,0.0,0.0,0.0,0.0,0.0,0.0,0.0,0.0,0.0,0.0,0.0,0.0,0.0,0.0,0.0,0.0,0.0,0.0,0.0,0.0,0.0,0.0,0.0,0.0,0.0,0.0,0.0,0.0,0.0,0.0,0.0,0.0,0.0,0.0,0.0,0.0,0.0,0.0,0.0,0.0,0.0,0.0,0.0,0.0,0.0,0.0,0.0,0.0,0.0,0.0,0.0,0.0,0.0,0.0,0.0,0.0,0.0,0.0,0.0,0.0,0.0,0.0,0.0,0.0,0.0,0.0,0.0,0.0,0.0,0.0,0.0,0.0,0.0,0.0,0.0,0.0,0.0,0.0,0.0,0.0,0.0,0.0,0.0,0.0,0.0,0.0,0.0,0.0,0.0,0.0,0.0,0.0,0.0,0.0,0.0,0.0,0.0,0.0,0.0,3.0092,3.1173,3.2555,3.0481,3.031,3.2322,2.9975,2.8526,2.8304,0.0,0.0,0.0,0.0,0.0,0.0,0.0,0.0,0.0,0.0,0.0,0.0,0.0,0.0,0.0,0.0,0.0,0.0,0.0,0.0,0.0,0.0,0.0,0.0,0.0,0.0,0.0,0.0,0.0,0.0,0.0,0.0,0.0,0.0,0.0,0.0,0.0,0.0,1.6499,1.6686,0.0,0.0,0.0,0.0,0.0,0.0,0.0,0.0,1.8512,0.0,0.0,0.0,0.0,0.0,0.0,0.0,0.0,0.0,0.0,0.0,0.0,0.0,0.0,0.0,0.0,0.0,0.0,0.0,0.0,0.0,0.0,0.0,0.0,0.0,0.0,0.0,0.0,0.0,0.0,0.0,0.0,0.0,0.0,0.0,0.0,0.0,0.0,0.0,0.0,0.0,0.0,0.0,0.0,0.0,0.0,0.0,0.0,0.0,0.0,0.0,0.0,0.0,0.0,0.0,0.0,3.1631,3.2444,3.4004,3.6305,3.4711,3.4147,3.4731,3.273,3.0547,2.8403,0.0,0.0,0.0,0.0,0.0,0.0,0.0,0.0,0.0,0.0,0.0,0.0,0.0,0.0,0.0,0.0,0.0,0.0,0.0,0.0,0.0,0.0,0.0,0.0,0.0,0.0,0.0,0.0,0.0,0.0,0.0,0.0,0.0,0.0,0.0,0.0,0.0,0.0,0.0,1.7368,1.7301,0.0,0.0,0.0,0.0,0.0,0.0,0.0,0.0,2.2566,0.0,0.0,0.0,0.0,0.0,0.0,0.0,0.0,0.0,0.0,0.0,0.0,0.0,0.0,0.0,0.0,0.0,0.0,0.0,0.0,0.0,0.0,0.0,0.0,0.0,0.0,0.0,0.0,0.0,0.0,0.0,0.0,0.0,0.0,0.0,0.0,0.0,0.0,0.0,0.0,0.0,0.0,0.0,0.0,0.0,0.0,0.0,0.0,0.0,0.0,0.0,0.0,0.0,0.0,0.0,3.2105,3.3672,3.5273,3.6857,3.5274,3.4611,3.4953,3.2921,3.0793,0.0,0.0,0.0,0.0,0.0,0.0,0.0,0.0,0.0,0.0,0.0,0.0,0.0,0.0,0.0,0.0,0.0,0.0,0.0,0.0,0.0,0.0,0.0,0.0,0.0,0.0,0.0,0.0,0.0,0.0,0.0,0.0,0.0,0.0,0.0,0.0,0.0,0.0,0.0,0.0,1.7916,1.8387,1.9777,0.0,0.0,0.0,0.0,0.0,0.0,2.1406,2.2164,0.0,0.0,0.0,0.0,0.0,0.0,0.0,0.0,0.0,0.0,0.0,0.0,0.0,0.0,0.0,0.0,0.0,0.0,0.0,0.0,0.0,0.0,0.0,0.0,0.0,0.0,0.0,0.0,0.0,0.0,0.0,0.0,0.0,0.0,0.0,0.0,0.0,0.0,0.0,0.0,0.0,0.0,0.0,0.0,0.0,0.0,0.0,0.0,0.0,0.0,0.0,0.0,0.0,0.0,0.0,3.2316,3.4352,3.5915,3.6818,3.5333,3.4582,3.4797,3.2749,3.0754,0.0,0.0,0.0,0.0,0.0,0.0,0.0,0.0,0.0,0.0,0.0,0.0,0.0,0.0,0.0,0.0,0.0,0.0,0.0,0.0,0.0,0.0,0.0,0.0,0.0,0.0,0.0,0.0,0.0,0.0,0.0,0.0,0.0,0.0,0.0,0.0,0.0,0.0,0.0,0.0,0.0,1.9794,2.1629,2.0072,0.0,0.0,0.0,0.0,2.0811,2.1382,0.0,0.0,0.0,0.0,0.0,0.0,0.0,0.0,0.0,0.0,0.0,0.0,0.0,0.0,0.0,0.0,0.0,0.0,0.0,0.0,0.0,0.0,0.0,0.0,0.0,0.0,0.0,0.0,0.0,0.0,0.0,0.0,0.0,0.0,0.0,0.0,0.0,0.0,0.0,0.0,0.0,0.0,0.0,0.0,0.0,0.0,0.0,0.0,0.0,0.0,0.0,0.0,0.0,0.0,0.0,0.0,3.2676,3.4492,3.6172,3.7621,3.6852,3.6035,3.5332,3.3552,3.1472,0.0,0.0,0.0,0.0,0.0,0.0,0.0,0.0,0.0,0.0,0.0,0.0,0.0,0.0,0.0,0.0,0.0,0.0,0.0,0.0,0.0,0.0,0.0,0.0,0.0,0.0,0.0,0.0,0.0,0.0,0.0,0.0,0.0,0.0,0.0,0.0,0.0,0.0,0.0,0.0,0.0,2.146,2.2235,2.1619,2.1356,0.0,0.0,2.3951,2.4199,2.6354,0.0,0.0,0.0,0.0,0.0,0.0,0.0,0.0,0.0,0.0,0.0,0.0,0.0,0.0,0.0,0.0,0.0,0.0,0.0,0.0,0.0,0.0,0.0,0.0,0.0,0.0,0.0,0.0,0.0,0.0,0.0,0.0,0.0,0.0,0.0,0.0,0.0,0.0,0.0,0.0,0.0,0.0,0.0,0.0,0.0,0.0,0.0,0.0,0.0,0.0,0.0,0.0,0.0,0.0,0.0,3.1191,3.3512,3.5485,3.6934,3.7853,3.7324,3.6504,3.5427,3.3945,3.2036,0.0,0.0,0.0,0.0,0.0,0.0,0.0,0.0,0.0,0.0,0.0,0.0,0.0,0.0,0.0,0.0,0.0,0.0,0.0,0.0,0.0,0.0,0.0,0.0,0.0,0.0,0.0,0.0,0.0,0.0,0.0,0.0,0.0,0.0,0.0,0.0,0.0,0.0,0.0,0.0,0.0,0.0,2.3816,2.2848,0.0,0.0,0.0,2.4137,2.3516,0.0,0.0,0.0,0.0,0.0,0.0,0.0,0.0,0.0,0.0,0.0,0.0,0.0,0.0,0.0,0.0,0.0,0.0,0.0,0.0,0.0,0.0,0.0,0.0,0.0,0.0,0.0,0.0,0.0,0.0,0.0,0.0,0.0,0.0,0.0,0.0,0.0,0.0,0.0,0.0,0.0,0.0,0.0,0.0,0.0,0.0,0.0,0.0,0.0,0.0,0.0,0.0,0.0,0.0,0.0,0.0,0.0,3.4095,3.6423,3.7773,3.8048,3.7773,3.6973,3.5586,3.4375,0.0,0.0,0.0,0.0,0.0,0.0,0.0,0.0,0.0,0.0,0.0,0.0,0.0,0.0,0.0,0.0,0.0,0.0,0.0,0.0,0.0,0.0,0.0,0.0,0.0,0.0,0.0,0.0,0.0,0.0,0.0,0.0,0.0,0.0,0.0,0.0,0.0,0.0,0.0,0.0,0.0,0.0,2.3542,2.5253,2.4494,2.4406,0.0,0.0,2.5061,2.438,2.6927,2.8602,0.0,0.0,0.0,0.0,0.0,0.0,0.0,0.0,0.0,0.0,0.0,0.0,0.0,0.0,0.0,0.0,0.0,0.0,0.0,0.0,0.0,0.0,0.0,0.0,0.0,0.0,0.0,0.0,0.0,0.0,0.0,0.0,0.0,0.0,0.0,0.0,0.0,0.0,0.0,0.0,0.0,0.0,0.0,0.0,0.0,0.0,0.0,0.0,0.0,0.0,0.0,0.0,0.0,0.0,0.0,3.4118,3.7027,3.8495,3.8534,3.8552,3.7693,3.6018,3.5098,3.3223,0.0,0.0,0.0,0.0,0.0,0.0,0.0,0.0,0.0,0.0,0.0,0.0,0.0,0.0,0.0,0.0,0.0,0.0,0.0,0.0,0.0,0.0,0.0,0.0,0.0,0.0,0.0,0.0,0.0,0.0,0.0,0.0,0.0,0.0,0.0,0.0,0.0,0.0,0.0,0.0,0.0,2.4838,2.6139,2.6964,2.8041,0.0,0.0,2.8341,2.9169,3.0787,3.1183,2.871,0.0,0.0,0.0,0.0,0.0,0.0,0.0,0.0,0.0,0.0,0.0,0.0,0.0,0.0,0.0,0.0,0.0,0.0,0.0,0.0,0.0,0.0,0.0,0.0,0.0,0.0,0.0,0.0,0.0,0.0,0.0,0.0,0.0,0.0,0.0,0.0,0.0,0.0,0.0,0.0,0.0,0.0,0.0,0.0,0.0,0.0,0.0,0.0,0.0,0.0,0.0,0.0,0.0,3.2633,3.4114,3.6777,3.8301,3.8573,3.832,3.7599,3.6465,3.5586,3.3961,0.0,0.0,0.0,0.0,0.0,0.0,0.0,0.0,0.0,0.0,0.0,0.0,0.0,0.0,0.0,0.0,0.0,0.0,0.0,0.0,0.0,0.0,0.0,0.0,0.0,0.0,0.0,0.0,2.2631,2.3238,2.233,0.0,0.0,0.0,0.0,0.0,0.0,0.0,0.0,0.0,0.0,2.7107,2.7835,2.8245,0.0,0.0,2.9428,2.9141,2.9667,3.0723,3.1133,3.0102,2.9239,0.0,0.0,0.0,0.0,0.0,0.0,0.0,0.0,0.0,0.0,0.0,0.0,0.0,0.0,0.0,0.0,0.0,0.0,0.0,0.0,0.0,0.0,0.0,0.0,0.0,0.0,0.0,0.0,0.0,0.0,0.0,0.0,0.0,0.0,0.0,0.0,0.0,0.0,0.0,0.0,0.0,0.0,0.0,0.0,0.0,0.0,0.0,0.0,0.0,0.0,0.0,0.0,3.3332,3.4489,3.7383,3.8926,3.8983,3.8672,3.8047,3.7088,3.6228,3.4841,0.0,0.0,0.0,0.0,0.0,0.0,0.0,0.0,0.0,0.0,0.0,0.0,0.0,0.0,0.0,0.0,0.0,0.0,0.0,0.0,0.0,0.0,0.0,0.0,0.0,0.0,0.0,0.0,2.4171,2.4579,2.4079,0.0,0.0,0.0,0.0,0.0,0.0,0.0,0.0,0.0,0.0,2.8891,2.945,2.9746,3.0093,3.0618,3.0308,3.0122,3.0387,3.0952,3.127,3.0947,0.0,0.0,0.0,0.0,0.0,0.0,0.0,0.0,0.0,0.0,0.0,0.0,0.0,0.0,0.0,0.0,0.0,0.0,0.0,0.0,0.0,0.0,0.0,0.0,0.0,0.0,0.0,0.0,0.0,0.0,2.4402,0.0,0.0,0.0,0.0,0.0,0.0,0.0,0.0,0.0,0.0,0.0,0.0,0.0,0.0,0.0,0.0,0.0,0.0,0.0,0.0,0.0,0.0,3.4469,3.5371,3.9081,4.0683,3.9883,3.9844,3.9199,3.7912,3.7107,3.5854,3.4075,0.0,0.0,0.0,0.0,0.0,0.0,0.0,0.0,0.0,0.0,0.0,0.0,0.0,0.0,0.0,0.0,0.0,0.0,0.0,0.0,0.0,0.0,0.0,0.0,0.0,0.0,2.445,2.5545,2.6285,0.0,0.0,0.0,0.0,0.0,0.0,0.0,0.0,0.0,0.0,2.8219,2.9919,3.0839,3.1677,3.228,3.2677,3.2003,3.1609,3.2088,3.2133,3.189,0.0,0.0,0.0,0.0,0.0,0.0,0.0,0.0,0.0,0.0,0.0,0.0,0.0,0.0,0.0,0.0,0.0,0.0,0.0,0.0,0.0,0.0,0.0,0.0,0.0,0.0,0.0,2.72,2.6803,0.0,0.0,0.0,0.0,0.0,0.0,0.0,0.0,0.0,0.0,0.0,3.0073,3.0757,0.0,0.0,0.0,0.0,0.0,0.0,0.0,0.0,0.0,0.0,0.0,0.0,3.4941,3.5117,3.875,4.0469,3.9902,3.959,3.9082,3.8397,3.7812,3.6289,3.3711,0.0,0.0,0.0,0.0,0.0,0.0,0.0,0.0,0.0,0.0,0.0,0.0,0.0,0.0,0.0,0.0,0.0,0.0,0.0,0.0,0.0,0.0,0.0,0.0,0.0,2.5718,0.0,0.0,0.0,0.0,0.0,0.0,0.0,0.0,0.0,0.0,0.0,2.7958,2.8445,3.0185,3.1602,3.2181,3.2511,3.3007,0.0,0.0,0.0,0.0,0.0,0.0,0.0,0.0,0.0,0.0,0.0,0.0,0.0,0.0,3.0644,2.7962,2.7572,2.7845,2.8412,0.0,0.0,0.0,0.0,0.0,0.0,0.0,0.0,0.0,0.0,0.0,0.0,0.0,0.0,0.0,0.0,2.7969,0.0,0.0,0.0,0.0,0.0,0.0,0.0,0.0,3.1855,3.2378,3.2246,3.2965,3.3023,0.0,3.2164,3.1284,0.0,0.0,0.0,0.0,0.0,0.0,0.0,0.0,3.5667,3.5957,3.92,4.0664,4.0137,3.9824,3.9394,3.8827,3.8223,3.6916,3.4808,3.3226,3.1816,0.0,0.0,0.0,0.0,0.0,0.0,0.0,0.0,0.0,0.0,0.0,0.0,0.0,0.0,0.0,0.0,0.0,0.0,0.0,0.0,0.0,0.0,0.0,2.6699,0.0,0.0,0.0,0.0,0.0,0.0,0.0,0.0,0.0,2.6775,2.8985,3.0759,3.113,3.2448,3.3415,3.3511,0.0,0.0,0.0,0.0,0.0,0.0,0.0,3.209,3.2363,3.1953,3.1831,3.2485,3.2851,3.3047,3.3238,0.0,0.0,3.0176,2.9766,3.0039,3.06,3.1167,3.1601,3.1738,3.2339,3.2847,0.0,0.0,0.0,0.0,0.0,0.0,0.0,0.0,2.9931,2.9526,0.0,2.9526,0.0,0.0,0.0,0.0,0.0,3.0996,0.0,0.0,3.4411,3.5192,3.4805,3.5231,3.5466,3.541,3.4626,3.4215,3.4114,3.2164,0.0,0.0,0.0,0.0,0.0,0.0,3.6701,3.7913,4.045,4.1387,4.0567,4.0489,4.0079,3.9238,3.838,3.7716,3.7266,3.531,3.3945,3.3383,2.9897,0.0,0.0,0.0,0.0,0.0,0.0,0.0,0.0,0.0,0.0,0.0,0.0,0.0,0.0,0.0,0.0,0.0,0.0,0.0,0.0,2.7252,0.0,0.0,0.0,0.0,0.0,0.0,0.0,0.0,0.0,0.0,3.0451,3.0351,3.1205,3.3746,0.0,0.0,0.0,0.0,3.5114,3.4349,3.3789,3.3519,3.3562,3.3867,3.4134,3.4153,0.0,0.0,3.4824,3.4101,3.3734,3.4118,3.4587,3.4495,3.3656,3.3125,3.2891,3.293,3.3004,3.307,3.3461,3.3965,3.4489,3.3852,0.0,0.0,0.0,0.0,3.1616,3.2042,3.2961,3.2515,3.209,3.1699,3.1831,0.0,0.0,0.0,0.0,0.0,0.0,3.3906,3.4922,3.5566,3.6077,3.658,3.6699,3.6914,3.717,3.6934,3.6973,3.7264,3.6697,3.4782,3.1695,0.0,0.0,0.0,0.0,3.8184,3.8906,4.0801,4.1543,4.1015,4.0684,4.0254,3.9707,3.8866,3.8358,3.8221,3.7029,3.5605,3.3961,3.2539,0.0,0.0,0.0,0.0,0.0,0.0,0.0,0.0,0.0,0.0,0.0,0.0,0.0,0.0,0.0,0.0,0.0,0.0,0.0,2.6738,2.8711,2.9506,0.0,0.0,0.0,0.0,0.0,0.0,0.0,0.0,0.0,3.3887,3.3601,3.3663,0.0,0.0,3.4746,3.4333,3.4919,3.5527,3.5896,0.0,0.0,0.0,3.5527,3.5134,3.541,3.5937,3.6267,3.615,3.6152,3.623,3.6365,3.6484,3.6465,3.623,3.5569,3.5218,3.5485,3.56,3.5703,3.6094,3.6309,3.6638,3.739,3.6387,3.4414,3.3763,3.3993,3.3772,3.4109,3.4824,3.457,3.4203,3.3828,3.4004,3.3375,3.2183,3.2422,0.0,0.0,0.0,3.5703,3.676,3.7111,3.7559,3.8047,3.8242,3.8457,3.8673,3.8497,3.875,3.9354,3.9022,3.7557,3.5056,0.0,0.0,3.5952,3.8026,3.9473,4.0254,4.1406,4.1933,4.168,4.1094,4.0586,4.0137,3.9491,3.9042,3.8828,3.8164,3.7146,3.5664,3.4359,3.2891,0.0,0.0,0.0,0.0,0.0,0.0,0.0,0.0,0.0,0.0,0.0,2.5445,0.0,0.0,0.0,0.0,2.7383,2.8027,2.8965,3.0298,0.0,0.0,0.0,0.0,0.0,0.0,0.0,3.2953,3.4473,3.5723,3.6309,3.6289,3.6172,3.5996,3.6133,3.6094,3.5664,0.0,3.7031,3.74,3.7225,3.7207,3.7733,3.7168,3.6756,3.6992,3.7264,3.7439,3.7457,3.7518,3.7656,3.7949,3.791,3.7928,3.8262,3.7873,3.7363,3.7029,3.7068,3.7305,3.7733,3.793,3.8262,4.0771,4.0575,3.7535,3.6225,3.6107,3.609,3.6113,3.6113,3.6079,3.5881,3.5566,3.594,3.5452,3.4427,3.4469,0.0,3.6255,3.6736,3.7361,3.8069,3.8868,3.9277,3.9336,3.9726,3.998,4.0058,3.9628,3.9825,4.0567,3.9863,3.9453,3.9394,3.8634,3.8418,3.8729,3.9569,4.0605,4.1816,4.2187,4.2363,4.2382,4.166,4.1035,4.0625,4.0176,3.9746,3.9298,3.8925,3.8457,3.7912,3.5703,3.4199,3.3636,0.0,0.0,0.0,0.0,0.0,0.0,0.0,0.0,0.0,0.0,0.0,0.0,0.0,0.0,0.0,3.0786,0.0,3.2316,3.2012,0.0,0.0,0.0,3.1519,3.2398,3.3207,3.4203,3.5449,0.0,0.0,3.7951,0.0,3.8573,3.8205,3.8436,3.8436,3.797,3.8556,3.9081,3.8651,3.8651,3.869,3.869,3.8631,3.8611,3.8612,3.871,3.8671,3.8651,3.8379,3.8439,3.9062,3.8964,3.8905,3.9746,3.9726,3.9414,3.785,3.7834,3.8223,3.8612,3.8964,3.9336,4.2294,4.2573,4.1491,3.9785,3.782,3.782,3.7503,3.6992,3.6992,3.6934,3.6855,3.6953,3.6975,3.7031,3.7695,3.8144,3.8476,3.8944,3.9238,3.9434,3.9629,3.9902,4.0215,4.0313,4.0703,4.1328,4.123,4.1445,4.1933,4.1738,4.1465,4.1191,4.1289,4.0742,3.9648,4.0468,4.1328,4.2226,4.207,4.2089,4.2382,4.1914,4.1601,4.1504,4.0742,4.0293,4.0215,3.9786,3.9237,3.8457,3.785,3.7029,3.5935,3.2535,0.0,0.0,0.0,0.0,0.0,0.0,0.0,0.0,0.0,2.7734,2.6348,0.0,2.8775,0.0,3.3344,3.4573,3.3727,3.4137,0.0,0.0,3.3453,3.3805,3.498,3.5842,3.6604,3.7228,3.8048,3.8809,3.9355,3.953,3.9804,4.0312,3.9354,3.8436,3.8009,3.8634,3.918,3.9141,3.9413,3.957,3.9589,3.9608,3.9608,3.959,3.957,3.9608,3.9589,3.9512,3.9512,3.9687,3.9668,3.9687,3.9921,3.9883,3.9785,3.9375,3.9355,3.9453,3.9589,3.9668,3.9961,4.3611,4.3867,4.3634,4.2428,4.0572,3.9896,3.9396,3.8963,3.8601,3.8457,3.8457,3.8475,3.8574,3.8829,3.9473,3.9766,3.9805,4.0449,4.0742,4.0762,4.0918,4.1133,4.1348,4.1348,4.1601,4.205,4.207,4.2584,4.3479,4.2997,4.2997,4.348,4.3154,4.2402,4.1387,4.1601,4.1777,4.1855,4.2207,4.25,4.2695,4.248,4.1816,4.0703,4.0742,4.0254,3.9141,3.9414,3.9042,3.783,3.7576,3.7031,3.6147,3.3727,3.2359,0.0,0.0,0.0,0.0,0.0,0.0,0.0,0.0,0.0,0.0,0.0,3.0879,0.0,3.4749,0.0,3.4782,3.5466,3.5857,3.5564,3.5876,3.6443,3.7326,3.8203,3.8868,3.9316,3.9961,4.0527,4.0938,4.1035,4.1191,4.166,4.0918,4.0059,3.957,4.0079,4.0547,4.041,4.0605,4.0586,4.0235,4.0332,4.0351,4.0019,4.0215,4.0351,3.998,4.0059,4.0234,4.041,4.0312,4.0391,4.086,4.0859,4.0801,4.0976,4.1016,4.0879,4.0547,4.0781,4.1191,4.5099,4.5117,4.4845,4.4349,4.3652,4.2151,4.1413,4.123,4.0521,4.0204,4.0226,4.0152,4.0229,4.0422,4.0796,4.0954,4.0974,4.17,4.1974,4.1894,4.2246,4.2501,4.2721,4.2721,4.286,4.306,4.308,4.384,4.5286,4.422,4.438,4.5656,4.466,4.3851,4.3357,4.288,4.2249,4.1387,4.2403,4.2911,4.2852,4.2794,4.1621,3.9394,4.0449,4.0019,3.7793,3.8691,3.8592,3.7107,3.6582,3.6155,3.5801,3.4782,3.3864,0.0,3.2168,0.0,0.0,0.0,0.0,0.0,0.0,0.0,0.0,3.3082,3.3558,3.3871,3.5818,3.6716,3.6052,3.6658,3.7264,3.7676,3.8379,3.9022,3.9492,4.0196,4.0859,4.1308,4.166,4.2011,4.2285,4.2402,4.2382,4.2343,4.2343,4.2031,4.1543,4.1855,4.2109,4.1914,4.1875,4.1562,4.1016,4.1113,4.1094,4.0508,4.0879,4.1055,4.041,4.0567,4.0899,4.123,4.1035,4.1152,4.2206,4.207,4.1972,4.2207,4.2324,4.2168,4.1582,4.1797,4.2402,4.7631,4.7744,4.6098,4.5506,4.5583,4.4329,4.3138,4.2062,4.1914,4.1878,4.1888,4.1606,4.2023,4.2982,4.3486,4.3453,4.3119,4.3259,4.2962,4.2285,4.2363,4.314,4.4441,4.4501,4.5245,4.6556,4.6617,4.6779,4.7103,4.6863,4.6716,4.6639,4.6401,4.5733,4.4701,0.0,0.0,0.0,4.209,4.1875,4.1562,4.1191,4.041,3.9277,4.0118,0.0,3.9473,3.9629,3.9453,3.8769,3.8338,0.0,0.0,0.0,0.0,0.0,0.0,0.0,0.0,0.0,0.0,0.0,3.4473,3.4293,3.4293,3.5881,3.6838,3.6641,3.7891,3.8846,3.9042,3.918,3.9453,3.9844,4.004,4.0449,4.1191,4.1465,4.1699,4.2128,4.2246,4.2324,4.2421,4.2402,4.2421,4.246,4.2734,4.2734,4.2246,4.2324,4.2382,4.2305,4.2285,4.2246,4.207,4.2089,4.2031,4.1972,4.2031,4.207,4.1894,4.1894,4.2031,4.2148,4.2109,4.207,4.2362,4.2343,4.2324,4.2402,4.2715,4.2793,4.2285,4.2285,4.2519,4.9355,0.0,4.7862,4.7213,0.0,4.6172,4.5869,4.5642,4.3799,4.3467,4.4266,4.4304,4.4668,4.5305,4.5749,4.523,4.408,4.4702,4.4281,4.3108,4.414,4.4845,4.533,4.5973,4.6739,4.7589,4.7611,4.793,4.8466,4.793,4.7801,4.8157,4.7564,4.6926,4.6304,4.6064,4.4921,4.2774,4.316,4.3061,4.2462,4.2207,4.1348,3.9961,0.0,0.0,0.0,0.0,0.0,0.0,0.0,0.0,0.0,0.0,0.0,3.6912,3.5723,3.5212,3.5622,3.5449,3.5862,3.7168,3.7889,3.7791,3.6716,3.8027,3.8984,3.9218,3.9609,4.0117,4.0762,4.084,4.0918,4.1133,4.1328,4.164,4.2011,4.2305,4.254,4.2715,4.2909,4.3047,4.3046,4.3046,4.3026,4.3046,4.3242,4.3321,4.3105,4.3047,4.2987,4.2793,4.2734,4.2636,4.244,4.2402,4.2421,4.2402,4.2402,4.2402,4.2402,4.2402,4.246,4.2676,4.2558,4.2499,4.2929,4.287,4.2812,4.2987,4.3223,4.332,4.3086,4.3026,4.3085,5.0863,4.9741,4.9439,4.8625,4.7515,4.7747,4.8532,4.9416,0.0,0.0,0.0,4.7351,4.7567,4.7792,4.8148,4.7306,4.5727,4.6701,4.6325,4.4924,4.6627,4.7189,4.6787,4.7847,4.8405,4.8484,4.8642,4.9142,4.9919,4.9188,4.9252,4.9954,4.9114,4.8392,4.7989,4.8168,4.6841,4.4078,4.4461,4.4261,4.3303,4.3467,4.2583,4.0449,4.1837,4.1641,3.9667,4.0254,4.0137,3.912,3.8536,3.8234,3.8175,3.7839,3.8076,3.904,3.8604,3.8419,3.8807,3.8536,3.8732,3.9609,4.0723,4.0781,3.9276,3.9883,4.0644,4.1367,4.1035,4.1133,4.1816,4.1894,4.1953,4.2012,4.2324,4.2538,4.2636,4.2969,4.3204,4.3243,4.3476,4.3691,4.3652,4.3652,4.3691,4.3691,4.3652,4.3691,4.3691,4.3633,4.3516,4.3263,4.3183,4.3066,4.2753,4.2675,4.2636,4.2695,4.2675,4.2636,4.2636,4.2636,4.2793,4.3125,4.2851,4.2987,4.3516,4.3398,4.3341,4.3633,4.3691,4.3691,4.3691,4.3691,4.3672,5.2627,5.1416,5.0052,4.8746,4.7679,4.8765,4.9897,5.0884,4.9598,4.9594,5.0459,4.9829,5.0174,5.1202,5.1252,5.0928,5.0349,5.0514,5.007,0.0,4.9423,5.0086,5.0997,5.1232,5.1505,5.1916,5.2588,5.2536,5.2005,5.2996,5.3226,5.2497,5.2528,5.1464,4.9497,5.0319,4.959,4.7004,4.4945,4.3133,4.1621,4.2616,4.2152,4.0211,4.2316,4.2716,4.1015,4.1054,4.1015,4.0839,4.0058,4.0213,4.1444,3.9929,3.962,4.1041,4.0226,3.9648,3.9726,3.998,4.0508,4.1348,4.1933,4.1972,4.1426,4.1797,4.2089,4.2226,4.2148,4.2187,4.2324,4.2363,4.256,4.2852,4.2969,4.3145,4.3437,4.3535,4.3574,4.3574,4.3652,4.3691,4.3691,4.3691,4.3691,4.3691,4.3691,4.3691,4.3691,4.3691,4.3691,4.3633,4.3613,4.3594,4.3417,4.3516,4.3437,4.3516,4.3457,4.3418,4.3418,4.3418,4.3457,4.3574,4.3476,4.3535,4.3691,4.3672,4.3613,4.3691,4.3752,4.3774,4.3794,4.3815,4.3794,5.4354,5.3228,5.2469,5.1432,5.0407,5.1647,5.2489,5.2987,5.3226,5.3,5.2537,5.2434,5.2708,5.3223,5.3247,5.2541,5.1313,5.1773,5.1251,5.0145,5.1193,5.1789,5.1965,5.29,5.3485,5.3723,5.4391,5.4458,5.4098,5.4736,5.4817,5.4331,5.4488,5.3756,5.2399,5.2419,5.1444,4.9332,4.7679,4.6135,4.4749,4.5219,4.5071,4.4113,4.4571,4.4736,4.4689,4.3775,4.3574,4.426,4.3703,4.3704,4.4348,4.2907,4.2365,4.3066,4.1949,4.1269,4.125,4.2109,4.2878,4.3479,4.37,4.382,4.386,4.296,4.2519,4.2754,4.2773,4.2851,4.3106,4.3715,4.3956,4.346,4.4012,4.4234,4.3796,4.3691,4.3691,4.3691,4.3691,4.3691,4.3691,4.3691,4.3691,4.3691,4.3691,4.3711,4.3712,4.3711,4.3711,4.3691,4.3691,4.3691,4.3691,4.3691,4.3691,4.3691,4.3691,4.3691,4.3691,4.3691,4.3691,4.3691,4.3712,4.3691,4.3733,4.3691,4.3691,4.3733,4.4145,4.435,4.4432,4.474,4.478,5.5497,5.4416,5.4397,5.3873,5.3115,5.4004,5.4527,5.4905,5.5791,5.5546,5.4575,5.4707,5.4831,5.4788,5.4812,5.3924,5.2655,5.3229,5.2873,5.1855,5.3457,5.3908,5.3452,5.4744,5.5242,5.5176,5.5736,5.5902,5.5728,5.6023,5.6119,5.5946,5.5747,5.539,5.4827,5.4189,5.3162,5.18,5.087,4.9484,4.7689,4.7868,4.791,4.7549,4.6889,4.6828,4.7468,4.6314,4.6026,4.6957,4.6669,4.6549,4.6743,4.557,4.494,4.5077,4.4014,4.334,4.348,4.4354,4.5133,4.5546,4.5588,4.5712,4.5858,4.4543,4.3739,4.4058,4.422,4.4319,4.4701,4.5434,4.5657,4.476,4.5434,4.5677,4.4801,4.4556,4.4576,4.4576,4.4329,4.4165,4.4083,4.3856,4.3855,4.4124,4.3976,4.389,4.404,4.4017,4.3848,4.373,4.3691,4.3691,4.3691,4.3691,4.3691,4.3691,4.3691,4.3691,4.3691,4.3691,4.3918,4.4062,4.4103,4.4288,4.4391,4.4699,4.4923,4.5249,4.6045,4.6532,4.6819,4.7225,4.6714,5.5521,5.449,5.4502,5.4341,5.4291,5.4403,5.5035,5.5969,5.6164,5.6421,5.6557,5.6218,5.6024,5.6054,5.6042,5.5859,5.5706,5.6314,5.6402,5.6309,5.7125,5.7406,5.7124,5.7456,5.7216,5.6685,5.7297,5.7155,5.6395,5.7646,5.8017,5.7299,5.6517,5.594,5.5477,5.5371,5.5188,5.5024,5.3722,5.1292,4.791,4.8723,4.8783,4.7629,4.8624,4.8644,4.7849,4.7427,4.7406,4.7504,4.7175,4.7391,4.8228,4.7025,4.6631,4.7614,4.6594,4.6103,4.6425,4.6607,4.6876,4.7323,4.7405,4.7406,4.743,4.7225,4.7123,4.7186,4.7186,4.6986,4.725,4.7351,4.7393,4.7092,4.7374,4.735,4.7193,4.7229,4.7251,4.7229,4.6186,4.5413,4.5454,4.4757,4.445,4.5453,4.516,4.4907,4.5206,4.4891,4.4324,4.3928,4.373,4.373,4.373,4.3691,4.3691,4.3691,4.3733,4.3834,4.3894,4.4039,4.4061,4.5534,4.5515,4.5759,4.655,4.7149,4.7818,4.814,4.9051,5.0235,5.0792,5.0879,4.9772,5.66,5.6439,5.6079,5.5931,5.5931,5.5955,5.6408,5.7179,5.7198,5.7349,5.7481,5.7298,5.7198,5.7179,5.7179,5.7223,5.7223,5.743,5.7531,5.7556,5.7801,5.7901,5.7926,5.8234,5.8188,5.7965,5.8527,5.8604,5.8334,5.8848,5.9008,5.8694,5.8306,5.7899,5.7386,5.6913,5.6535,5.6155,5.4823,5.33,5.1908,5.1461,5.132,5.1258,5.1066,5.0872,5.0504,4.9861,4.9783,5.0465,5.0359,5.0711,5.1652,4.993,4.9104,4.9513,4.7996,4.7474,4.8399,4.8847,4.9013,4.8761,4.9624,4.9758,4.8862,4.9135,4.9737,5.0319,4.8836,4.7611,4.7772,4.8764,4.9277,4.8739,4.9317,4.969,4.8905,4.8622,4.8481,4.842,4.8013,4.7645,4.7605,4.7236,4.7133,4.7585,4.7299,4.701,4.6598,4.6139,4.5553,4.472,4.4471,4.4238,4.3867,4.3691,4.3711,4.3855,4.4371,4.476,4.4811,4.6311,4.7349,4.7602,4.8129,4.8735,4.9608,4.9845,5.0291,5.0872,5.1333,5.2257,5.2997,5.3138,5.2296,5.7506,5.7801,5.743,5.7255,5.7236,5.7255,5.7481,5.7876,5.7901,5.7976,5.8127,5.8127,5.8202,5.8278,5.8052,5.7901,5.7901,5.8052,5.8127,5.8152,5.8252,5.8328,5.8378,5.871,5.8911,5.9012,5.9438,5.9809,5.991,5.9759,5.9734,5.9709,5.9583,5.9307,5.8923,5.831,5.7861,5.7388,5.612,5.5509,5.5474,5.4405,5.3751,5.3733,5.2902,5.2579,5.2873,5.203,5.1954,5.2854,5.2954,5.32,5.3691,5.2355,5.1551,5.1455,5.0173,4.9587,5.0313,5.1245,5.141,5.0811,5.2001,5.2368,5.1363,5.148,5.215,5.2587,5.0723,4.9416,4.9595,5.0758,5.1136,5.0461,5.1375,5.1534,5.0704,5.0282,5.0199,5.0141,4.9851,4.9446,4.9179,4.8973,4.8972,4.9423,4.9327,4.9163,4.8274,4.7921,4.7337,4.6311,4.6355,4.5841,4.4492,4.4141,4.4083,4.4686,4.5531,4.6393,4.6392,4.8683,5.0435,5.0291,5.1413,5.2076,5.228,5.2447,5.3109,5.3557,5.4131,5.4799,5.5773,5.5677,5.5677,5.7876,5.7901,5.7876,5.7857,5.7851,5.7876,5.7901,5.8001,5.7951,5.8183,5.8635,5.866,5.8956,5.9301,5.8447,5.7951,5.8001,5.8478,5.8685,5.8761,5.9182,5.9408,5.9433,5.9458,5.9483,5.9508,6.0016,6.0512,6.0984,6.0537,6.0267,6.0217,5.9784,5.9527,5.9408,5.933,5.9375,5.9045,5.7891,5.7635,5.8147,5.7097,5.557,5.4203,5.379,5.379,5.3747,5.3667,5.3691,5.3766,5.3747,5.3785,5.3822,5.3709,5.3578,5.3516,5.3464,5.3086,5.2644,5.3599,5.3994,5.3503,5.439,5.5053,5.422,5.4298,5.4233,5.3684,5.3421,5.3276,5.3622,5.3425,5.3412,5.3231,5.302,5.291,5.2767,5.2559,5.2702,5.2468,5.1673,5.0866,4.9573,4.9097,5.0126,5.0764,5.0432,5.0128,5.067,5.0164,4.9566,4.9249,4.9223,4.8973,4.5915,4.578,4.5944,4.6573,4.7854,4.8558,4.9541,5.0618,5.1885,5.2868,5.3462,5.4018,5.4609,5.5428,5.6391,5.7065,5.7764,5.8472,5.792,5.8857,5.871,5.8403,5.8422,5.8403,5.8409,5.8428,5.8409,5.8604,5.8905,5.893,5.9031,5.9182,5.9207,5.9307,5.9502,5.9463,5.9257,5.8956,5.9131,5.9388,5.9714,5.9915,6.0016,6.006,6.0406,6.0362,6.0136,6.0588,6.0989,6.116,6.0964,6.0688,6.0342,6.0116,5.9859,5.9558,5.9527,5.9527,5.9394,5.8673,5.8418,5.8622,5.7893,5.7111,5.6475,5.6023,5.5435,5.4608,5.4565,5.4565,5.4565,5.4565,5.4788,5.522,5.4825,5.4304,5.3903,5.4116,5.4175,5.409,5.5152,5.5601,5.4967,5.6173,5.6491,5.5598,5.5699,5.5921,5.5721,5.57,5.5996,5.6378,5.5679,5.4874,5.4878,5.4979,5.4801,5.4369,5.4047,5.3845,5.3784,5.3419,5.3173,5.3184,5.329,5.3715,5.4607,5.4542,5.4032,5.3516,5.3157,5.2604,5.1838,5.173,5.1586,5.0596,4.9579,4.9481,4.9929,5.0699,5.1324,5.2161,5.4005,5.5504,5.5597,5.5917,5.6657,5.7457,5.7839,5.8863,5.8885,5.9709,5.9834,5.9539,5.9759,5.9678,5.8956,5.8975,5.8956,5.9062,5.9212,5.9212,5.9514,6.001,6.0035,6.0055,6.0055,6.0035,6.0055,6.0085,6.0437,6.0412,6.006,6.0055,6.0236,6.0543,6.0588,6.0613,6.0638,6.0814,6.0814,6.0693,6.1165,6.1517,6.1667,6.1542,6.124,6.0869,6.0518,6.0116,5.9809,5.9583,5.9527,5.9433,5.9131,5.8961,5.8911,5.8604,5.8328,5.8108,5.7757,5.7081,5.5968,5.5751,5.5751,5.5918,5.5924,5.6166,5.6598,5.6246,5.5701,5.5244,5.5486,5.5548,5.5483,5.6551,5.7005,5.6313,5.7503,5.7851,5.6788,5.7116,5.7367,5.7384,5.7228,5.7536,5.825,5.7561,5.6616,5.6362,5.6419,5.631,5.5792,5.5449,5.5284,5.5301,5.5258,5.5527,5.5973,5.603,5.6267,5.6953,5.6992,5.6506,5.5798,5.5557,5.5355,5.4482,5.4575,5.4731,5.4482,5.4157,5.2782,5.2944,5.336,5.3998,5.4963,5.6979,5.8113,5.8256,5.8778,5.9628,6.0161,6.0387,6.0311,6.006,6.0261,6.0487,6.0286,6.0136,6.0085,5.9508,5.9533,5.9508,5.9834,6.0217,6.0242,6.0613,6.1034,6.1065,6.0989,6.0959,6.111,6.0989,6.1135,6.1135,6.1185,6.1135,6.114,6.1165,6.121,6.121,6.1185,6.1185,6.0839,6.0914,6.1285,6.1768,6.227,6.2606,6.2245,6.1969,6.1723,6.0894,6.0442,6.0317,5.9859,5.9558,5.9533,5.9483,5.9433,5.9502,5.9382,5.9156,5.8761,5.861,5.8315,5.7844,5.7274,5.7118,5.765,5.77,5.7857,5.7732,5.7675,5.775,5.7562,5.7782,5.7442,5.696,5.7883,5.8245,5.7808,5.8732,5.9139,5.8782,5.8749,5.8737,5.8559,5.8234,5.8362,5.9526,5.9334,5.8604,5.7788,5.744,5.7225,5.7013,5.6981,5.7001,5.6933,5.6881,5.7001,5.7041,5.7205,5.7373,5.7532,5.7548,5.7548,5.7413,5.7397,5.7129,5.7188,5.7388,5.7609,5.8212,5.8564,5.6881,5.5678,5.6048,5.6574,5.7431,5.9004,5.9507,5.9726,5.99,6.0658,6.0708,6.0889,6.1009,6.0909,6.109,6.1065,6.0839,6.0663,6.0613,6.0286,6.0658,6.0683,6.0758,6.0914,6.0914,6.104,6.1185,6.119,6.119,6.119,6.119,6.119,6.1291,6.1567,6.1743,6.1793,6.2099,6.2099,6.1793,6.1743,6.1743,6.1768,6.1923,6.2124,6.23,6.245,6.2626,6.2752,6.2626,6.2375,6.1969,6.1647,6.1266,6.0889,6.0362,6.0041,6.001,5.9684,5.9527,5.9527,5.9527,5.9408,5.9238,5.8911,5.8761,5.895,5.8127,5.7732,5.7926,5.7901,5.7901,5.7901,5.7901,5.7901,5.7951,5.8278,5.8377,5.8243,5.8758,5.9135,5.9012,5.9292,5.9606,5.9834,5.9845,5.9978,6.0219,6.0164,6.0368,6.0622,6.0682,6.0119,5.9292,5.9043,5.8693,5.8241,5.8128,5.8095,5.8095,5.8095,5.8338,5.8822,5.8978,5.9109,5.9593,5.9692,5.9717,5.9781,5.9563,5.9911,5.9945,6.0248,5.9994,5.9968,5.9903,5.9039,5.8051,5.8261,5.842,5.9365,6.0129,6.068,6.1065,6.1215,6.1336,6.1361,6.1436,6.1562,6.1562,6.1542,6.1416,6.124,6.119,6.1215,6.0864,6.1165,6.119,6.1316,6.1466,6.1492,6.1617,6.1768,6.1813,6.1793,6.1793,6.1818,6.1793,6.1868,6.2169,6.2275,6.2325,6.2676,6.2626,6.2345,6.23,6.23,6.2325,6.2606,6.2676,6.2576,6.2701,6.2802,6.2802,6.2802,6.2626,6.2325,6.2119,6.1843,6.1466,6.0939,6.0543,6.0292,5.9966,5.9709,5.9533,5.9527,5.9527,5.9458,5.9182,5.9187,5.9433,5.883,5.8478,5.8504,5.8478,5.8504,5.8478,5.8504,5.8504,5.8554,5.878,5.8987,5.9037,5.9263,5.9527,5.9508,5.9684,5.9915,6.0267,6.0442,6.0889,6.1366,6.1246,6.1361,6.1672,6.1567,6.1306,6.1062,6.056,6.017,5.9637,5.9576,5.9572,5.9608,5.9588,5.9859,6.0201,6.0406,6.0567,6.1111,6.119,6.119,6.119,6.11,6.1215,6.1215,6.0985,6.087,6.1025,6.0995,6.0919,6.0517,6.0318,6.0233,6.0551,6.1016,6.1492,6.1818,6.2044,6.2069,6.2119,6.2169,6.2245,6.2124,6.2019,6.2069,6.2019,6.1948,6.1923,6.126,6.1266,6.1291,6.1617,6.2019,6.2044,6.2295,6.2701,6.2727,6.2701,6.2727,6.2651,6.2681,6.2752,6.2701,6.2752,6.2852,6.2902,6.2927,6.2877,6.2852,6.2827,6.2752,6.2777,6.2601,6.232,6.2601,6.2802,6.2802,6.2802,6.2802,6.2701,6.23,6.2049,6.1923,6.1492,6.0989,6.0618,6.0367,6.0016,5.9628,5.9527,5.9527,5.9527,5.9458,5.9458,5.9477,5.9458,5.9483,5.9483,5.9377,5.9332,5.9458,5.9508,5.9483,5.9382,5.9483,5.9558,5.9533,5.9608,5.9703,5.9804,6.0136,6.0367,6.0568,6.0989,6.1466,6.1943,6.1667,6.1743,6.24,6.2325,6.2234,6.2531,6.1807,6.1311,6.1276,6.1246,6.1186,6.1216,6.1296,6.1296,6.1296,6.1296,6.1356,6.1396,6.1441,6.1492,6.1492,6.1567,6.1366,6.1416,6.1592,6.1642,6.1768,6.1466,6.1441,6.1597,6.1446,6.1341,6.1416,6.1793,6.2069,6.24,6.2576,6.2676,6.2701,6.2626,6.2626,6.2551,6.2576,6.2777,6.2701,6.2526,6.24,6.2019,6.235,6.2395,6.245,6.2576,6.2601,6.2651,6.2802,6.2802,6.2827,6.2827,6.2802,6.2852,6.2827,6.2852,6.3028,6.3375,6.345,6.3475,6.345,6.3454,6.3178,6.2877,6.2802,6.2752,6.2626,6.2701,6.2802,6.2802,6.2802,6.2802,6.2802,6.2651,6.2551,6.2501,6.2044,6.1743,6.1441,6.0668,6.0267,6.0085,5.9709,5.9527,5.9527,5.9552,5.9552,5.9558,5.9885,5.9885,5.9533,5.9527,5.9527,5.9603,5.9885,5.996,5.9709,5.989,6.0091,6.0111,6.0066,6.0286,6.0708,6.0839,6.1115,6.1542,6.1692,6.2069,6.2446,6.245,6.245,6.2727,6.2676,6.2676,6.2727,6.245,6.2275,6.23,6.2395,6.2375,6.2375,6.2325,6.23,6.2275,6.2275,6.2275,6.2295,6.2295,6.227,6.2169,6.2174,6.2119,6.23,6.245,6.2425,6.2325,6.2019,6.1969,6.23,6.2225,6.1999,6.2149,6.2425,6.2576,6.2731,6.2701,6.2752,6.2777,6.2752,6.2802,6.2802,6.2802,6.2802,6.2802,6.2701,6.2676,6.2526,6.2802,6.2802,6.2802,6.2802,6.2802,6.2802,6.2802,6.2802,6.2952,6.3128,6.3178,6.3299,6.348,6.3525,6.3722,6.3998,6.3822,6.3676,6.3626,6.34,6.3103,6.2902,6.3003,6.3053,6.2827,6.2802,6.2802,6.2802,6.2802,6.2802,6.2802,6.2802,6.2802,6.2756,6.2526,6.2199,6.1943,6.1316,6.0919,6.0663,6.0406,6.0281,6.0231,6.0231,6.0205,6.0261,6.0512,6.0512,6.0286,6.0211,6.0211,6.0256,6.0487,6.0537,6.0236,6.0537,6.0688,6.0688,6.0688,6.0839,6.114,6.1361,6.1667,6.1969,6.2195,6.2526,6.2727,6.2802,6.2802,6.2802,6.2802,6.2802,6.2802,6.2802,6.2802,6.2802,6.2752,6.2802,6.2802,6.2802,6.2802,6.2802,6.2802,6.2802,6.2777,6.2701,6.2701,6.2727,6.2802,6.2802,6.2802,6.2802,6.2701,6.2626,6.2375,6.227,6.2601,6.2626,6.245,6.2551,6.2802,6.2802,6.2802,6.2802,6.2802,6.2802,6.2802,6.2802,6.2802,6.2802,6.2802,6.2802,6.2802,6.2802,6.2802,6.2802,6.2802,6.2802,6.2802,6.2802,6.2877,6.2902,6.2852,6.3199,6.3651,6.3726,6.3898,6.4475,6.4274,6.445,6.4425,6.4174,6.3948,6.3751,6.345,6.3149,6.3053,6.34,6.3279,6.2902,6.2852,6.2852,6.2852,6.2802,6.2802,6.2802,6.2802,6.2802,6.2802,6.2777,6.2526,6.222,6.1943,6.1617,6.1291,6.111,6.0984,6.0984,6.0984,6.1085,6.1165,6.1266,6.1266,6.1386,6.1266,6.1085,6.1135,6.121,6.121,6.116,6.1185,6.1285,6.1285,6.1266,6.1361,6.1537,6.1893,6.2069,6.222,6.2501,6.2752,6.2802,6.2802,6.2802,6.2802,6.2802,6.2802,6.2802,6.2802,6.2802,6.2802,6.2802,6.2802,6.2802,6.2802,6.2802,6.2802,6.2802,6.2802,6.2802,6.2802,6.2802,6.2802,6.2802,6.2802,6.2802,6.2802,6.2802,6.2777,6.2752,6.2701,6.2777,6.2752,6.2676,6.2676,6.2802,6.2802,6.2802,6.2802,6.2802,6.2802,6.2802,6.2802,6.2802,6.2802,6.2802,6.2802,6.2802,6.2802,6.2802,6.2802,6.2802,6.2802,6.2802,6.2827,6.3078,6.345,6.3003,6.345,6.4073,6.3923,6.4073,6.4526,6.4601,6.45,6.4626,6.4752,6.4752,6.4325,6.4249,6.3873,6.3601,6.3701,6.3354,6.3078,6.3324,6.3249,6.2952,6.2877,6.2802,6.2802,6.2802,6.2802,6.2802,6.2802,6.2756,6.2576,6.2245,6.1994,6.1818,6.1486,6.1291,6.1291,6.1266,6.1466,6.1768,6.1818,6.2044,6.2169,6.1697,6.1316,6.1386,6.1662,6.1667,6.1466,6.1642,6.1818,6.1843,6.1868,6.2019,6.2325,6.2425,6.2626,6.2626,6.2727,6.2827,6.2802,6.2802,6.2902,6.2877,6.2827,6.2827,6.2827,6.2852,6.2852,6.2827,6.2802,6.2802,6.2802,6.2802,6.2802,6.2802,6.2802,6.2802,6.2802,6.2802,6.2802,6.2802,6.2802,6.2802,6.2802,6.2802,6.2802,6.2802,6.2802,6.2802,6.2802,6.2802,6.2802,6.2802,6.2802,6.2802,6.2802,6.2802,6.2802,6.2802,6.2802,6.2802,6.2802,6.2802,6.2802,6.2802,6.2802,6.2802,6.3103,6.3576,6.3324,6.3203,6.3274,6.3475,6.3626,6.3676,6.3651,6.4053,6.4655,6.453,6.4756,6.5233,6.5233,6.5279,6.5229,6.5229,6.5003,6.45,6.4249,6.4099,6.4149,6.4073,6.3873,6.3676,6.3902,6.3726,6.3375,6.3178,6.3103,6.2827,6.2802,6.2802,6.2802,6.2802,6.2802,6.2752,6.2551,6.2375,6.23,6.2119,6.1943,6.1943,6.1969,6.2099,6.235,6.2395,6.2526,6.2576,6.225,6.1943,6.1969,6.222,6.2195,6.2074,6.2149,6.2375,6.2375,6.2375,6.2476,6.2777,6.2802,6.2802,6.2902,6.3028,6.3203,6.3299,6.3425,6.3525,6.3254,6.3229,6.3128,6.2902,6.3053,6.3224,6.3178,6.2978,6.2802,6.2802,6.2802,6.2802,6.2802,6.2802,6.2802,6.2802,6.2802,6.2802,6.2802,6.2802,6.2802,6.2802,6.2802,6.2802,6.2802,6.2802,6.2802,6.2802,6.2802,6.2802,6.2802,6.2802,6.2802,6.2802,6.2802,6.2802,6.2802,6.2802,6.2802,6.2802,6.2802,6.2802,6.2802,6.2802,6.2802,6.3646,6.4471,6.4023,6.3822,6.3877,6.4274,6.4199,6.3948,6.43,6.4676,6.5229,6.5304,6.5434,6.5961,6.6015,6.6086,6.5911,6.5358,6.4852,6.4701,6.4354,6.44,6.4576,6.4726,6.4802,6.4726,6.4651,6.43,6.3802,6.3651,6.3299,6.2902,6.2802,6.2802,6.2802,6.2802,6.2802,6.2777,6.2752,6.2727,6.2752,6.2701,6.2676,6.2651,6.2651,6.2651,6.2701,6.2727,6.2777,6.2802,6.2802,6.2802,6.2802,6.2802,6.2802,6.2777,6.2727,6.2701,6.2752,6.2827,6.2927,6.2852,6.2927,6.2952,6.3078,6.3375,6.3626,6.3877,6.4073,6.4174,6.3898,6.3822,6.3525,6.3224,6.3425,6.3621,6.35,6.3153,6.3053,6.2978,6.2902,6.2802,6.2802,6.2802,6.2802,6.2802,6.2827,6.2827,6.2827,6.2802,6.2802,6.2802,6.2802,6.2802,6.2802,6.2902,6.2877,6.3028,6.2978,6.2952,6.2927,6.2827,6.2852,6.2802,6.2802,6.2802,6.2802,6.2802,6.2802,6.2802,6.2802,6.2802,6.2802,6.2802,6.2802,6.4346,6.4475,6.4421,6.435,6.4375,6.4475,6.4496,6.4375,6.45,6.4802,6.5283,6.5329,6.5634,6.6011,6.6112,6.6112,6.5911,6.5308,6.4978,6.5082,6.4957,6.5032,6.5179,6.5405,6.566,6.571,6.5383,6.4701,6.3998,6.3651,6.3475,6.2952,6.2802,6.2802,6.2802,6.2802,6.2802,6.2802,6.2802,6.2802,6.2802,6.2802,6.2802,6.2802,6.2802,6.2802,6.2802,6.2802,6.2802,6.2802,6.2802,6.2827,6.2827,6.2827,6.2852,6.2802,6.2802,6.2802,6.2852,6.3274,6.3203,6.3053,6.3254,6.3525,6.3576,6.3701,6.4073,6.435,6.45,6.4521,6.4396,6.4375,6.4099,6.3776,6.3601,6.3626,6.3329,6.3354,6.3576,6.3626,6.3254,6.2927,6.3078,6.3128,6.3103,6.3028,6.2927,6.2952,6.3003,6.2902,6.2802,6.2802,6.2802,6.2802,6.2802,6.2927,6.3053,6.335,6.3375,6.3299,6.3203,6.2978,6.2902,6.3128,6.2978,6.2802,6.2802,6.2827,6.2802,6.2802,6.2802,6.2827,6.2802,6.2802,6.2802,6.4827,6.5304,6.5028,6.4927,6.4978,6.5208,6.5179,6.4957,6.5204,6.5459,6.566,6.5735,6.5814,6.604,6.6112,6.6112,6.5911,6.5634,6.5484,6.5685,6.5459,6.5484,6.5584,6.576,6.5886,6.5961,6.5785,6.5308,6.4555,6.4249,6.3802,6.3324,6.3003,6.2802,6.2802,6.2802,6.2802,6.2802,6.2802,6.2802,6.2827,6.2827,6.2827,6.2827,6.2827,6.2802,6.2802,6.2802,6.2802,6.2877,6.3103,6.3053,6.3003,6.3053,6.3149,6.2902,6.2827,6.2827,6.2902,6.335,6.3525,6.34,6.3776,6.4073,6.4199,6.44,6.4726,6.5153,6.5304,6.5204,6.4953,6.4902,6.4651,6.4249,6.4099,6.4073,6.4053,6.4078,6.4203,6.4329,6.4103,6.3852,6.3726,6.3676,6.3525,6.3324,6.3103,6.3128,6.3229,6.3153,6.3053,6.3053,6.3128,6.3274,6.3299,6.34,6.353,6.3776,6.3797,6.3701,6.3676,6.3525,6.3601,6.3822,6.35,6.3053,6.2852,6.2877,6.2827,6.2852,6.2902,6.2927,6.2852,6.2802,6.2852,6.5329,6.6065,6.5634,6.5459,6.5534,6.5911,6.5785,6.5459,6.5835,6.5986,6.5961,6.6015,6.6086,6.6112,6.6112,6.6112,6.6112,6.6061,6.6061,6.5986,6.571,6.5735,6.586,6.5785,6.5735,6.6061,6.6061,6.5835,6.5208,6.4827,6.4325,6.3701,6.3174,6.2877,6.2852,6.2802,6.2802,6.2802,6.2802,6.2827,6.2952,6.2978,6.3053,6.3099,6.3028,6.3053,6.3254,6.3103,6.3174,6.3324,6.355,6.3651,6.335,6.3601,6.3626,6.3224,6.3053,6.2978,6.3153,6.3751,6.4103,6.3923,6.435,6.4576,6.4777,6.5103,6.5584,6.6011,6.6036,6.5886,6.5509,6.5354,6.5028,6.4626,6.445,6.4547,6.4576,6.4651,6.4802,6.4877,6.4852,6.4651,6.4375,6.4149,6.3973,6.3948,6.3747,6.3701,6.3776,6.3601,6.35,6.35,6.3576,6.3776,6.3923,6.4073,6.4228,6.4479,6.4325,6.4124,6.4174,6.4199,6.43,6.4274,6.3948,6.35,6.3203,6.3153,6.34,6.3475,6.3249,6.3149,6.3199,6.3128,6.3078,6.5965,6.6112,6.6036,6.599,6.6011,6.6065,6.581,6.5434,6.5886,6.581,6.5559,6.5886,6.6112,6.6112,6.6112,6.6112,6.6112,6.6112,6.6112,6.6065,6.5986,6.5961,6.6065,6.6086,6.5961,6.6112,6.6112,6.5785,6.5434,6.5254,6.4701,6.3952,6.3701,6.3375,6.3053,6.3078,6.2802,6.2852,6.2877,6.3103,6.35,6.3576,6.3802,6.3973,6.3873,6.3751,6.3977,6.3776,6.3751,6.4149,6.43,6.435,6.4325,6.4325,6.4375,6.4174,6.3923,6.3601,6.3726,6.4379,6.4777,6.4576,6.4902,6.5132,6.5308,6.5609,6.5961,6.6061,6.6112,6.6086,6.586,6.5584,6.5082,6.4802,6.4651,6.4425,6.435,6.4957,6.5153,6.5409,6.5383,6.5057,6.4752,6.4576,6.4425,6.4421,6.4421,6.4371,6.4274,6.4073,6.3973,6.3927,6.4103,6.435,6.4505,6.4676,6.4902,6.5157,6.4852,6.4576,6.4752,6.4827,6.4601,6.4526,6.4274,6.4274,6.4254,6.4254,6.43,6.4124,6.3852,6.3726,6.3651,6.355,6.345,6.6112,6.6112,6.6112,6.6112,6.6112,6.6112,6.5965,6.5835,6.599,6.5986,6.581,6.5965,6.6112,6.6112,6.6112,6.6112,6.6112,6.6112,6.6112,6.6112,6.6112,6.6112,6.6112,6.6112,6.6112,6.6112,6.6112,6.6061,6.571,6.5409,6.4978,6.4651,6.43,6.4073,6.3651,6.3726,6.3776,6.3776,6.3802,6.3877,6.4073,6.4195,6.4295,6.4496,6.4274,6.4325,6.44,6.4346,6.4249,6.4572,6.4726,6.4777,6.4676,6.4726,6.4852,6.4496,6.4601,6.4475,6.4325,6.4927,6.5078,6.5204,6.5409,6.5735,6.581,6.5914,6.6112,6.6112,6.6112,6.6112,6.6112,6.5911,6.571,6.5409,6.5003,6.5007,6.4856,6.4982,6.5358,6.566,6.5864,6.5534,6.5233,6.5103,6.5053,6.5179,6.4978,6.4726,6.4651,6.45,6.4425,6.4375,6.4626,6.4927,6.5107,6.5283,6.5484,6.5634,6.5283,6.5132,6.5409,6.5434,6.5179,6.5254,6.5333,6.5358,6.5333,6.4978,6.4601,6.4526,6.4475,6.435,6.4224,6.4124,6.3948,6.6112,6.6112,6.6112,6.6112,6.6112,6.6112,6.609,6.6112,6.6112,6.6112,6.6112,6.6112,6.6112,6.6112,6.6112,6.6112,6.6112,6.6112,6.6112,6.6112,6.6112,6.6112,6.6112,6.6112,6.6112,6.6112,6.6112,6.6086,6.5961,6.571,6.5459,6.5304,6.4852,6.4576,6.4475,6.4375,6.435,6.435,6.435,6.4475,6.4651,6.4676,6.4802,6.4852,6.4802,6.4752,6.4852,6.4726,6.4701,6.5053,6.5283,6.5333,6.5153,6.5329,6.5354,6.5153,6.5283,6.5283,6.5132,6.5333,6.5459,6.5634,6.5785,6.6036,6.6061,6.6112,6.6112,6.6112,6.6112,6.6112,6.6086,6.5986,6.5735,6.5559,6.5434,6.566,6.5785,6.566,6.5609,6.5835,6.599,6.604,6.5785,6.5634,6.566,6.586,6.5634,6.5204,6.5078,6.5028,6.5053,6.5032,6.5183,6.5459,6.5559,6.5785,6.6036,6.6036,6.5685,6.5584,6.5785,6.5835,6.566,6.586,6.6086,6.5986,6.571,6.5279,6.4902,6.5103,6.5183,6.4927,6.4777,6.4676,6.445,6.6112,6.6112,6.6112,6.6112,6.6112,6.6112,6.6112,6.6112,6.6112,6.6176,6.6305,6.6112,6.6133,6.6176,6.6176,6.6112,6.6112,6.6112,6.6112,6.6112,6.6112,6.6112,6.6112,6.6112,6.6112,6.6112,6.6112,6.6112,6.6112,6.6011,6.5685,6.5333,6.5283,6.4953,6.4777,6.4777,6.4752,6.4752,6.4726,6.4902,6.5128,6.5283,6.5434,6.571,6.5534,6.5459,6.5889,6.5484,6.5383,6.576,6.586,6.5936,6.576,6.5835,6.5785,6.581,6.581,6.5835,6.581,6.581,6.5986,6.6015,6.6065,6.6112,6.6112,6.6112,6.6112,6.6112,6.6112,6.6112,6.5961,6.5735,6.566,6.5634,6.5634,6.5634,6.581,6.5939,6.5936,6.6061,6.6112,6.6112,6.6112,6.5911,6.5835,6.6011,6.6036,6.5609,6.5685,6.5685,6.5785,6.5835,6.5886,6.5986,6.5986,6.6112,6.6112,6.6112,6.5911,6.5911,6.6011,6.6011,6.5936,6.6011,6.6112,6.6112,6.6086,6.5735,6.5584,6.586,6.5886,6.5509,6.5157,6.4978,6.4777,6.6112,6.6112,6.6112,6.6112,6.6112,6.6112,6.6112,6.6112,6.6112,6.6626,6.7218,6.6562,6.6583,6.6899,6.6369,6.6112,6.6112,6.6112,6.6112,6.6112,6.6112,6.6112,6.6112,6.6112,6.6112,6.6112,6.6112,6.6112,6.6112,6.6112,6.6036,6.5835,6.5735,6.571,6.5509,6.5358,6.5383,6.5409,6.5434,6.5609,6.5685,6.5785,6.5886,6.6036,6.5965,6.5886,6.6015,6.5911,6.5961,6.604,6.609,6.6112,6.6112,6.6112,6.6112,6.6112,6.6112,6.6112,6.6112,6.6112,6.6112,6.6112,6.6112,6.6112,6.6112,6.6112,6.6112,6.6112,6.6112,6.6112,6.6061,6.5936,6.586,6.5789,6.576,6.5735,6.581,6.599,6.6065,6.6112,6.6112,6.6112,6.6112,6.6086,6.6086,6.6112,6.6112,6.6112,6.6112,6.6112,6.6112,6.6112,6.6112,6.6112,6.6112,6.6112,6.6112,6.6112,6.6112,6.6112,6.6112,6.6112,6.6061,6.6112,6.6112,6.6112,6.6112,6.6112,6.6112,6.609,6.6065,6.5939,6.5634,6.5283,6.5132,6.6112,6.6112,6.6112,6.6112,6.6112,6.6112,6.6112,6.6112,6.6112,6.6583,6.743,6.654,6.6583,6.7027,6.6622,6.6112,6.6112,6.6112,6.6112,6.6112,6.6112,6.6112,6.6112,6.6112,6.6112,6.6112,6.6112,6.6112,6.6112,6.6112,6.6086,6.6061,6.6112,6.6061,6.6061,6.6112,6.6112,6.6112,6.6112,6.6112,6.6065,6.6065,6.6065,6.6112,6.604,6.604,6.609,6.6036,6.6061,6.6065,6.6112,6.6112,6.6112,6.6112,6.6112,6.6112,6.6112,6.6112,6.6112,6.6112,6.6112,6.6112,6.6112,6.6112,6.6112,6.6112,6.6112,6.6112,6.6112,6.6112,6.6112,6.6036,6.599,6.5961,6.5986,6.5961,6.5986,6.6065,6.609,6.6112,6.6112,6.6112,6.6112,6.6112,6.6112,6.6112,6.6112,6.6112,6.6112,6.6112,6.6112,6.6112,6.6112,6.6112,6.6112,6.6112,6.6112,6.6112,6.6112,6.6112,6.6112,6.6112,6.6112,6.6112,6.6112,6.6112,6.6112,6.6112,6.6112,6.6112,6.6065,6.6065,6.599,6.5685,6.5634,6.6112,6.6112,6.6112,6.6112,6.6112,6.6112,6.6112,6.6112,6.6112,6.6262,6.654,6.6219,6.6348,6.6519,6.6494,6.6262,6.6348,6.6219,6.6112,6.6112,6.6112,6.6112,6.6112,6.6112,6.6112,6.6112,6.6112,6.6112,6.6112,6.6112,6.6112,6.6112,6.6112,6.6112,6.6112,6.6112,6.6112,6.6112,6.6112,6.6112,6.6112,6.6112,6.6112,6.6112,6.6112,6.6112,6.6112,6.6112,6.6112,6.6112,6.6112,6.6112,6.6112,6.6112,6.6112,6.6112,6.6112,6.6112,6.6112,6.6112,6.6112,6.6112,6.6112,6.6112,6.6112,6.6112,6.6112,6.6112,6.6112,6.6112,6.6112,6.6112,6.6112,6.6112,6.6112,6.6112,6.6112,6.6112,6.6112,6.6112,6.6112,6.6112,6.6112,6.6112,6.6112,6.6112,6.6112,6.6112,6.6112,6.6112,6.6112,6.6112,6.6112,6.6112,6.6112,6.6112,6.6112,6.6112,6.6112,6.6112,6.6112,6.6112,6.6112,6.6112,6.6112,6.6112,6.6112,6.6112,6.6112,6.6112,6.6112,6.609,6.6065,6.604,6.5914,6.6112,6.6112,6.6112,6.6112,6.6112,6.6112,6.6112,6.6112,6.6155,6.6579,6.709,6.6558,6.7277,6.7805,6.7048,6.6643,6.7154,6.6283,6.6112,6.6112,6.6112,6.6112,6.6112,6.6112,6.6112,6.6112,6.6112,6.6112,6.6112,6.6112,6.6112,6.6112,6.6112,6.6112,6.6112,6.6112,6.6112,6.6112,6.6112,6.6112,6.6112,6.6112,6.6112,6.6112,6.6112,6.6112,6.6112,6.6112,6.6112,6.6112,6.6112,6.6112,6.6112,6.6112,6.6112,6.6112,6.6112,6.6112,6.6112,6.6112,6.6112,6.6112,6.6112,6.6112,6.6112,6.6112,6.6112,6.6112,6.6112,6.6112,6.6112,6.6112,6.6112,6.6112,6.6112,6.6112,6.6112,6.6112,6.6112,6.6112,6.6112,6.6112,6.6112,6.6112,6.6112,6.6112,6.6112,6.6112,6.6112,6.6112,6.6112,6.6112,6.6112,6.6112,6.6112,6.6112,6.6112,6.6112,6.6112,6.6112,6.6112,6.6112,6.6112,6.6112,6.6112,6.6112,6.6112,6.6112,6.6112,6.6112,6.6112,6.6112,6.609,6.609,6.604,6.6112,6.6112,6.6112,6.6412,6.6665,6.6305,6.6112,6.6283,6.6984,6.7552,6.7387,6.7319,6.8016,6.8701,6.833,6.7324,6.8062,6.7281,6.6262,6.6219,6.6112,6.6112,6.6112,6.6112,6.6112,6.6112,6.6112,6.6112,6.6112,6.6112,6.6112,6.6112,6.6112,6.6112,6.6112,6.6112,6.6112,6.6112,6.6112,6.6112,6.6112,6.6112,6.6112,6.6112,6.6112,6.6112,6.6112,6.6112,6.6112,6.6112,6.6112,6.6112,6.6112,6.6112,6.6112,6.6112,6.6112,6.6112,6.6112,6.6112,6.6112,6.6112,6.6112,6.6112,6.6112,6.6112,6.6112,6.6112,6.6112,6.6112,6.6112,6.6112,6.6112,6.6112,6.6112,6.6112,6.6112,6.6112,6.6112,6.6112,6.6112,6.6112,6.6112,6.6112,6.6112,6.6112,6.6112,6.6112,6.6112,6.6112,6.6112,6.6112,6.6112,6.6112,6.6112,6.6112,6.6112,6.6112,6.6112,6.6112,6.6112,6.6112,6.6112,6.6112,6.6112,6.6112,6.6112,6.6112,6.6112,6.6112,6.6112,6.6112,6.6112,6.6112,6.6112,6.6112,6.6112,6.6155,6.692,6.7747,6.7069,6.6515,6.6429,6.8784,6.8456,6.6433,6.893,6.9551,6.8831,6.9468,6.9386,6.8664,6.8351,6.7599,6.675,6.6665,6.6472,6.6326,6.6219,6.6133,6.6112,6.6112,6.6112,6.6112,6.6112,6.6112,6.6112,6.6112,6.6112,6.6112,6.6112,6.6112,6.6112,6.6112,6.6112,6.6112,6.6112,6.6112,6.6112,6.6112,6.6112,6.6112,6.6112,6.6112,6.6112,6.6112,6.6112,6.6112,6.6112,6.6112,6.6112,6.6112,6.6112,6.6112,6.6112,6.6112,6.6112,6.6112,6.6112,6.6112,6.6112,6.6112,6.6112,6.6112,6.6112,6.6112,6.6112,6.6112,6.6112,6.6112,6.6112,6.6112,6.6112,6.6112,6.6112,6.6112,6.6112,6.6112,6.6112,6.6112,6.6112,6.6112,6.6112,6.6112,6.6112,6.6112,6.6112,6.6112,6.6112,6.6112,6.6112,6.6112,6.6112,6.6112,6.6112,6.6112,6.6112,6.6112,6.6112,6.6112,6.6112,6.6112,6.6112,6.6112,6.6112,6.6112,6.6112,6.6112,6.6112,6.6112,6.6112,6.6197,6.7133,6.7742,6.8314,6.9674,6.9303,6.7852,6.8456,6.8079,6.7641,6.9324,7.0371,7.086,7.0351,7.0473,7.0351,7.0024,6.9468,6.868,6.7679,6.7578,6.7175,6.6579,6.6262,6.6112,6.6112,6.6112,6.6112,6.6112,6.6112,6.6112,6.6112,6.6112,6.6112,6.6112,6.6112,6.6112,6.6112,6.6112,6.6112,6.6112,6.6112,6.6112,6.6112,6.6112,6.6112,6.6112,6.6112,6.6112,6.6112,6.6112,6.6112,6.6112,6.6112,6.6112,6.6112,6.6112,6.6112,6.6112,6.6112,6.6112,6.6112,6.6112,6.6112,6.6112,6.6112,6.6112,6.6112,6.6112,6.6112,6.6112,6.6112,6.6112,6.6112,6.6112,6.6112,6.6112,6.6112,6.6112,6.6112,6.6112,6.6112,6.6112,6.6112,6.6112,6.6112,6.6112,6.6112,6.6112,6.6112,6.6112,6.6112,6.6112,6.6112,6.6112,6.6112,6.6112,6.6112,6.6112,6.6112,6.6112,6.6112,6.6112,6.6112,6.6112,6.6112,6.6112,6.6112,6.6112,6.6112,6.6112,6.6112,6.6112,6.6112,6.7695,6.7658,6.9167,6.9929,7.0359,7.178,7.1318,6.99,7.0167,7.0009,6.9158,7.088,7.1767,7.1855,7.1774,7.1814,7.1747,7.1163,7.0514,6.9551,6.8847,6.8204,6.762,6.6878,6.624,6.6112,6.6112,6.6112,6.6112,6.6112,6.6112,6.6112,6.6112,6.6112,6.6112,6.6112,6.6112,6.6112,6.6112,6.6112,6.6112,6.6112,6.6112,6.6112,6.6112,6.6112,6.6112,6.6112,6.6112,6.6112,6.6112,6.6112,6.6112,6.6112,6.6112,6.6112,6.6112,6.6112,6.6112,6.6112,6.6112,6.6112,6.6112,6.6112,6.6112,6.6112,6.6112,6.6112,6.6112,6.6112,6.6112,6.6112,6.6112,6.6112,6.6112,6.6112,6.6112,6.6112,6.6112,6.6112,6.6112,6.6112,6.6112,6.6112,6.6112,6.6112,6.6112,6.6112,6.6112,6.6112,6.6112,6.6112,6.6112,6.6112,6.6112,6.6112,6.6112,6.6112,6.6112,6.6112,6.6112,6.6112,6.6112,6.6112,6.6112,6.6112,6.6112,6.6112,6.6112,6.6112,6.6112,6.6112,6.6112,6.6112,6.6112,7.0189,6.9792,7.1798,7.277,7.3278,7.3365,7.2873,7.2334,7.3162,7.256,7.1002,7.2818,7.3154,7.2719,7.3016,7.2917,7.2691,7.2214,7.1774,7.0371,6.9571,6.8956,6.8184,6.7052,6.6519,6.624,6.6112,6.6112,6.6112,6.6112,6.6112,6.6112,6.6112,6.6112,6.6112,6.6112,6.6112,6.6112,6.6112,6.6112,6.6112,6.6112,6.6112,6.6112,6.6112,6.6112,6.6112,6.6112,6.6112,6.6112,6.6112,6.6112,6.6112,6.6112,6.6112,6.6112,6.6112,6.6112,6.6112,6.6112,6.6112,6.6112,6.6112,6.6112,6.6112,6.6112,6.6112,6.6112,6.6112,6.6112,6.6112,6.6112,6.6112,6.6112,6.6112,6.6112,6.6112,6.6112,6.6112,6.6112,6.6112,6.6112,6.6112,6.6112,6.6112,6.6112,6.6112,6.6112,6.6112,6.6112,6.6112,6.6112,6.6112,6.6112,6.6112,6.6112,6.6112,6.6112,6.6112,6.6112,6.6112,6.6112,6.6112,6.6112,6.6112,6.6112,6.6112,6.6112,6.6112,6.6112,6.6112,6.6112,6.6112,6.6112,6.6112,7.1048,7.187,7.3332,7.4252,7.4703,7.4742,7.4259,7.3555,7.3838,7.3095,7.2075,7.3114,7.3838,7.3555,7.374,7.3633,7.3516,7.3213,7.328,7.2501,7.1392,7.0228,6.9447,6.8163,6.7197,6.6369,6.6112,6.6112,6.6112,6.6112,6.6112,6.6112,6.6112,6.6112,6.6112,6.6112,6.6112,6.6112,6.6112,6.6112,6.6112,6.6112,6.6112,6.6112,6.6112,6.6112,6.6112,6.6112,6.6112,6.6112,6.6112,6.6112,6.6112,6.6112,6.6112,6.6112,6.6112,6.6112,6.6112,6.6112,6.6112,6.6112,6.6112,6.6112,6.6112,6.6112,6.6112,6.6112,6.6112,6.6112,6.6112,6.6112,6.6112,6.6112,6.6112,6.6112,6.6112,6.6112,6.6112,6.6112,6.6112,6.6112,6.6112,6.6112,6.6112,6.6112,6.6112,6.6112,6.6112,6.6112,6.6112,6.6112,6.6112,6.6112,6.6112,6.6112,6.6112,6.6112,6.6112,6.6112,6.6112,6.6112,6.6112,6.6112,6.6112,6.6112,6.6112,6.6112,6.6112,6.6112,6.6112,6.6112,6.6112,6.6112,6.6112,7.3633,7.4127,7.5307,7.5989,7.6206,7.6273,7.5611,7.4664,7.4528,7.3898,7.3055,7.3633,7.3994,7.3994,7.3994,7.4033,7.4033,7.3974,7.3818,7.3516,7.2917,7.1987,7.0731,6.9282,6.8383,6.74,6.6387,6.6112,6.6262,6.6112,6.6112,6.6197,6.6176,6.6155,6.6133,6.6112,6.6112,6.6112,6.6112,6.6112,6.6112,6.6112,6.6112,6.6112,6.6112,6.6112,6.6112,6.6112,6.6112,6.6112,6.6112,6.6112,6.6112,6.6112,6.6112,6.6112,6.6112,6.6112,6.6112,6.6112,6.6112,6.6112,6.6112,6.6112,6.6112,6.6112,6.6112,6.6112,6.6112,6.6112,6.6112,6.6112,6.6112,6.6112,6.6112,6.6112,6.6112,6.6112,6.6112,6.6112,6.6112,6.6112,6.6112,6.6112,6.6112,6.6112,6.6112,6.6155,6.6155,6.6326,6.6262,6.6326,6.6455,6.624,6.6112,6.6112,6.6112,6.6112,6.6283,6.6197,6.624,6.6155,6.6112,6.6197,6.6197,6.6112,6.6112,6.6112,6.6112,6.6112,6.6112,6.6112,6.6112,6.6112,6.6112,7.6581,7.6375,7.728,7.766,7.7604,7.7568,7.6704,7.5516,7.5345,7.4914,7.4188,7.4141,7.413,7.4013,7.3994,7.4072,7.4111,7.4052,7.4033,7.3946,7.3193,7.2585,7.1559,7.0202,6.9022,6.7859,6.6746,6.6703,6.6916,6.6771,6.6643,6.6472,6.6365,6.628,6.6176,6.6112,6.6112,6.6112,6.6112,6.6112,6.6112,6.6155,6.6283,6.6283,6.6197,6.6197,6.6283,6.6176,6.6176,6.6112,6.6112,6.6112,6.6112,6.6112,6.6112,6.6112,6.6112,6.6112,6.6112,6.6112,6.6112,6.6112,6.6112,6.6112,6.6112,6.6112,6.6112,6.6155,6.6155,6.6133,6.6133,6.6112,6.6112,6.6155,6.6155,6.6155,6.6155,6.6155,6.6155,6.6133,6.6112,6.6112,6.6112,6.6112,6.6112,6.6112,6.6176,6.6219,6.6348,6.669,6.6861,6.7031,6.7218,6.6899,6.6476,6.624,6.6305,6.6814,6.6984,6.6647,6.6455,6.6647,6.6647,6.6412,6.639,6.624,6.6133,6.6112,6.6112,6.6197,6.6112,6.6112,6.6112,6.6112,6.6112,7.7501,7.8252,7.8499,7.8227,7.7678,7.7623,7.7039,7.6273,7.616,7.5706,7.5116,7.4905,7.4664,7.4013,7.3994,7.4285,7.4895,7.4528,7.4606,7.4732,7.4472,7.3569,7.2525,7.1391,6.9167,6.7822,6.7065,6.7336,6.7901,6.7889,6.8032,6.8456,6.7885,6.7298,6.6283,6.6322,6.6579,6.6515,6.6472,6.6515,6.6305,6.6476,6.6878,6.6835,6.6665,6.7005,6.7112,6.6604,6.6262,6.6112,6.6112,6.6112,6.6112,6.6112,6.6112,6.6112,6.6112,6.6112,6.6112,6.6112,6.6112,6.6112,6.6112,6.6112,6.6112,6.6112,6.6176,6.6348,6.6326,6.624,6.6197,6.6133,6.6112,6.6283,6.6369,6.6369,6.6369,6.6326,6.628,6.6219,6.6112,6.6112,6.6112,6.6133,6.6219,6.6262,6.6433,6.654,6.6946,6.7201,6.7455,6.7683,6.7957,6.7747,6.7413,6.6707,6.6707,6.7324,6.7768,6.7536,6.7409,6.7455,6.7371,6.6967,6.6583,6.6348,6.624,6.6326,6.6348,6.6433,6.6197,6.6112,6.6197,6.6412,6.6711]}]]